<?xml version="1.0" encoding="UTF-8" standalone="no" ?>
<gpx xmlns="http://www.topografix.com/GPX/1/1" xmlns:xsi="http://www.w3.org/2001/XMLSchema-instance" xsi:schemaLocation="http://www.topografix.com/GPX/1/1 http://www.topografix.com/GPX/1/1/gpx.xsd" version="1.1" creator="VisuGPX - https://www.visugpx.com">
  <metadata>
    <name>Gif-Magny</name>
  </metadata>
  <trk>
    <name><![CDATA[06-AVR-19 05:20:30 PM]]></name>
    <trkseg>
      <trkpt lat="48.7324" lon="2.09297">
        <ele>115.98</ele>
        <time>2019-04-06T07:27:21Z</time>
      </trkpt>
      <trkpt lat="48.7324" lon="2.09296">
        <ele>26.57</ele>
        <time>2019-04-06T07:27:28Z</time>
      </trkpt>
      <trkpt lat="48.7324" lon="2.09296">
        <ele>26.57</ele>
        <time>2019-04-06T07:27:29Z</time>
      </trkpt>
      <trkpt lat="48.7324" lon="2.09296">
        <ele>112.61</ele>
        <time>2019-04-06T07:27:32Z</time>
      </trkpt>
      <trkpt lat="48.7324" lon="2.09296">
        <ele>112.61</ele>
        <time>2019-04-06T07:27:33Z</time>
      </trkpt>
      <trkpt lat="48.7324" lon="2.093">
        <ele>113.09</ele>
        <time>2019-04-06T07:27:48Z</time>
      </trkpt>
      <trkpt lat="48.73242" lon="2.09301">
        <ele>113.09</ele>
        <time>2019-04-06T07:28:04Z</time>
      </trkpt>
      <trkpt lat="48.7324" lon="2.09301">
        <ele>112.61</ele>
        <time>2019-04-06T07:28:25Z</time>
      </trkpt>
      <trkpt lat="48.73239" lon="2.093">
        <ele>113.57</ele>
        <time>2019-04-06T07:28:27Z</time>
      </trkpt>
      <trkpt lat="48.73239" lon="2.093">
        <ele>112.61</ele>
        <time>2019-04-06T07:28:53Z</time>
      </trkpt>
      <trkpt lat="48.73239" lon="2.09303">
        <ele>113.09</ele>
        <time>2019-04-06T07:29:27Z</time>
      </trkpt>
      <trkpt lat="48.73239" lon="2.09303">
        <ele>113.09</ele>
        <time>2019-04-06T07:29:32Z</time>
      </trkpt>
      <trkpt lat="48.7324" lon="2.09301">
        <ele>112.13</ele>
        <time>2019-04-06T07:29:34Z</time>
      </trkpt>
      <trkpt lat="48.73243" lon="2.09302">
        <ele>114.05</ele>
        <time>2019-04-06T07:29:37Z</time>
      </trkpt>
      <trkpt lat="48.73244" lon="2.09301">
        <ele>113.57</ele>
        <time>2019-04-06T07:29:39Z</time>
      </trkpt>
      <trkpt lat="48.73248" lon="2.09295">
        <ele>113.09</ele>
        <time>2019-04-06T07:29:48Z</time>
      </trkpt>
      <trkpt lat="48.73248" lon="2.09287">
        <ele>112.61</ele>
        <time>2019-04-06T07:29:59Z</time>
      </trkpt>
      <trkpt lat="48.73246" lon="2.09283">
        <ele>112.61</ele>
        <time>2019-04-06T07:30:10Z</time>
      </trkpt>
      <trkpt lat="48.73246" lon="2.09282">
        <ele>112.61</ele>
        <time>2019-04-06T07:30:20Z</time>
      </trkpt>
      <trkpt lat="48.73246" lon="2.09282">
        <ele>112.61</ele>
        <time>2019-04-06T07:30:38Z</time>
      </trkpt>
      <trkpt lat="48.73245" lon="2.0928">
        <ele>112.13</ele>
        <time>2019-04-06T07:30:55Z</time>
      </trkpt>
      <trkpt lat="48.73246" lon="2.09281">
        <ele>112.61</ele>
        <time>2019-04-06T07:31:06Z</time>
      </trkpt>
      <trkpt lat="48.73246" lon="2.09281">
        <ele>112.61</ele>
        <time>2019-04-06T07:31:17Z</time>
      </trkpt>
      <trkpt lat="48.73247" lon="2.09284">
        <ele>112.61</ele>
        <time>2019-04-06T07:31:27Z</time>
      </trkpt>
      <trkpt lat="48.73248" lon="2.09284">
        <ele>112.61</ele>
        <time>2019-04-06T07:31:45Z</time>
      </trkpt>
      <trkpt lat="48.73246" lon="2.09282">
        <ele>112.13</ele>
        <time>2019-04-06T07:32:02Z</time>
      </trkpt>
      <trkpt lat="48.73247" lon="2.09284">
        <ele>113.09</ele>
        <time>2019-04-06T07:32:12Z</time>
      </trkpt>
      <trkpt lat="48.73245" lon="2.09286">
        <ele>112.61</ele>
        <time>2019-04-06T07:32:30Z</time>
      </trkpt>
      <trkpt lat="48.73244" lon="2.09287">
        <ele>113.09</ele>
        <time>2019-04-06T07:32:47Z</time>
      </trkpt>
      <trkpt lat="48.73245" lon="2.09286">
        <ele>113.09</ele>
        <time>2019-04-06T07:33:09Z</time>
      </trkpt>
      <trkpt lat="48.73246" lon="2.09285">
        <ele>113.09</ele>
        <time>2019-04-06T07:33:29Z</time>
      </trkpt>
      <trkpt lat="48.73246" lon="2.09287">
        <ele>112.13</ele>
        <time>2019-04-06T07:33:50Z</time>
      </trkpt>
      <trkpt lat="48.73247" lon="2.09288">
        <ele>112.13</ele>
        <time>2019-04-06T07:34:13Z</time>
      </trkpt>
      <trkpt lat="48.73248" lon="2.09286">
        <ele>112.61</ele>
        <time>2019-04-06T07:34:27Z</time>
      </trkpt>
      <trkpt lat="48.73248" lon="2.09285">
        <ele>112.13</ele>
        <time>2019-04-06T07:34:49Z</time>
      </trkpt>
      <trkpt lat="48.73246" lon="2.09284">
        <ele>111.65</ele>
        <time>2019-04-06T07:35:08Z</time>
      </trkpt>
      <trkpt lat="48.73246" lon="2.09283">
        <ele>112.13</ele>
        <time>2019-04-06T07:35:26Z</time>
      </trkpt>
      <trkpt lat="48.73247" lon="2.09284">
        <ele>112.13</ele>
        <time>2019-04-06T07:35:48Z</time>
      </trkpt>
      <trkpt lat="48.73247" lon="2.09284">
        <ele>112.13</ele>
        <time>2019-04-06T07:36:10Z</time>
      </trkpt>
      <trkpt lat="48.73248" lon="2.09283">
        <ele>112.61</ele>
        <time>2019-04-06T07:36:32Z</time>
      </trkpt>
      <trkpt lat="48.73248" lon="2.09282">
        <ele>112.13</ele>
        <time>2019-04-06T07:36:58Z</time>
      </trkpt>
      <trkpt lat="48.73249" lon="2.09288">
        <ele>111.65</ele>
        <time>2019-04-06T07:37:18Z</time>
      </trkpt>
      <trkpt lat="48.73249" lon="2.09296">
        <ele>112.13</ele>
        <time>2019-04-06T07:37:24Z</time>
      </trkpt>
      <trkpt lat="48.73248" lon="2.09307">
        <ele>112.13</ele>
        <time>2019-04-06T07:37:33Z</time>
      </trkpt>
      <trkpt lat="48.73239" lon="2.09307">
        <ele>111.65</ele>
        <time>2019-04-06T07:37:43Z</time>
      </trkpt>
      <trkpt lat="48.73226" lon="2.09293">
        <ele>110.69</ele>
        <time>2019-04-06T07:37:54Z</time>
      </trkpt>
      <trkpt lat="48.73216" lon="2.09279">
        <ele>110.21</ele>
        <time>2019-04-06T07:38:05Z</time>
      </trkpt>
      <trkpt lat="48.73205" lon="2.09266">
        <ele>110.21</ele>
        <time>2019-04-06T07:38:18Z</time>
      </trkpt>
      <trkpt lat="48.73195" lon="2.09256">
        <ele>110.21</ele>
        <time>2019-04-06T07:38:29Z</time>
      </trkpt>
      <trkpt lat="48.7319" lon="2.09249">
        <ele>110.21</ele>
        <time>2019-04-06T07:38:43Z</time>
      </trkpt>
      <trkpt lat="48.7318" lon="2.09233">
        <ele>109.25</ele>
        <time>2019-04-06T07:38:59Z</time>
      </trkpt>
      <trkpt lat="48.73176" lon="2.09218">
        <ele>108.77</ele>
        <time>2019-04-06T07:39:11Z</time>
      </trkpt>
      <trkpt lat="48.73169" lon="2.09211">
        <ele>108.77</ele>
        <time>2019-04-06T07:39:23Z</time>
      </trkpt>
      <trkpt lat="48.73162" lon="2.09197">
        <ele>109.73</ele>
        <time>2019-04-06T07:39:34Z</time>
      </trkpt>
      <trkpt lat="48.73151" lon="2.09185">
        <ele>110.69</ele>
        <time>2019-04-06T07:39:47Z</time>
      </trkpt>
      <trkpt lat="48.73149" lon="2.09189">
        <ele>109.73</ele>
        <time>2019-04-06T07:39:58Z</time>
      </trkpt>
      <trkpt lat="48.73149" lon="2.09187">
        <ele>110.21</ele>
        <time>2019-04-06T07:40:05Z</time>
      </trkpt>
      <trkpt lat="48.73149" lon="2.09183">
        <ele>110.21</ele>
        <time>2019-04-06T07:40:07Z</time>
      </trkpt>
      <trkpt lat="48.73149" lon="2.09182">
        <ele>110.21</ele>
        <time>2019-04-06T07:40:08Z</time>
      </trkpt>
      <trkpt lat="48.7315" lon="2.09181">
        <ele>109.73</ele>
        <time>2019-04-06T07:40:09Z</time>
      </trkpt>
      <trkpt lat="48.73151" lon="2.09179">
        <ele>110.21</ele>
        <time>2019-04-06T07:40:10Z</time>
      </trkpt>
      <trkpt lat="48.73152" lon="2.09177">
        <ele>110.21</ele>
        <time>2019-04-06T07:40:11Z</time>
      </trkpt>
      <trkpt lat="48.73153" lon="2.09175">
        <ele>109.73</ele>
        <time>2019-04-06T07:40:12Z</time>
      </trkpt>
      <trkpt lat="48.73154" lon="2.09172">
        <ele>109.73</ele>
        <time>2019-04-06T07:40:13Z</time>
      </trkpt>
      <trkpt lat="48.73155" lon="2.0917">
        <ele>109.25</ele>
        <time>2019-04-06T07:40:14Z</time>
      </trkpt>
      <trkpt lat="48.73156" lon="2.09153">
        <ele>109.73</ele>
        <time>2019-04-06T07:40:25Z</time>
      </trkpt>
      <trkpt lat="48.73153" lon="2.09133">
        <ele>108.77</ele>
        <time>2019-04-06T07:40:38Z</time>
      </trkpt>
      <trkpt lat="48.73154" lon="2.09121">
        <ele>108.77</ele>
        <time>2019-04-06T07:40:46Z</time>
      </trkpt>
      <trkpt lat="48.73154" lon="2.09119">
        <ele>108.77</ele>
        <time>2019-04-06T07:40:47Z</time>
      </trkpt>
      <trkpt lat="48.73153" lon="2.09105">
        <ele>108.77</ele>
        <time>2019-04-06T07:40:55Z</time>
      </trkpt>
      <trkpt lat="48.73152" lon="2.09099">
        <ele>104.92</ele>
        <time>2019-04-06T07:40:59Z</time>
      </trkpt>
      <trkpt lat="48.73151" lon="2.09097">
        <ele>108.29</ele>
        <time>2019-04-06T07:41:00Z</time>
      </trkpt>
      <trkpt lat="48.73151" lon="2.09095">
        <ele>108.29</ele>
        <time>2019-04-06T07:41:02Z</time>
      </trkpt>
      <trkpt lat="48.73149" lon="2.09189">
        <ele>110.69</ele>
        <time>2019-04-06T07:41:18Z</time>
      </trkpt>
      <trkpt lat="48.73149" lon="2.09068">
        <ele>110.69</ele>
        <time>2019-04-06T07:41:19Z</time>
      </trkpt>
      <trkpt lat="48.7315" lon="2.09066">
        <ele>110.69</ele>
        <time>2019-04-06T07:41:21Z</time>
      </trkpt>
      <trkpt lat="48.7315" lon="2.09058">
        <ele>110.69</ele>
        <time>2019-04-06T07:41:29Z</time>
      </trkpt>
      <trkpt lat="48.7315" lon="2.09046">
        <ele>110.21</ele>
        <time>2019-04-06T07:41:37Z</time>
      </trkpt>
      <trkpt lat="48.73149" lon="2.09032">
        <ele>111.17</ele>
        <time>2019-04-06T07:41:46Z</time>
      </trkpt>
      <trkpt lat="48.73144" lon="2.09011">
        <ele>111.17</ele>
        <time>2019-04-06T07:42:00Z</time>
      </trkpt>
      <trkpt lat="48.73143" lon="2.08995">
        <ele>111.65</ele>
        <time>2019-04-06T07:42:13Z</time>
      </trkpt>
      <trkpt lat="48.73149" lon="2.08947">
        <ele>111.17</ele>
        <time>2019-04-06T07:42:30Z</time>
      </trkpt>
      <trkpt lat="48.73158" lon="2.08922">
        <ele>111.65</ele>
        <time>2019-04-06T07:42:45Z</time>
      </trkpt>
      <trkpt lat="48.73169" lon="2.08901">
        <ele>111.65</ele>
        <time>2019-04-06T07:42:59Z</time>
      </trkpt>
      <trkpt lat="48.73173" lon="2.08897">
        <ele>111.65</ele>
        <time>2019-04-06T07:43:03Z</time>
      </trkpt>
      <trkpt lat="48.73188" lon="2.08881">
        <ele>111.65</ele>
        <time>2019-04-06T07:43:22Z</time>
      </trkpt>
      <trkpt lat="48.732" lon="2.08868">
        <ele>111.65</ele>
        <time>2019-04-06T07:43:36Z</time>
      </trkpt>
      <trkpt lat="48.73211" lon="2.08854">
        <ele>112.13</ele>
        <time>2019-04-06T07:43:49Z</time>
      </trkpt>
      <trkpt lat="48.73223" lon="2.08839">
        <ele>113.09</ele>
        <time>2019-04-06T07:44:03Z</time>
      </trkpt>
      <trkpt lat="48.73239" lon="2.0882">
        <ele>112.61</ele>
        <time>2019-04-06T07:44:19Z</time>
      </trkpt>
      <trkpt lat="48.73253" lon="2.08806">
        <ele>112.61</ele>
        <time>2019-04-06T07:44:34Z</time>
      </trkpt>
      <trkpt lat="48.73257" lon="2.08801">
        <ele>112.61</ele>
        <time>2019-04-06T07:44:38Z</time>
      </trkpt>
      <trkpt lat="48.73258" lon="2.08799">
        <ele>113.09</ele>
        <time>2019-04-06T07:44:40Z</time>
      </trkpt>
      <trkpt lat="48.73271" lon="2.08785">
        <ele>113.57</ele>
        <time>2019-04-06T07:44:55Z</time>
      </trkpt>
      <trkpt lat="48.73281" lon="2.08771">
        <ele>113.57</ele>
        <time>2019-04-06T07:45:09Z</time>
      </trkpt>
      <trkpt lat="48.73283" lon="2.08769">
        <ele>113.57</ele>
        <time>2019-04-06T07:45:11Z</time>
      </trkpt>
      <trkpt lat="48.73296" lon="2.08755">
        <ele>114.05</ele>
        <time>2019-04-06T07:45:25Z</time>
      </trkpt>
      <trkpt lat="48.73304" lon="2.08745">
        <ele>114.53</ele>
        <time>2019-04-06T07:45:34Z</time>
      </trkpt>
      <trkpt lat="48.73316" lon="2.08733">
        <ele>114.05</ele>
        <time>2019-04-06T07:45:47Z</time>
      </trkpt>
      <trkpt lat="48.73319" lon="2.0873">
        <ele>114.05</ele>
        <time>2019-04-06T07:45:51Z</time>
      </trkpt>
      <trkpt lat="48.73327" lon="2.08724">
        <ele>114.53</ele>
        <time>2019-04-06T07:45:58Z</time>
      </trkpt>
      <trkpt lat="48.73342" lon="2.08714">
        <ele>115.01</ele>
        <time>2019-04-06T07:46:13Z</time>
      </trkpt>
      <trkpt lat="48.73358" lon="2.08705">
        <ele>114.53</ele>
        <time>2019-04-06T07:46:30Z</time>
      </trkpt>
      <trkpt lat="48.73373" lon="2.08697">
        <ele>114.53</ele>
        <time>2019-04-06T07:46:44Z</time>
      </trkpt>
      <trkpt lat="48.73387" lon="2.08686">
        <ele>115.01</ele>
        <time>2019-04-06T07:46:57Z</time>
      </trkpt>
      <trkpt lat="48.73392" lon="2.08679">
        <ele>114.53</ele>
        <time>2019-04-06T07:47:04Z</time>
      </trkpt>
      <trkpt lat="48.73401" lon="2.0867">
        <ele>115.01</ele>
        <time>2019-04-06T07:47:14Z</time>
      </trkpt>
      <trkpt lat="48.73405" lon="2.08662">
        <ele>115.01</ele>
        <time>2019-04-06T07:47:24Z</time>
      </trkpt>
      <trkpt lat="48.73406" lon="2.08664">
        <ele>115.01</ele>
        <time>2019-04-06T07:47:39Z</time>
      </trkpt>
      <trkpt lat="48.73406" lon="2.08664">
        <ele>115.01</ele>
        <time>2019-04-06T07:48:07Z</time>
      </trkpt>
      <trkpt lat="48.7341" lon="2.08666">
        <ele>115.01</ele>
        <time>2019-04-06T07:48:33Z</time>
      </trkpt>
      <trkpt lat="48.73409" lon="2.08658">
        <ele>114.53</ele>
        <time>2019-04-06T07:49:04Z</time>
      </trkpt>
      <trkpt lat="48.73405" lon="2.08662">
        <ele>115.5</ele>
        <time>2019-04-06T07:49:16Z</time>
      </trkpt>
      <trkpt lat="48.73416" lon="2.08663">
        <ele>114.53</ele>
        <time>2019-04-06T07:49:30Z</time>
      </trkpt>
      <trkpt lat="48.73418" lon="2.08663">
        <ele>114.53</ele>
        <time>2019-04-06T07:49:33Z</time>
      </trkpt>
      <trkpt lat="48.73434" lon="2.08663">
        <ele>113.57</ele>
        <time>2019-04-06T07:49:49Z</time>
      </trkpt>
      <trkpt lat="48.73443" lon="2.08657">
        <ele>113.09</ele>
        <time>2019-04-06T07:50:00Z</time>
      </trkpt>
      <trkpt lat="48.73446" lon="2.08655">
        <ele>112.61</ele>
        <time>2019-04-06T07:50:04Z</time>
      </trkpt>
      <trkpt lat="48.73454" lon="2.08646">
        <ele>113.57</ele>
        <time>2019-04-06T07:50:17Z</time>
      </trkpt>
      <trkpt lat="48.7346" lon="2.08642">
        <ele>113.57</ele>
        <time>2019-04-06T07:50:23Z</time>
      </trkpt>
      <trkpt lat="48.73467" lon="2.08626">
        <ele>113.57</ele>
        <time>2019-04-06T07:50:35Z</time>
      </trkpt>
      <trkpt lat="48.7348" lon="2.08608">
        <ele>113.57</ele>
        <time>2019-04-06T07:50:51Z</time>
      </trkpt>
      <trkpt lat="48.73484" lon="2.08603">
        <ele>113.09</ele>
        <time>2019-04-06T07:50:56Z</time>
      </trkpt>
      <trkpt lat="48.73492" lon="2.08588">
        <ele>114.05</ele>
        <time>2019-04-06T07:51:06Z</time>
      </trkpt>
      <trkpt lat="48.73494" lon="2.08582">
        <ele>113.57</ele>
        <time>2019-04-06T07:51:11Z</time>
      </trkpt>
      <trkpt lat="48.73497" lon="2.08576">
        <ele>113.57</ele>
        <time>2019-04-06T07:51:16Z</time>
      </trkpt>
      <trkpt lat="48.7351" lon="2.08562">
        <ele>113.09</ele>
        <time>2019-04-06T07:51:30Z</time>
      </trkpt>
      <trkpt lat="48.73518" lon="2.08559">
        <ele>113.09</ele>
        <time>2019-04-06T07:51:38Z</time>
      </trkpt>
      <trkpt lat="48.73521" lon="2.08558">
        <ele>112.61</ele>
        <time>2019-04-06T07:51:43Z</time>
      </trkpt>
      <trkpt lat="48.73522" lon="2.08555">
        <ele>112.61</ele>
        <time>2019-04-06T07:51:45Z</time>
      </trkpt>
      <trkpt lat="48.73526" lon="2.08547">
        <ele>113.57</ele>
        <time>2019-04-06T07:51:51Z</time>
      </trkpt>
      <trkpt lat="48.73527" lon="2.08544">
        <ele>113.09</ele>
        <time>2019-04-06T07:51:53Z</time>
      </trkpt>
      <trkpt lat="48.7354" lon="2.08525">
        <ele>113.09</ele>
        <time>2019-04-06T07:52:07Z</time>
      </trkpt>
      <trkpt lat="48.73548" lon="2.08517">
        <ele>113.09</ele>
        <time>2019-04-06T07:52:17Z</time>
      </trkpt>
      <trkpt lat="48.73552" lon="2.0851">
        <ele>113.09</ele>
        <time>2019-04-06T07:52:22Z</time>
      </trkpt>
      <trkpt lat="48.73556" lon="2.08504">
        <ele>113.57</ele>
        <time>2019-04-06T07:52:27Z</time>
      </trkpt>
      <trkpt lat="48.73566" lon="2.08493">
        <ele>113.57</ele>
        <time>2019-04-06T07:52:42Z</time>
      </trkpt>
      <trkpt lat="48.7357" lon="2.08489">
        <ele>113.57</ele>
        <time>2019-04-06T07:52:45Z</time>
      </trkpt>
      <trkpt lat="48.73573" lon="2.08482">
        <ele>113.09</ele>
        <time>2019-04-06T07:52:50Z</time>
      </trkpt>
      <trkpt lat="48.73587" lon="2.08468">
        <ele>113.57</ele>
        <time>2019-04-06T07:53:04Z</time>
      </trkpt>
      <trkpt lat="48.7359" lon="2.08466">
        <ele>114.05</ele>
        <time>2019-04-06T07:53:07Z</time>
      </trkpt>
      <trkpt lat="48.73597" lon="2.08456">
        <ele>113.57</ele>
        <time>2019-04-06T07:53:14Z</time>
      </trkpt>
      <trkpt lat="48.73607" lon="2.08442">
        <ele>113.57</ele>
        <time>2019-04-06T07:53:26Z</time>
      </trkpt>
      <trkpt lat="48.73609" lon="2.0844">
        <ele>113.09</ele>
        <time>2019-04-06T07:53:28Z</time>
      </trkpt>
      <trkpt lat="48.73617" lon="2.08442">
        <ele>113.57</ele>
        <time>2019-04-06T07:53:39Z</time>
      </trkpt>
      <trkpt lat="48.73622" lon="2.08446">
        <ele>112.61</ele>
        <time>2019-04-06T07:53:44Z</time>
      </trkpt>
      <trkpt lat="48.73638" lon="2.08448">
        <ele>113.09</ele>
        <time>2019-04-06T07:54:00Z</time>
      </trkpt>
      <trkpt lat="48.73654" lon="2.08442">
        <ele>113.09</ele>
        <time>2019-04-06T07:54:14Z</time>
      </trkpt>
      <trkpt lat="48.73665" lon="2.08441">
        <ele>113.09</ele>
        <time>2019-04-06T07:54:27Z</time>
      </trkpt>
      <trkpt lat="48.73679" lon="2.08447">
        <ele>113.57</ele>
        <time>2019-04-06T07:54:40Z</time>
      </trkpt>
      <trkpt lat="48.73692" lon="2.08452">
        <ele>113.57</ele>
        <time>2019-04-06T07:54:55Z</time>
      </trkpt>
      <trkpt lat="48.73707" lon="2.08455">
        <ele>114.05</ele>
        <time>2019-04-06T07:55:08Z</time>
      </trkpt>
      <trkpt lat="48.73723" lon="2.08457">
        <ele>113.57</ele>
        <time>2019-04-06T07:55:21Z</time>
      </trkpt>
      <trkpt lat="48.73724" lon="2.08456">
        <ele>114.05</ele>
        <time>2019-04-06T07:55:22Z</time>
      </trkpt>
      <trkpt lat="48.73732" lon="2.08443">
        <ele>114.05</ele>
        <time>2019-04-06T07:55:33Z</time>
      </trkpt>
      <trkpt lat="48.73734" lon="2.08432">
        <ele>113.57</ele>
        <time>2019-04-06T07:55:39Z</time>
      </trkpt>
      <trkpt lat="48.73738" lon="2.08419">
        <ele>114.05</ele>
        <time>2019-04-06T07:55:48Z</time>
      </trkpt>
      <trkpt lat="48.73749" lon="2.08412">
        <ele>114.05</ele>
        <time>2019-04-06T07:56:00Z</time>
      </trkpt>
      <trkpt lat="48.73753" lon="2.08408">
        <ele>114.05</ele>
        <time>2019-04-06T07:56:05Z</time>
      </trkpt>
      <trkpt lat="48.73755" lon="2.08405">
        <ele>114.53</ele>
        <time>2019-04-06T07:56:08Z</time>
      </trkpt>
      <trkpt lat="48.73763" lon="2.08399">
        <ele>114.53</ele>
        <time>2019-04-06T07:56:17Z</time>
      </trkpt>
      <trkpt lat="48.73776" lon="2.08387">
        <ele>114.53</ele>
        <time>2019-04-06T07:56:30Z</time>
      </trkpt>
      <trkpt lat="48.73781" lon="2.08381">
        <ele>115.01</ele>
        <time>2019-04-06T07:56:37Z</time>
      </trkpt>
      <trkpt lat="48.73792" lon="2.08373">
        <ele>115.01</ele>
        <time>2019-04-06T07:56:47Z</time>
      </trkpt>
      <trkpt lat="48.73807" lon="2.08364">
        <ele>114.05</ele>
        <time>2019-04-06T07:56:59Z</time>
      </trkpt>
      <trkpt lat="48.73821" lon="2.0835">
        <ele>114.53</ele>
        <time>2019-04-06T07:57:13Z</time>
      </trkpt>
      <trkpt lat="48.73824" lon="2.08348">
        <ele>114.53</ele>
        <time>2019-04-06T07:57:16Z</time>
      </trkpt>
      <trkpt lat="48.73835" lon="2.08337">
        <ele>114.53</ele>
        <time>2019-04-06T07:57:25Z</time>
      </trkpt>
      <trkpt lat="48.73835" lon="2.08336">
        <ele>115.01</ele>
        <time>2019-04-06T07:57:27Z</time>
      </trkpt>
      <trkpt lat="48.73841" lon="2.08332">
        <ele>115.01</ele>
        <time>2019-04-06T07:57:35Z</time>
      </trkpt>
      <trkpt lat="48.73852" lon="2.08323">
        <ele>114.53</ele>
        <time>2019-04-06T07:57:45Z</time>
      </trkpt>
      <trkpt lat="48.73862" lon="2.08315">
        <ele>115.5</ele>
        <time>2019-04-06T07:57:53Z</time>
      </trkpt>
      <trkpt lat="48.73867" lon="2.08311">
        <ele>115.01</ele>
        <time>2019-04-06T07:57:58Z</time>
      </trkpt>
      <trkpt lat="48.73872" lon="2.08301">
        <ele>115.01</ele>
        <time>2019-04-06T07:58:10Z</time>
      </trkpt>
      <trkpt lat="48.73876" lon="2.08298">
        <ele>115.5</ele>
        <time>2019-04-06T07:58:17Z</time>
      </trkpt>
      <trkpt lat="48.73885" lon="2.08292">
        <ele>115.5</ele>
        <time>2019-04-06T07:58:27Z</time>
      </trkpt>
      <trkpt lat="48.73896" lon="2.0829">
        <ele>115.5</ele>
        <time>2019-04-06T07:58:39Z</time>
      </trkpt>
      <trkpt lat="48.73898" lon="2.0829">
        <ele>115.98</ele>
        <time>2019-04-06T07:58:43Z</time>
      </trkpt>
      <trkpt lat="48.739" lon="2.08288">
        <ele>115.98</ele>
        <time>2019-04-06T07:58:45Z</time>
      </trkpt>
      <trkpt lat="48.73906" lon="2.08283">
        <ele>115.98</ele>
        <time>2019-04-06T07:58:52Z</time>
      </trkpt>
      <trkpt lat="48.73918" lon="2.08275">
        <ele>117.42</ele>
        <time>2019-04-06T07:59:04Z</time>
      </trkpt>
      <trkpt lat="48.7393" lon="2.08274">
        <ele>118.38</ele>
        <time>2019-04-06T07:59:17Z</time>
      </trkpt>
      <trkpt lat="48.73937" lon="2.08273">
        <ele>119.34</ele>
        <time>2019-04-06T07:59:27Z</time>
      </trkpt>
      <trkpt lat="48.73938" lon="2.08246">
        <ele>119.82</ele>
        <time>2019-04-06T07:59:40Z</time>
      </trkpt>
      <trkpt lat="48.73938" lon="2.08242">
        <ele>119.34</ele>
        <time>2019-04-06T07:59:43Z</time>
      </trkpt>
      <trkpt lat="48.73937" lon="2.08237">
        <ele>119.34</ele>
        <time>2019-04-06T07:59:45Z</time>
      </trkpt>
      <trkpt lat="48.7394" lon="2.08231">
        <ele>116.94</ele>
        <time>2019-04-06T07:59:55Z</time>
      </trkpt>
      <trkpt lat="48.73943" lon="2.08233">
        <ele>115.98</ele>
        <time>2019-04-06T07:59:58Z</time>
      </trkpt>
      <trkpt lat="48.73945" lon="2.08236">
        <ele>115.98</ele>
        <time>2019-04-06T08:00:01Z</time>
      </trkpt>
      <trkpt lat="48.73955" lon="2.08239">
        <ele>115.98</ele>
        <time>2019-04-06T08:00:14Z</time>
      </trkpt>
      <trkpt lat="48.73956" lon="2.08238">
        <ele>115.01</ele>
        <time>2019-04-06T08:00:16Z</time>
      </trkpt>
      <trkpt lat="48.73961" lon="2.08232">
        <ele>115.5</ele>
        <time>2019-04-06T08:00:21Z</time>
      </trkpt>
      <trkpt lat="48.73973" lon="2.08231">
        <ele>116.94</ele>
        <time>2019-04-06T08:00:34Z</time>
      </trkpt>
      <trkpt lat="48.73982" lon="2.08228">
        <ele>115.98</ele>
        <time>2019-04-06T08:00:41Z</time>
      </trkpt>
      <trkpt lat="48.73996" lon="2.08221">
        <ele>115.98</ele>
        <time>2019-04-06T08:00:51Z</time>
      </trkpt>
      <trkpt lat="48.73998" lon="2.0822">
        <ele>115.98</ele>
        <time>2019-04-06T08:00:53Z</time>
      </trkpt>
      <trkpt lat="48.7401" lon="2.08214">
        <ele>115.98</ele>
        <time>2019-04-06T08:01:03Z</time>
      </trkpt>
      <trkpt lat="48.74018" lon="2.082">
        <ele>115.5</ele>
        <time>2019-04-06T08:01:09Z</time>
      </trkpt>
      <trkpt lat="48.7402" lon="2.08198">
        <ele>115.98</ele>
        <time>2019-04-06T08:01:10Z</time>
      </trkpt>
      <trkpt lat="48.74024" lon="2.08193">
        <ele>116.46</ele>
        <time>2019-04-06T08:01:16Z</time>
      </trkpt>
      <trkpt lat="48.74025" lon="2.0819">
        <ele>115.98</ele>
        <time>2019-04-06T08:01:17Z</time>
      </trkpt>
      <trkpt lat="48.74027" lon="2.08185">
        <ele>116.46</ele>
        <time>2019-04-06T08:01:20Z</time>
      </trkpt>
      <trkpt lat="48.74027" lon="2.08183">
        <ele>115.98</ele>
        <time>2019-04-06T08:01:21Z</time>
      </trkpt>
      <trkpt lat="48.74033" lon="2.08174">
        <ele>115.98</ele>
        <time>2019-04-06T08:01:29Z</time>
      </trkpt>
      <trkpt lat="48.7404" lon="2.08156">
        <ele>115.98</ele>
        <time>2019-04-06T08:01:40Z</time>
      </trkpt>
      <trkpt lat="48.74045" lon="2.08149">
        <ele>115.98</ele>
        <time>2019-04-06T08:01:47Z</time>
      </trkpt>
      <trkpt lat="48.74046" lon="2.08146">
        <ele>115.98</ele>
        <time>2019-04-06T08:01:48Z</time>
      </trkpt>
      <trkpt lat="48.74053" lon="2.08127">
        <ele>115.98</ele>
        <time>2019-04-06T08:01:59Z</time>
      </trkpt>
      <trkpt lat="48.74054" lon="2.08125">
        <ele>115.98</ele>
        <time>2019-04-06T08:02:00Z</time>
      </trkpt>
      <trkpt lat="48.74063" lon="2.08106">
        <ele>115.98</ele>
        <time>2019-04-06T08:02:12Z</time>
      </trkpt>
      <trkpt lat="48.7407" lon="2.08084">
        <ele>116.46</ele>
        <time>2019-04-06T08:02:25Z</time>
      </trkpt>
      <trkpt lat="48.74074" lon="2.08064">
        <ele>116.46</ele>
        <time>2019-04-06T08:02:37Z</time>
      </trkpt>
      <trkpt lat="48.74074" lon="2.08063">
        <ele>115.98</ele>
        <time>2019-04-06T08:02:38Z</time>
      </trkpt>
      <trkpt lat="48.74075" lon="2.08061">
        <ele>115.98</ele>
        <time>2019-04-06T08:02:39Z</time>
      </trkpt>
      <trkpt lat="48.7408" lon="2.08049">
        <ele>116.46</ele>
        <time>2019-04-06T08:02:50Z</time>
      </trkpt>
      <trkpt lat="48.74081" lon="2.08046">
        <ele>115.98</ele>
        <time>2019-04-06T08:02:51Z</time>
      </trkpt>
      <trkpt lat="48.74082" lon="2.08043">
        <ele>115.98</ele>
        <time>2019-04-06T08:02:52Z</time>
      </trkpt>
      <trkpt lat="48.7409" lon="2.08024">
        <ele>115.98</ele>
        <time>2019-04-06T08:03:04Z</time>
      </trkpt>
      <trkpt lat="48.74091" lon="2.08021">
        <ele>116.46</ele>
        <time>2019-04-06T08:03:05Z</time>
      </trkpt>
      <trkpt lat="48.74096" lon="2.0801">
        <ele>116.46</ele>
        <time>2019-04-06T08:03:14Z</time>
      </trkpt>
      <trkpt lat="48.74103" lon="2.07997">
        <ele>115.98</ele>
        <time>2019-04-06T08:03:23Z</time>
      </trkpt>
      <trkpt lat="48.74104" lon="2.07995">
        <ele>115.98</ele>
        <time>2019-04-06T08:03:25Z</time>
      </trkpt>
      <trkpt lat="48.74104" lon="2.07994">
        <ele>116.46</ele>
        <time>2019-04-06T08:03:26Z</time>
      </trkpt>
      <trkpt lat="48.74105" lon="2.07991">
        <ele>115.98</ele>
        <time>2019-04-06T08:03:27Z</time>
      </trkpt>
      <trkpt lat="48.74106" lon="2.07989">
        <ele>115.98</ele>
        <time>2019-04-06T08:03:28Z</time>
      </trkpt>
      <trkpt lat="48.74107" lon="2.07987">
        <ele>115.98</ele>
        <time>2019-04-06T08:03:29Z</time>
      </trkpt>
      <trkpt lat="48.74108" lon="2.0798">
        <ele>116.46</ele>
        <time>2019-04-06T08:03:35Z</time>
      </trkpt>
      <trkpt lat="48.74115" lon="2.07959">
        <ele>116.46</ele>
        <time>2019-04-06T08:03:47Z</time>
      </trkpt>
      <trkpt lat="48.7412" lon="2.07948">
        <ele>116.46</ele>
        <time>2019-04-06T08:03:53Z</time>
      </trkpt>
      <trkpt lat="48.7412" lon="2.07945">
        <ele>116.94</ele>
        <time>2019-04-06T08:03:54Z</time>
      </trkpt>
      <trkpt lat="48.74121" lon="2.07943">
        <ele>117.42</ele>
        <time>2019-04-06T08:03:55Z</time>
      </trkpt>
      <trkpt lat="48.74129" lon="2.07929">
        <ele>117.9</ele>
        <time>2019-04-06T08:04:07Z</time>
      </trkpt>
      <trkpt lat="48.74129" lon="2.07923">
        <ele>117.42</ele>
        <time>2019-04-06T08:04:11Z</time>
      </trkpt>
      <trkpt lat="48.74133" lon="2.07906">
        <ele>117.42</ele>
        <time>2019-04-06T08:04:20Z</time>
      </trkpt>
      <trkpt lat="48.74135" lon="2.07904">
        <ele>117.42</ele>
        <time>2019-04-06T08:04:21Z</time>
      </trkpt>
      <trkpt lat="48.74135" lon="2.07902">
        <ele>116.94</ele>
        <time>2019-04-06T08:04:22Z</time>
      </trkpt>
      <trkpt lat="48.74143" lon="2.07876">
        <ele>117.42</ele>
        <time>2019-04-06T08:04:36Z</time>
      </trkpt>
      <trkpt lat="48.74148" lon="2.07865">
        <ele>116.94</ele>
        <time>2019-04-06T08:04:45Z</time>
      </trkpt>
      <trkpt lat="48.74149" lon="2.07863">
        <ele>116.94</ele>
        <time>2019-04-06T08:04:46Z</time>
      </trkpt>
      <trkpt lat="48.74154" lon="2.07845">
        <ele>116.46</ele>
        <time>2019-04-06T08:04:57Z</time>
      </trkpt>
      <trkpt lat="48.74155" lon="2.0784">
        <ele>115.98</ele>
        <time>2019-04-06T08:05:00Z</time>
      </trkpt>
      <trkpt lat="48.74156" lon="2.07838">
        <ele>116.94</ele>
        <time>2019-04-06T08:05:01Z</time>
      </trkpt>
      <trkpt lat="48.74157" lon="2.07836">
        <ele>116.94</ele>
        <time>2019-04-06T08:05:02Z</time>
      </trkpt>
      <trkpt lat="48.74164" lon="2.07821">
        <ele>116.94</ele>
        <time>2019-04-06T08:05:11Z</time>
      </trkpt>
      <trkpt lat="48.74167" lon="2.07812">
        <ele>116.94</ele>
        <time>2019-04-06T08:05:16Z</time>
      </trkpt>
      <trkpt lat="48.74168" lon="2.07809">
        <ele>117.42</ele>
        <time>2019-04-06T08:05:17Z</time>
      </trkpt>
      <trkpt lat="48.74169" lon="2.07807">
        <ele>117.42</ele>
        <time>2019-04-06T08:05:18Z</time>
      </trkpt>
      <trkpt lat="48.74175" lon="2.07793">
        <ele>116.94</ele>
        <time>2019-04-06T08:05:28Z</time>
      </trkpt>
      <trkpt lat="48.74177" lon="2.07791">
        <ele>116.46</ele>
        <time>2019-04-06T08:05:29Z</time>
      </trkpt>
      <trkpt lat="48.74178" lon="2.07789">
        <ele>117.42</ele>
        <time>2019-04-06T08:05:30Z</time>
      </trkpt>
      <trkpt lat="48.74187" lon="2.07781">
        <ele>116.46</ele>
        <time>2019-04-06T08:05:41Z</time>
      </trkpt>
      <trkpt lat="48.74195" lon="2.07769">
        <ele>115.98</ele>
        <time>2019-04-06T08:05:52Z</time>
      </trkpt>
      <trkpt lat="48.74203" lon="2.07754">
        <ele>116.46</ele>
        <time>2019-04-06T08:06:03Z</time>
      </trkpt>
      <trkpt lat="48.74217" lon="2.0774">
        <ele>116.46</ele>
        <time>2019-04-06T08:06:14Z</time>
      </trkpt>
      <trkpt lat="48.74219" lon="2.07736">
        <ele>116.46</ele>
        <time>2019-04-06T08:06:19Z</time>
      </trkpt>
      <trkpt lat="48.7422" lon="2.07733">
        <ele>116.94</ele>
        <time>2019-04-06T08:06:20Z</time>
      </trkpt>
      <trkpt lat="48.74221" lon="2.07731">
        <ele>116.46</ele>
        <time>2019-04-06T08:06:21Z</time>
      </trkpt>
      <trkpt lat="48.74223" lon="2.07728">
        <ele>116.94</ele>
        <time>2019-04-06T08:06:22Z</time>
      </trkpt>
      <trkpt lat="48.74224" lon="2.07725">
        <ele>116.46</ele>
        <time>2019-04-06T08:06:23Z</time>
      </trkpt>
      <trkpt lat="48.74231" lon="2.0771">
        <ele>116.46</ele>
        <time>2019-04-06T08:06:34Z</time>
      </trkpt>
      <trkpt lat="48.74238" lon="2.07692">
        <ele>116.94</ele>
        <time>2019-04-06T08:06:47Z</time>
      </trkpt>
      <trkpt lat="48.74245" lon="2.07668">
        <ele>117.42</ele>
        <time>2019-04-06T08:07:00Z</time>
      </trkpt>
      <trkpt lat="48.74259" lon="2.07643">
        <ele>117.42</ele>
        <time>2019-04-06T08:07:14Z</time>
      </trkpt>
      <trkpt lat="48.74266" lon="2.0762">
        <ele>117.9</ele>
        <time>2019-04-06T08:07:30Z</time>
      </trkpt>
      <trkpt lat="48.74277" lon="2.07601">
        <ele>117.9</ele>
        <time>2019-04-06T08:07:42Z</time>
      </trkpt>
      <trkpt lat="48.74285" lon="2.07581">
        <ele>118.38</ele>
        <time>2019-04-06T08:07:57Z</time>
      </trkpt>
      <trkpt lat="48.74292" lon="2.07564">
        <ele>118.38</ele>
        <time>2019-04-06T08:08:11Z</time>
      </trkpt>
      <trkpt lat="48.74297" lon="2.0755">
        <ele>118.86</ele>
        <time>2019-04-06T08:08:19Z</time>
      </trkpt>
      <trkpt lat="48.74298" lon="2.07549">
        <ele>118.38</ele>
        <time>2019-04-06T08:08:20Z</time>
      </trkpt>
      <trkpt lat="48.74299" lon="2.07547">
        <ele>118.38</ele>
        <time>2019-04-06T08:08:21Z</time>
      </trkpt>
      <trkpt lat="48.743" lon="2.07546">
        <ele>117.9</ele>
        <time>2019-04-06T08:08:22Z</time>
      </trkpt>
      <trkpt lat="48.74304" lon="2.07541">
        <ele>118.38</ele>
        <time>2019-04-06T08:08:29Z</time>
      </trkpt>
      <trkpt lat="48.74312" lon="2.07529">
        <ele>118.86</ele>
        <time>2019-04-06T08:08:38Z</time>
      </trkpt>
      <trkpt lat="48.74314" lon="2.07527">
        <ele>118.38</ele>
        <time>2019-04-06T08:08:39Z</time>
      </trkpt>
      <trkpt lat="48.74321" lon="2.07505">
        <ele>119.34</ele>
        <time>2019-04-06T08:08:54Z</time>
      </trkpt>
      <trkpt lat="48.74323" lon="2.07498">
        <ele>118.86</ele>
        <time>2019-04-06T08:08:57Z</time>
      </trkpt>
      <trkpt lat="48.7433" lon="2.07477">
        <ele>118.86</ele>
        <time>2019-04-06T08:09:14Z</time>
      </trkpt>
      <trkpt lat="48.74341" lon="2.07451">
        <ele>119.34</ele>
        <time>2019-04-06T08:09:29Z</time>
      </trkpt>
      <trkpt lat="48.74348" lon="2.0743">
        <ele>119.34</ele>
        <time>2019-04-06T08:09:45Z</time>
      </trkpt>
      <trkpt lat="48.74362" lon="2.07406">
        <ele>120.3</ele>
        <time>2019-04-06T08:10:01Z</time>
      </trkpt>
      <trkpt lat="48.74377" lon="2.07386">
        <ele>120.3</ele>
        <time>2019-04-06T08:10:20Z</time>
      </trkpt>
      <trkpt lat="48.74384" lon="2.07365">
        <ele>120.78</ele>
        <time>2019-04-06T08:10:35Z</time>
      </trkpt>
      <trkpt lat="48.74387" lon="2.07359">
        <ele>120.3</ele>
        <time>2019-04-06T08:10:51Z</time>
      </trkpt>
      <trkpt lat="48.74388" lon="2.07357">
        <ele>120.78</ele>
        <time>2019-04-06T08:10:52Z</time>
      </trkpt>
      <trkpt lat="48.74388" lon="2.07355">
        <ele>120.3</ele>
        <time>2019-04-06T08:10:53Z</time>
      </trkpt>
      <trkpt lat="48.74394" lon="2.07332">
        <ele>120.3</ele>
        <time>2019-04-06T08:11:08Z</time>
      </trkpt>
      <trkpt lat="48.74394" lon="2.0733">
        <ele>120.78</ele>
        <time>2019-04-06T08:11:09Z</time>
      </trkpt>
      <trkpt lat="48.74404" lon="2.07315">
        <ele>121.26</ele>
        <time>2019-04-06T08:11:24Z</time>
      </trkpt>
      <trkpt lat="48.74405" lon="2.07315">
        <ele>121.26</ele>
        <time>2019-04-06T08:11:25Z</time>
      </trkpt>
      <trkpt lat="48.74422" lon="2.07314">
        <ele>121.26</ele>
        <time>2019-04-06T08:11:38Z</time>
      </trkpt>
      <trkpt lat="48.7444" lon="2.07303">
        <ele>121.26</ele>
        <time>2019-04-06T08:11:55Z</time>
      </trkpt>
      <trkpt lat="48.74452" lon="2.07297">
        <ele>121.74</ele>
        <time>2019-04-06T08:12:01Z</time>
      </trkpt>
      <trkpt lat="48.74466" lon="2.07283">
        <ele>122.22</ele>
        <time>2019-04-06T08:12:15Z</time>
      </trkpt>
      <trkpt lat="48.74469" lon="2.07264">
        <ele>121.26</ele>
        <time>2019-04-06T08:12:30Z</time>
      </trkpt>
      <trkpt lat="48.74469" lon="2.07261">
        <ele>122.22</ele>
        <time>2019-04-06T08:12:32Z</time>
      </trkpt>
      <trkpt lat="48.74464" lon="2.07247">
        <ele>121.74</ele>
        <time>2019-04-06T08:12:41Z</time>
      </trkpt>
      <trkpt lat="48.74469" lon="2.07219">
        <ele>122.71</ele>
        <time>2019-04-06T08:12:55Z</time>
      </trkpt>
      <trkpt lat="48.74457" lon="2.07199">
        <ele>122.71</ele>
        <time>2019-04-06T08:13:09Z</time>
      </trkpt>
      <trkpt lat="48.74452" lon="2.07178">
        <ele>122.71</ele>
        <time>2019-04-06T08:13:22Z</time>
      </trkpt>
      <trkpt lat="48.7445" lon="2.07152">
        <ele>122.22</ele>
        <time>2019-04-06T08:13:36Z</time>
      </trkpt>
      <trkpt lat="48.74449" lon="2.07146">
        <ele>121.74</ele>
        <time>2019-04-06T08:13:40Z</time>
      </trkpt>
      <trkpt lat="48.7445" lon="2.07145">
        <ele>121.26</ele>
        <time>2019-04-06T08:13:41Z</time>
      </trkpt>
      <trkpt lat="48.74451" lon="2.07129">
        <ele>122.22</ele>
        <time>2019-04-06T08:13:52Z</time>
      </trkpt>
      <trkpt lat="48.7445" lon="2.0712">
        <ele>121.74</ele>
        <time>2019-04-06T08:13:56Z</time>
      </trkpt>
      <trkpt lat="48.74447" lon="2.07104">
        <ele>122.22</ele>
        <time>2019-04-06T08:14:09Z</time>
      </trkpt>
      <trkpt lat="48.74448" lon="2.071">
        <ele>122.22</ele>
        <time>2019-04-06T08:14:11Z</time>
      </trkpt>
      <trkpt lat="48.74448" lon="2.07098">
        <ele>121.74</ele>
        <time>2019-04-06T08:14:12Z</time>
      </trkpt>
      <trkpt lat="48.74449" lon="2.07094">
        <ele>122.22</ele>
        <time>2019-04-06T08:14:13Z</time>
      </trkpt>
      <trkpt lat="48.74452" lon="2.07075">
        <ele>122.22</ele>
        <time>2019-04-06T08:14:21Z</time>
      </trkpt>
      <trkpt lat="48.74453" lon="2.07063">
        <ele>122.22</ele>
        <time>2019-04-06T08:14:29Z</time>
      </trkpt>
      <trkpt lat="48.74446" lon="2.07052">
        <ele>122.71</ele>
        <time>2019-04-06T08:14:35Z</time>
      </trkpt>
      <trkpt lat="48.74445" lon="2.07029">
        <ele>121.74</ele>
        <time>2019-04-06T08:14:44Z</time>
      </trkpt>
      <trkpt lat="48.74441" lon="2.07007">
        <ele>122.71</ele>
        <time>2019-04-06T08:14:58Z</time>
      </trkpt>
      <trkpt lat="48.74444" lon="2.0699">
        <ele>122.71</ele>
        <time>2019-04-06T08:15:11Z</time>
      </trkpt>
      <trkpt lat="48.74442" lon="2.06972">
        <ele>123.19</ele>
        <time>2019-04-06T08:15:24Z</time>
      </trkpt>
      <trkpt lat="48.7444" lon="2.06948">
        <ele>124.15</ele>
        <time>2019-04-06T08:15:38Z</time>
      </trkpt>
      <trkpt lat="48.74441" lon="2.0694">
        <ele>123.67</ele>
        <time>2019-04-06T08:15:42Z</time>
      </trkpt>
      <trkpt lat="48.74448" lon="2.06918">
        <ele>125.11</ele>
        <time>2019-04-06T08:15:57Z</time>
      </trkpt>
      <trkpt lat="48.74449" lon="2.06911">
        <ele>124.63</ele>
        <time>2019-04-06T08:16:11Z</time>
      </trkpt>
      <trkpt lat="48.7445" lon="2.069">
        <ele>124.63</ele>
        <time>2019-04-06T08:16:35Z</time>
      </trkpt>
      <trkpt lat="48.74449" lon="2.06898">
        <ele>125.11</ele>
        <time>2019-04-06T08:16:46Z</time>
      </trkpt>
      <trkpt lat="48.74451" lon="2.06894">
        <ele>125.11</ele>
        <time>2019-04-06T08:16:50Z</time>
      </trkpt>
      <trkpt lat="48.74446" lon="2.06881">
        <ele>125.11</ele>
        <time>2019-04-06T08:17:00Z</time>
      </trkpt>
      <trkpt lat="48.74441" lon="2.06862">
        <ele>125.11</ele>
        <time>2019-04-06T08:17:10Z</time>
      </trkpt>
      <trkpt lat="48.74442" lon="2.06847">
        <ele>125.11</ele>
        <time>2019-04-06T08:17:22Z</time>
      </trkpt>
      <trkpt lat="48.74435" lon="2.06831">
        <ele>125.59</ele>
        <time>2019-04-06T08:17:31Z</time>
      </trkpt>
      <trkpt lat="48.74429" lon="2.06817">
        <ele>125.59</ele>
        <time>2019-04-06T08:17:43Z</time>
      </trkpt>
      <trkpt lat="48.74429" lon="2.06797">
        <ele>126.55</ele>
        <time>2019-04-06T08:17:57Z</time>
      </trkpt>
      <trkpt lat="48.7443" lon="2.06795">
        <ele>126.07</ele>
        <time>2019-04-06T08:17:58Z</time>
      </trkpt>
      <trkpt lat="48.74442" lon="2.06795">
        <ele>127.51</ele>
        <time>2019-04-06T08:18:13Z</time>
      </trkpt>
      <trkpt lat="48.74453" lon="2.06784">
        <ele>126.55</ele>
        <time>2019-04-06T08:18:22Z</time>
      </trkpt>
      <trkpt lat="48.74454" lon="2.06774">
        <ele>125.59</ele>
        <time>2019-04-06T08:18:35Z</time>
      </trkpt>
      <trkpt lat="48.74453" lon="2.06769">
        <ele>126.07</ele>
        <time>2019-04-06T08:18:38Z</time>
      </trkpt>
      <trkpt lat="48.74451" lon="2.06766">
        <ele>125.59</ele>
        <time>2019-04-06T08:18:41Z</time>
      </trkpt>
      <trkpt lat="48.74446" lon="2.06761">
        <ele>125.59</ele>
        <time>2019-04-06T08:18:54Z</time>
      </trkpt>
      <trkpt lat="48.74447" lon="2.06762">
        <ele>125.11</ele>
        <time>2019-04-06T08:19:14Z</time>
      </trkpt>
      <trkpt lat="48.74447" lon="2.06766">
        <ele>125.11</ele>
        <time>2019-04-06T08:19:33Z</time>
      </trkpt>
      <trkpt lat="48.74452" lon="2.06761">
        <ele>126.07</ele>
        <time>2019-04-06T08:19:44Z</time>
      </trkpt>
      <trkpt lat="48.74457" lon="2.0676">
        <ele>126.07</ele>
        <time>2019-04-06T08:19:58Z</time>
      </trkpt>
      <trkpt lat="48.74456" lon="2.0676">
        <ele>126.55</ele>
        <time>2019-04-06T08:20:16Z</time>
      </trkpt>
      <trkpt lat="48.74455" lon="2.0676">
        <ele>125.59</ele>
        <time>2019-04-06T08:20:30Z</time>
      </trkpt>
      <trkpt lat="48.74451" lon="2.06763">
        <ele>126.07</ele>
        <time>2019-04-06T08:20:49Z</time>
      </trkpt>
      <trkpt lat="48.74451" lon="2.06762">
        <ele>126.07</ele>
        <time>2019-04-06T08:20:53Z</time>
      </trkpt>
      <trkpt lat="48.7445" lon="2.06764">
        <ele>125.59</ele>
        <time>2019-04-06T08:21:10Z</time>
      </trkpt>
      <trkpt lat="48.74452" lon="2.06756">
        <ele>126.07</ele>
        <time>2019-04-06T08:21:24Z</time>
      </trkpt>
      <trkpt lat="48.74451" lon="2.06754">
        <ele>126.07</ele>
        <time>2019-04-06T08:21:25Z</time>
      </trkpt>
      <trkpt lat="48.74446" lon="2.06749">
        <ele>126.07</ele>
        <time>2019-04-06T08:21:29Z</time>
      </trkpt>
      <trkpt lat="48.74446" lon="2.06747">
        <ele>126.07</ele>
        <time>2019-04-06T08:21:30Z</time>
      </trkpt>
      <trkpt lat="48.74446" lon="2.06738">
        <ele>125.59</ele>
        <time>2019-04-06T08:21:35Z</time>
      </trkpt>
      <trkpt lat="48.7445" lon="2.06722">
        <ele>126.07</ele>
        <time>2019-04-06T08:21:46Z</time>
      </trkpt>
      <trkpt lat="48.7445" lon="2.0672">
        <ele>126.55</ele>
        <time>2019-04-06T08:21:47Z</time>
      </trkpt>
      <trkpt lat="48.74451" lon="2.06718">
        <ele>125.59</ele>
        <time>2019-04-06T08:21:48Z</time>
      </trkpt>
      <trkpt lat="48.74457" lon="2.06703">
        <ele>126.07</ele>
        <time>2019-04-06T08:22:00Z</time>
      </trkpt>
      <trkpt lat="48.74467" lon="2.06689">
        <ele>126.07</ele>
        <time>2019-04-06T08:22:13Z</time>
      </trkpt>
      <trkpt lat="48.74475" lon="2.06674">
        <ele>126.55</ele>
        <time>2019-04-06T08:22:25Z</time>
      </trkpt>
      <trkpt lat="48.74485" lon="2.06654">
        <ele>127.03</ele>
        <time>2019-04-06T08:22:40Z</time>
      </trkpt>
      <trkpt lat="48.74502" lon="2.06635">
        <ele>126.55</ele>
        <time>2019-04-06T08:22:57Z</time>
      </trkpt>
      <trkpt lat="48.74515" lon="2.06615">
        <ele>126.07</ele>
        <time>2019-04-06T08:23:09Z</time>
      </trkpt>
      <trkpt lat="48.7453" lon="2.06595">
        <ele>126.07</ele>
        <time>2019-04-06T08:23:24Z</time>
      </trkpt>
      <trkpt lat="48.74539" lon="2.06578">
        <ele>126.55</ele>
        <time>2019-04-06T08:23:35Z</time>
      </trkpt>
      <trkpt lat="48.74547" lon="2.06564">
        <ele>127.03</ele>
        <time>2019-04-06T08:23:48Z</time>
      </trkpt>
      <trkpt lat="48.74548" lon="2.06562">
        <ele>127.03</ele>
        <time>2019-04-06T08:23:49Z</time>
      </trkpt>
      <trkpt lat="48.7456" lon="2.06553">
        <ele>127.03</ele>
        <time>2019-04-06T08:24:00Z</time>
      </trkpt>
      <trkpt lat="48.74561" lon="2.06548">
        <ele>126.55</ele>
        <time>2019-04-06T08:24:02Z</time>
      </trkpt>
      <trkpt lat="48.74562" lon="2.06546">
        <ele>127.03</ele>
        <time>2019-04-06T08:24:03Z</time>
      </trkpt>
      <trkpt lat="48.74569" lon="2.06539">
        <ele>126.55</ele>
        <time>2019-04-06T08:24:12Z</time>
      </trkpt>
      <trkpt lat="48.74573" lon="2.06534">
        <ele>127.03</ele>
        <time>2019-04-06T08:24:16Z</time>
      </trkpt>
      <trkpt lat="48.74574" lon="2.06533">
        <ele>126.55</ele>
        <time>2019-04-06T08:24:17Z</time>
      </trkpt>
      <trkpt lat="48.74579" lon="2.06528">
        <ele>126.55</ele>
        <time>2019-04-06T08:24:23Z</time>
      </trkpt>
      <trkpt lat="48.7458" lon="2.06523">
        <ele>126.55</ele>
        <time>2019-04-06T08:24:25Z</time>
      </trkpt>
      <trkpt lat="48.74579" lon="2.06521">
        <ele>126.55</ele>
        <time>2019-04-06T08:24:26Z</time>
      </trkpt>
      <trkpt lat="48.74576" lon="2.06508">
        <ele>127.51</ele>
        <time>2019-04-06T08:24:38Z</time>
      </trkpt>
      <trkpt lat="48.74566" lon="2.06486">
        <ele>128.47</ele>
        <time>2019-04-06T08:24:53Z</time>
      </trkpt>
      <trkpt lat="48.74564" lon="2.06483">
        <ele>128.95</ele>
        <time>2019-04-06T08:24:56Z</time>
      </trkpt>
      <trkpt lat="48.74547" lon="2.06472">
        <ele>130.4</ele>
        <time>2019-04-06T08:25:11Z</time>
      </trkpt>
      <trkpt lat="48.74531" lon="2.06457">
        <ele>131.36</ele>
        <time>2019-04-06T08:25:28Z</time>
      </trkpt>
      <trkpt lat="48.74522" lon="2.06441">
        <ele>132.8</ele>
        <time>2019-04-06T08:25:44Z</time>
      </trkpt>
      <trkpt lat="48.74506" lon="2.06423">
        <ele>135.68</ele>
        <time>2019-04-06T08:26:01Z</time>
      </trkpt>
      <trkpt lat="48.74485" lon="2.06404">
        <ele>138.09</ele>
        <time>2019-04-06T08:26:24Z</time>
      </trkpt>
      <trkpt lat="48.74469" lon="2.0639">
        <ele>140.49</ele>
        <time>2019-04-06T08:26:40Z</time>
      </trkpt>
      <trkpt lat="48.74463" lon="2.0638">
        <ele>142.41</ele>
        <time>2019-04-06T08:26:54Z</time>
      </trkpt>
      <trkpt lat="48.74463" lon="2.06378">
        <ele>142.41</ele>
        <time>2019-04-06T08:26:55Z</time>
      </trkpt>
      <trkpt lat="48.74457" lon="2.06365">
        <ele>143.37</ele>
        <time>2019-04-06T08:27:09Z</time>
      </trkpt>
      <trkpt lat="48.74447" lon="2.06356">
        <ele>145.3</ele>
        <time>2019-04-06T08:27:26Z</time>
      </trkpt>
      <trkpt lat="48.7444" lon="2.06347">
        <ele>144.82</ele>
        <time>2019-04-06T08:27:49Z</time>
      </trkpt>
      <trkpt lat="48.74436" lon="2.0634">
        <ele>146.26</ele>
        <time>2019-04-06T08:28:05Z</time>
      </trkpt>
      <trkpt lat="48.74433" lon="2.06338">
        <ele>147.22</ele>
        <time>2019-04-06T08:28:22Z</time>
      </trkpt>
      <trkpt lat="48.7443" lon="2.06333">
        <ele>147.22</ele>
        <time>2019-04-06T08:28:28Z</time>
      </trkpt>
      <trkpt lat="48.74426" lon="2.0632">
        <ele>150.1</ele>
        <time>2019-04-06T08:28:41Z</time>
      </trkpt>
      <trkpt lat="48.74428" lon="2.06314">
        <ele>150.58</ele>
        <time>2019-04-06T08:28:46Z</time>
      </trkpt>
      <trkpt lat="48.74425" lon="2.06305">
        <ele>152.03</ele>
        <time>2019-04-06T08:28:55Z</time>
      </trkpt>
      <trkpt lat="48.74417" lon="2.06294">
        <ele>154.43</ele>
        <time>2019-04-06T08:29:07Z</time>
      </trkpt>
      <trkpt lat="48.74415" lon="2.06284">
        <ele>154.91</ele>
        <time>2019-04-06T08:29:14Z</time>
      </trkpt>
      <trkpt lat="48.74412" lon="2.06272">
        <ele>158.27</ele>
        <time>2019-04-06T08:29:26Z</time>
      </trkpt>
      <trkpt lat="48.74402" lon="2.06252">
        <ele>161.64</ele>
        <time>2019-04-06T08:29:45Z</time>
      </trkpt>
      <trkpt lat="48.74395" lon="2.06249">
        <ele>162.12</ele>
        <time>2019-04-06T08:29:56Z</time>
      </trkpt>
      <trkpt lat="48.74385" lon="2.06236">
        <ele>163.08</ele>
        <time>2019-04-06T08:30:13Z</time>
      </trkpt>
      <trkpt lat="48.7438" lon="2.06229">
        <ele>163.56</ele>
        <time>2019-04-06T08:30:31Z</time>
      </trkpt>
      <trkpt lat="48.74376" lon="2.06222">
        <ele>164.04</ele>
        <time>2019-04-06T08:30:41Z</time>
      </trkpt>
      <trkpt lat="48.74375" lon="2.06221">
        <ele>164.04</ele>
        <time>2019-04-06T08:30:42Z</time>
      </trkpt>
      <trkpt lat="48.74374" lon="2.0622">
        <ele>164.04</ele>
        <time>2019-04-06T08:30:43Z</time>
      </trkpt>
      <trkpt lat="48.74365" lon="2.06212">
        <ele>164.04</ele>
        <time>2019-04-06T08:30:52Z</time>
      </trkpt>
      <trkpt lat="48.74365" lon="2.06209">
        <ele>164.04</ele>
        <time>2019-04-06T08:30:59Z</time>
      </trkpt>
      <trkpt lat="48.74366" lon="2.062">
        <ele>164.52</ele>
        <time>2019-04-06T08:31:08Z</time>
      </trkpt>
      <trkpt lat="48.74368" lon="2.06199">
        <ele>164.52</ele>
        <time>2019-04-06T08:31:09Z</time>
      </trkpt>
      <trkpt lat="48.74369" lon="2.06198">
        <ele>165</ele>
        <time>2019-04-06T08:31:10Z</time>
      </trkpt>
      <trkpt lat="48.7437" lon="2.06195">
        <ele>165</ele>
        <time>2019-04-06T08:31:12Z</time>
      </trkpt>
      <trkpt lat="48.74377" lon="2.06184">
        <ele>165</ele>
        <time>2019-04-06T08:31:24Z</time>
      </trkpt>
      <trkpt lat="48.74378" lon="2.06179">
        <ele>165</ele>
        <time>2019-04-06T08:31:28Z</time>
      </trkpt>
      <trkpt lat="48.74381" lon="2.06166">
        <ele>165</ele>
        <time>2019-04-06T08:31:35Z</time>
      </trkpt>
      <trkpt lat="48.74381" lon="2.06164">
        <ele>165</ele>
        <time>2019-04-06T08:31:36Z</time>
      </trkpt>
      <trkpt lat="48.74382" lon="2.06146">
        <ele>165.96</ele>
        <time>2019-04-06T08:31:46Z</time>
      </trkpt>
      <trkpt lat="48.74381" lon="2.06136">
        <ele>166.45</ele>
        <time>2019-04-06T08:31:52Z</time>
      </trkpt>
      <trkpt lat="48.74382" lon="2.06135">
        <ele>165.48</ele>
        <time>2019-04-06T08:31:53Z</time>
      </trkpt>
      <trkpt lat="48.74382" lon="2.0613">
        <ele>165.96</ele>
        <time>2019-04-06T08:31:57Z</time>
      </trkpt>
      <trkpt lat="48.74382" lon="2.06128">
        <ele>165.96</ele>
        <time>2019-04-06T08:31:58Z</time>
      </trkpt>
      <trkpt lat="48.74385" lon="2.06125">
        <ele>166.45</ele>
        <time>2019-04-06T08:32:07Z</time>
      </trkpt>
      <trkpt lat="48.74386" lon="2.06122">
        <ele>166.93</ele>
        <time>2019-04-06T08:32:09Z</time>
      </trkpt>
      <trkpt lat="48.74385" lon="2.06118">
        <ele>166.45</ele>
        <time>2019-04-06T08:32:12Z</time>
      </trkpt>
      <trkpt lat="48.74385" lon="2.06114">
        <ele>166.45</ele>
        <time>2019-04-06T08:32:14Z</time>
      </trkpt>
      <trkpt lat="48.74383" lon="2.06093">
        <ele>166.45</ele>
        <time>2019-04-06T08:32:25Z</time>
      </trkpt>
      <trkpt lat="48.74382" lon="2.06091">
        <ele>165.96</ele>
        <time>2019-04-06T08:32:26Z</time>
      </trkpt>
      <trkpt lat="48.74382" lon="2.06089">
        <ele>166.45</ele>
        <time>2019-04-06T08:32:27Z</time>
      </trkpt>
      <trkpt lat="48.74377" lon="2.06076">
        <ele>166.45</ele>
        <time>2019-04-06T08:32:38Z</time>
      </trkpt>
      <trkpt lat="48.74359" lon="2.0606">
        <ele>166.93</ele>
        <time>2019-04-06T08:32:53Z</time>
      </trkpt>
      <trkpt lat="48.74358" lon="2.06055">
        <ele>167.41</ele>
        <time>2019-04-06T08:32:57Z</time>
      </trkpt>
      <trkpt lat="48.74351" lon="2.06032">
        <ele>167.41</ele>
        <time>2019-04-06T08:33:14Z</time>
      </trkpt>
      <trkpt lat="48.74336" lon="2.06013">
        <ele>167.41</ele>
        <time>2019-04-06T08:33:32Z</time>
      </trkpt>
      <trkpt lat="48.74322" lon="2.05992">
        <ele>167.89</ele>
        <time>2019-04-06T08:33:48Z</time>
      </trkpt>
      <trkpt lat="48.74319" lon="2.05974">
        <ele>167.89</ele>
        <time>2019-04-06T08:34:04Z</time>
      </trkpt>
      <trkpt lat="48.74295" lon="2.05959">
        <ele>167.89</ele>
        <time>2019-04-06T08:34:16Z</time>
      </trkpt>
      <trkpt lat="48.74286" lon="2.05939">
        <ele>167.89</ele>
        <time>2019-04-06T08:34:33Z</time>
      </trkpt>
      <trkpt lat="48.74273" lon="2.05926">
        <ele>168.85</ele>
        <time>2019-04-06T08:34:44Z</time>
      </trkpt>
      <trkpt lat="48.74256" lon="2.05912">
        <ele>169.33</ele>
        <time>2019-04-06T08:34:58Z</time>
      </trkpt>
      <trkpt lat="48.74254" lon="2.05894">
        <ele>168.85</ele>
        <time>2019-04-06T08:35:09Z</time>
      </trkpt>
      <trkpt lat="48.74246" lon="2.05893">
        <ele>168.85</ele>
        <time>2019-04-06T08:35:13Z</time>
      </trkpt>
      <trkpt lat="48.74236" lon="2.0589">
        <ele>170.29</ele>
        <time>2019-04-06T08:35:26Z</time>
      </trkpt>
      <trkpt lat="48.74237" lon="2.05891">
        <ele>170.29</ele>
        <time>2019-04-06T08:35:27Z</time>
      </trkpt>
      <trkpt lat="48.74238" lon="2.05896">
        <ele>168.85</ele>
        <time>2019-04-06T08:35:31Z</time>
      </trkpt>
      <trkpt lat="48.74241" lon="2.05898">
        <ele>168.85</ele>
        <time>2019-04-06T08:35:33Z</time>
      </trkpt>
      <trkpt lat="48.74246" lon="2.05906">
        <ele>168.85</ele>
        <time>2019-04-06T08:35:39Z</time>
      </trkpt>
      <trkpt lat="48.7424" lon="2.05918">
        <ele>168.37</ele>
        <time>2019-04-06T08:35:51Z</time>
      </trkpt>
      <trkpt lat="48.74239" lon="2.05918">
        <ele>168.37</ele>
        <time>2019-04-06T08:35:52Z</time>
      </trkpt>
      <trkpt lat="48.74231" lon="2.05916">
        <ele>168.85</ele>
        <time>2019-04-06T08:35:57Z</time>
      </trkpt>
      <trkpt lat="48.74228" lon="2.05918">
        <ele>169.33</ele>
        <time>2019-04-06T08:36:00Z</time>
      </trkpt>
      <trkpt lat="48.74222" lon="2.05919">
        <ele>169.81</ele>
        <time>2019-04-06T08:36:04Z</time>
      </trkpt>
      <trkpt lat="48.74202" lon="2.05925">
        <ele>169.33</ele>
        <time>2019-04-06T08:36:20Z</time>
      </trkpt>
      <trkpt lat="48.74197" lon="2.05928">
        <ele>165.48</ele>
        <time>2019-04-06T08:36:37Z</time>
      </trkpt>
      <trkpt lat="48.74198" lon="2.05928">
        <ele>168.85</ele>
        <time>2019-04-06T08:36:38Z</time>
      </trkpt>
      <trkpt lat="48.74198" lon="2.05928">
        <ele>172.69</ele>
        <time>2019-04-06T08:36:39Z</time>
      </trkpt>
      <trkpt lat="48.74198" lon="2.05927">
        <ele>170.29</ele>
        <time>2019-04-06T08:36:40Z</time>
      </trkpt>
      <trkpt lat="48.742" lon="2.05926">
        <ele>170.29</ele>
        <time>2019-04-06T08:36:53Z</time>
      </trkpt>
      <trkpt lat="48.74207" lon="2.05927">
        <ele>169.33</ele>
        <time>2019-04-06T08:37:04Z</time>
      </trkpt>
      <trkpt lat="48.74211" lon="2.05931">
        <ele>168.85</ele>
        <time>2019-04-06T08:37:08Z</time>
      </trkpt>
      <trkpt lat="48.74229" lon="2.05926">
        <ele>167.89</ele>
        <time>2019-04-06T08:37:22Z</time>
      </trkpt>
      <trkpt lat="48.74235" lon="2.05919">
        <ele>168.85</ele>
        <time>2019-04-06T08:37:36Z</time>
      </trkpt>
      <trkpt lat="48.74239" lon="2.0592">
        <ele>168.37</ele>
        <time>2019-04-06T08:37:50Z</time>
      </trkpt>
      <trkpt lat="48.74237" lon="2.0592">
        <ele>168.85</ele>
        <time>2019-04-06T08:38:09Z</time>
      </trkpt>
      <trkpt lat="48.74235" lon="2.05922">
        <ele>168.37</ele>
        <time>2019-04-06T08:38:24Z</time>
      </trkpt>
      <trkpt lat="48.74241" lon="2.05923">
        <ele>168.85</ele>
        <time>2019-04-06T08:38:38Z</time>
      </trkpt>
      <trkpt lat="48.74243" lon="2.05922">
        <ele>167.89</ele>
        <time>2019-04-06T08:38:40Z</time>
      </trkpt>
      <trkpt lat="48.74248" lon="2.0591">
        <ele>167.89</ele>
        <time>2019-04-06T08:38:48Z</time>
      </trkpt>
      <trkpt lat="48.74247" lon="2.05904">
        <ele>167.89</ele>
        <time>2019-04-06T08:38:51Z</time>
      </trkpt>
      <trkpt lat="48.74241" lon="2.05899">
        <ele>168.85</ele>
        <time>2019-04-06T08:38:55Z</time>
      </trkpt>
      <trkpt lat="48.74234" lon="2.05887">
        <ele>169.33</ele>
        <time>2019-04-06T08:39:05Z</time>
      </trkpt>
      <trkpt lat="48.74229" lon="2.05878">
        <ele>169.33</ele>
        <time>2019-04-06T08:39:13Z</time>
      </trkpt>
      <trkpt lat="48.74224" lon="2.05864">
        <ele>170.29</ele>
        <time>2019-04-06T08:39:25Z</time>
      </trkpt>
      <trkpt lat="48.74212" lon="2.05846">
        <ele>170.77</ele>
        <time>2019-04-06T08:39:37Z</time>
      </trkpt>
      <trkpt lat="48.74206" lon="2.05841">
        <ele>170.77</ele>
        <time>2019-04-06T08:39:41Z</time>
      </trkpt>
      <trkpt lat="48.74198" lon="2.05835">
        <ele>171.73</ele>
        <time>2019-04-06T08:39:45Z</time>
      </trkpt>
      <trkpt lat="48.74181" lon="2.05812">
        <ele>172.21</ele>
        <time>2019-04-06T08:40:05Z</time>
      </trkpt>
      <trkpt lat="48.7417" lon="2.05796">
        <ele>171.73</ele>
        <time>2019-04-06T08:40:21Z</time>
      </trkpt>
      <trkpt lat="48.74168" lon="2.05795">
        <ele>170.77</ele>
        <time>2019-04-06T08:40:28Z</time>
      </trkpt>
      <trkpt lat="48.74169" lon="2.05795">
        <ele>171.25</ele>
        <time>2019-04-06T08:40:42Z</time>
      </trkpt>
      <trkpt lat="48.74168" lon="2.05793">
        <ele>172.21</ele>
        <time>2019-04-06T08:40:44Z</time>
      </trkpt>
      <trkpt lat="48.74167" lon="2.05792">
        <ele>172.21</ele>
        <time>2019-04-06T08:40:46Z</time>
      </trkpt>
      <trkpt lat="48.74164" lon="2.0579">
        <ele>172.21</ele>
        <time>2019-04-06T08:40:48Z</time>
      </trkpt>
      <trkpt lat="48.74146" lon="2.0578">
        <ele>172.69</ele>
        <time>2019-04-06T08:41:03Z</time>
      </trkpt>
      <trkpt lat="48.74141" lon="2.05781">
        <ele>172.21</ele>
        <time>2019-04-06T08:41:09Z</time>
      </trkpt>
      <trkpt lat="48.74134" lon="2.05773">
        <ele>172.21</ele>
        <time>2019-04-06T08:41:16Z</time>
      </trkpt>
      <trkpt lat="48.74133" lon="2.05756">
        <ele>172.21</ele>
        <time>2019-04-06T08:41:32Z</time>
      </trkpt>
      <trkpt lat="48.7413" lon="2.05753">
        <ele>172.21</ele>
        <time>2019-04-06T08:41:36Z</time>
      </trkpt>
      <trkpt lat="48.74116" lon="2.05739">
        <ele>172.21</ele>
        <time>2019-04-06T08:41:49Z</time>
      </trkpt>
      <trkpt lat="48.74103" lon="2.05725">
        <ele>172.21</ele>
        <time>2019-04-06T08:42:03Z</time>
      </trkpt>
      <trkpt lat="48.7409" lon="2.05713">
        <ele>172.69</ele>
        <time>2019-04-06T08:42:16Z</time>
      </trkpt>
      <trkpt lat="48.74078" lon="2.05702">
        <ele>173.17</ele>
        <time>2019-04-06T08:42:27Z</time>
      </trkpt>
      <trkpt lat="48.74053" lon="2.0568">
        <ele>174.14</ele>
        <time>2019-04-06T08:42:49Z</time>
      </trkpt>
      <trkpt lat="48.74034" lon="2.05665">
        <ele>174.14</ele>
        <time>2019-04-06T08:43:10Z</time>
      </trkpt>
      <trkpt lat="48.74016" lon="2.05657">
        <ele>173.66</ele>
        <time>2019-04-06T08:43:29Z</time>
      </trkpt>
      <trkpt lat="48.74004" lon="2.05651">
        <ele>173.66</ele>
        <time>2019-04-06T08:43:41Z</time>
      </trkpt>
      <trkpt lat="48.74002" lon="2.05648">
        <ele>172.69</ele>
        <time>2019-04-06T08:43:44Z</time>
      </trkpt>
      <trkpt lat="48.73985" lon="2.05638">
        <ele>173.66</ele>
        <time>2019-04-06T08:43:58Z</time>
      </trkpt>
      <trkpt lat="48.73973" lon="2.05628">
        <ele>174.14</ele>
        <time>2019-04-06T08:44:09Z</time>
      </trkpt>
      <trkpt lat="48.73972" lon="2.05628">
        <ele>173.17</ele>
        <time>2019-04-06T08:44:10Z</time>
      </trkpt>
      <trkpt lat="48.73971" lon="2.05627">
        <ele>173.66</ele>
        <time>2019-04-06T08:44:11Z</time>
      </trkpt>
      <trkpt lat="48.7397" lon="2.05627">
        <ele>174.14</ele>
        <time>2019-04-06T08:44:12Z</time>
      </trkpt>
      <trkpt lat="48.73968" lon="2.05626">
        <ele>174.14</ele>
        <time>2019-04-06T08:44:13Z</time>
      </trkpt>
      <trkpt lat="48.73967" lon="2.05626">
        <ele>173.17</ele>
        <time>2019-04-06T08:44:14Z</time>
      </trkpt>
      <trkpt lat="48.73956" lon="2.05618">
        <ele>173.66</ele>
        <time>2019-04-06T08:44:25Z</time>
      </trkpt>
      <trkpt lat="48.73942" lon="2.05607">
        <ele>174.14</ele>
        <time>2019-04-06T08:44:38Z</time>
      </trkpt>
      <trkpt lat="48.73941" lon="2.05606">
        <ele>174.14</ele>
        <time>2019-04-06T08:44:39Z</time>
      </trkpt>
      <trkpt lat="48.7394" lon="2.05606">
        <ele>174.62</ele>
        <time>2019-04-06T08:44:40Z</time>
      </trkpt>
      <trkpt lat="48.73926" lon="2.05593">
        <ele>175.1</ele>
        <time>2019-04-06T08:44:54Z</time>
      </trkpt>
      <trkpt lat="48.73924" lon="2.05589">
        <ele>174.14</ele>
        <time>2019-04-06T08:44:58Z</time>
      </trkpt>
      <trkpt lat="48.73923" lon="2.05587">
        <ele>174.14</ele>
        <time>2019-04-06T08:44:59Z</time>
      </trkpt>
      <trkpt lat="48.73921" lon="2.05586">
        <ele>174.62</ele>
        <time>2019-04-06T08:45:00Z</time>
      </trkpt>
      <trkpt lat="48.73908" lon="2.05568">
        <ele>174.62</ele>
        <time>2019-04-06T08:45:12Z</time>
      </trkpt>
      <trkpt lat="48.73899" lon="2.05562">
        <ele>174.14</ele>
        <time>2019-04-06T08:45:20Z</time>
      </trkpt>
      <trkpt lat="48.73899" lon="2.05561">
        <ele>175.1</ele>
        <time>2019-04-06T08:45:22Z</time>
      </trkpt>
      <trkpt lat="48.73899" lon="2.05558">
        <ele>175.1</ele>
        <time>2019-04-06T08:45:23Z</time>
      </trkpt>
      <trkpt lat="48.73897" lon="2.05556">
        <ele>175.1</ele>
        <time>2019-04-06T08:45:25Z</time>
      </trkpt>
      <trkpt lat="48.73896" lon="2.05555">
        <ele>174.62</ele>
        <time>2019-04-06T08:45:26Z</time>
      </trkpt>
      <trkpt lat="48.73895" lon="2.05554">
        <ele>174.62</ele>
        <time>2019-04-06T08:45:27Z</time>
      </trkpt>
      <trkpt lat="48.73894" lon="2.05553">
        <ele>174.62</ele>
        <time>2019-04-06T08:45:28Z</time>
      </trkpt>
      <trkpt lat="48.73893" lon="2.05552">
        <ele>175.1</ele>
        <time>2019-04-06T08:45:29Z</time>
      </trkpt>
      <trkpt lat="48.7388" lon="2.05536">
        <ele>174.62</ele>
        <time>2019-04-06T08:45:42Z</time>
      </trkpt>
      <trkpt lat="48.73877" lon="2.0553">
        <ele>175.58</ele>
        <time>2019-04-06T08:45:47Z</time>
      </trkpt>
      <trkpt lat="48.73864" lon="2.05511">
        <ele>176.54</ele>
        <time>2019-04-06T08:46:00Z</time>
      </trkpt>
      <trkpt lat="48.73852" lon="2.05495">
        <ele>176.54</ele>
        <time>2019-04-06T08:46:14Z</time>
      </trkpt>
      <trkpt lat="48.73841" lon="2.05484">
        <ele>176.06</ele>
        <time>2019-04-06T08:46:25Z</time>
      </trkpt>
      <trkpt lat="48.7383" lon="2.05468">
        <ele>176.06</ele>
        <time>2019-04-06T08:46:38Z</time>
      </trkpt>
      <trkpt lat="48.73819" lon="2.05453">
        <ele>176.54</ele>
        <time>2019-04-06T08:46:50Z</time>
      </trkpt>
      <trkpt lat="48.73818" lon="2.05452">
        <ele>176.54</ele>
        <time>2019-04-06T08:46:51Z</time>
      </trkpt>
      <trkpt lat="48.73817" lon="2.0545">
        <ele>177.02</ele>
        <time>2019-04-06T08:46:52Z</time>
      </trkpt>
      <trkpt lat="48.73816" lon="2.05449">
        <ele>176.54</ele>
        <time>2019-04-06T08:46:53Z</time>
      </trkpt>
      <trkpt lat="48.73815" lon="2.05447">
        <ele>176.54</ele>
        <time>2019-04-06T08:46:54Z</time>
      </trkpt>
      <trkpt lat="48.738" lon="2.05432">
        <ele>176.06</ele>
        <time>2019-04-06T08:47:07Z</time>
      </trkpt>
      <trkpt lat="48.73789" lon="2.05421">
        <ele>176.06</ele>
        <time>2019-04-06T08:47:18Z</time>
      </trkpt>
      <trkpt lat="48.73774" lon="2.05403">
        <ele>176.54</ele>
        <time>2019-04-06T08:47:30Z</time>
      </trkpt>
      <trkpt lat="48.73772" lon="2.05401">
        <ele>177.02</ele>
        <time>2019-04-06T08:47:36Z</time>
      </trkpt>
      <trkpt lat="48.7377" lon="2.05399">
        <ele>176.54</ele>
        <time>2019-04-06T08:47:38Z</time>
      </trkpt>
      <trkpt lat="48.73769" lon="2.05398">
        <ele>176.54</ele>
        <time>2019-04-06T08:47:39Z</time>
      </trkpt>
      <trkpt lat="48.73768" lon="2.05397">
        <ele>176.06</ele>
        <time>2019-04-06T08:47:40Z</time>
      </trkpt>
      <trkpt lat="48.73751" lon="2.05385">
        <ele>176.06</ele>
        <time>2019-04-06T08:47:54Z</time>
      </trkpt>
      <trkpt lat="48.73733" lon="2.05364">
        <ele>176.06</ele>
        <time>2019-04-06T08:48:12Z</time>
      </trkpt>
      <trkpt lat="48.73715" lon="2.05344">
        <ele>176.06</ele>
        <time>2019-04-06T08:48:30Z</time>
      </trkpt>
      <trkpt lat="48.73695" lon="2.05322">
        <ele>176.54</ele>
        <time>2019-04-06T08:48:50Z</time>
      </trkpt>
      <trkpt lat="48.73685" lon="2.05308">
        <ele>177.02</ele>
        <time>2019-04-06T08:49:01Z</time>
      </trkpt>
      <trkpt lat="48.73684" lon="2.05307">
        <ele>176.54</ele>
        <time>2019-04-06T08:49:02Z</time>
      </trkpt>
      <trkpt lat="48.73682" lon="2.05306">
        <ele>176.54</ele>
        <time>2019-04-06T08:49:03Z</time>
      </trkpt>
      <trkpt lat="48.73681" lon="2.05305">
        <ele>176.06</ele>
        <time>2019-04-06T08:49:04Z</time>
      </trkpt>
      <trkpt lat="48.7368" lon="2.05303">
        <ele>176.54</ele>
        <time>2019-04-06T08:49:05Z</time>
      </trkpt>
      <trkpt lat="48.73663" lon="2.05284">
        <ele>177.02</ele>
        <time>2019-04-06T08:49:22Z</time>
      </trkpt>
      <trkpt lat="48.73648" lon="2.05268">
        <ele>177.5</ele>
        <time>2019-04-06T08:49:37Z</time>
      </trkpt>
      <trkpt lat="48.73633" lon="2.05252">
        <ele>177.5</ele>
        <time>2019-04-06T08:49:52Z</time>
      </trkpt>
      <trkpt lat="48.73615" lon="2.05226">
        <ele>176.54</ele>
        <time>2019-04-06T08:50:11Z</time>
      </trkpt>
      <trkpt lat="48.73599" lon="2.05206">
        <ele>176.54</ele>
        <time>2019-04-06T08:50:29Z</time>
      </trkpt>
      <trkpt lat="48.7358" lon="2.05179">
        <ele>177.5</ele>
        <time>2019-04-06T08:50:51Z</time>
      </trkpt>
      <trkpt lat="48.73563" lon="2.05157">
        <ele>177.5</ele>
        <time>2019-04-06T08:51:10Z</time>
      </trkpt>
      <trkpt lat="48.73552" lon="2.05143">
        <ele>174.14</ele>
        <time>2019-04-06T08:51:23Z</time>
      </trkpt>
      <trkpt lat="48.73551" lon="2.05141">
        <ele>177.5</ele>
        <time>2019-04-06T08:51:25Z</time>
      </trkpt>
      <trkpt lat="48.7355" lon="2.05141">
        <ele>177.5</ele>
        <time>2019-04-06T08:51:26Z</time>
      </trkpt>
      <trkpt lat="48.73549" lon="2.0514">
        <ele>177.98</ele>
        <time>2019-04-06T08:51:27Z</time>
      </trkpt>
      <trkpt lat="48.73547" lon="2.05137">
        <ele>177.5</ele>
        <time>2019-04-06T08:51:29Z</time>
      </trkpt>
      <trkpt lat="48.73546" lon="2.05135">
        <ele>177.02</ele>
        <time>2019-04-06T08:51:30Z</time>
      </trkpt>
      <trkpt lat="48.73545" lon="2.05134">
        <ele>177.5</ele>
        <time>2019-04-06T08:51:31Z</time>
      </trkpt>
      <trkpt lat="48.73544" lon="2.05133">
        <ele>177.02</ele>
        <time>2019-04-06T08:51:32Z</time>
      </trkpt>
      <trkpt lat="48.73543" lon="2.05131">
        <ele>176.54</ele>
        <time>2019-04-06T08:51:33Z</time>
      </trkpt>
      <trkpt lat="48.73542" lon="2.0513">
        <ele>177.02</ele>
        <time>2019-04-06T08:51:34Z</time>
      </trkpt>
      <trkpt lat="48.73531" lon="2.05113">
        <ele>177.5</ele>
        <time>2019-04-06T08:51:48Z</time>
      </trkpt>
      <trkpt lat="48.7352" lon="2.05098">
        <ele>177.02</ele>
        <time>2019-04-06T08:51:59Z</time>
      </trkpt>
      <trkpt lat="48.73511" lon="2.05085">
        <ele>176.54</ele>
        <time>2019-04-06T08:52:12Z</time>
      </trkpt>
      <trkpt lat="48.73503" lon="2.05077">
        <ele>176.54</ele>
        <time>2019-04-06T08:52:21Z</time>
      </trkpt>
      <trkpt lat="48.73492" lon="2.05064">
        <ele>177.02</ele>
        <time>2019-04-06T08:52:32Z</time>
      </trkpt>
      <trkpt lat="48.73491" lon="2.05063">
        <ele>176.54</ele>
        <time>2019-04-06T08:52:33Z</time>
      </trkpt>
      <trkpt lat="48.7349" lon="2.05061">
        <ele>176.54</ele>
        <time>2019-04-06T08:52:34Z</time>
      </trkpt>
      <trkpt lat="48.73489" lon="2.05059">
        <ele>176.54</ele>
        <time>2019-04-06T08:52:35Z</time>
      </trkpt>
      <trkpt lat="48.73488" lon="2.05057">
        <ele>176.54</ele>
        <time>2019-04-06T08:52:36Z</time>
      </trkpt>
      <trkpt lat="48.73478" lon="2.05045">
        <ele>175.58</ele>
        <time>2019-04-06T08:52:47Z</time>
      </trkpt>
      <trkpt lat="48.73477" lon="2.05044">
        <ele>176.06</ele>
        <time>2019-04-06T08:52:48Z</time>
      </trkpt>
      <trkpt lat="48.73464" lon="2.05031">
        <ele>176.54</ele>
        <time>2019-04-06T08:53:01Z</time>
      </trkpt>
      <trkpt lat="48.73448" lon="2.05019">
        <ele>176.06</ele>
        <time>2019-04-06T08:53:15Z</time>
      </trkpt>
      <trkpt lat="48.73433" lon="2.05001">
        <ele>176.06</ele>
        <time>2019-04-06T08:53:27Z</time>
      </trkpt>
      <trkpt lat="48.73432" lon="2.05">
        <ele>176.06</ele>
        <time>2019-04-06T08:53:28Z</time>
      </trkpt>
      <trkpt lat="48.7343" lon="2.04995">
        <ele>175.58</ele>
        <time>2019-04-06T08:53:31Z</time>
      </trkpt>
      <trkpt lat="48.73429" lon="2.04993">
        <ele>175.58</ele>
        <time>2019-04-06T08:53:32Z</time>
      </trkpt>
      <trkpt lat="48.73419" lon="2.04982">
        <ele>175.58</ele>
        <time>2019-04-06T08:53:44Z</time>
      </trkpt>
      <trkpt lat="48.73409" lon="2.04969">
        <ele>175.58</ele>
        <time>2019-04-06T08:53:56Z</time>
      </trkpt>
      <trkpt lat="48.73408" lon="2.04967">
        <ele>175.1</ele>
        <time>2019-04-06T08:53:58Z</time>
      </trkpt>
      <trkpt lat="48.73398" lon="2.0495">
        <ele>174.62</ele>
        <time>2019-04-06T08:54:11Z</time>
      </trkpt>
      <trkpt lat="48.73387" lon="2.04933">
        <ele>174.62</ele>
        <time>2019-04-06T08:54:25Z</time>
      </trkpt>
      <trkpt lat="48.73375" lon="2.04933">
        <ele>174.14</ele>
        <time>2019-04-06T08:54:39Z</time>
      </trkpt>
      <trkpt lat="48.73369" lon="2.04938">
        <ele>174.62</ele>
        <time>2019-04-06T08:54:48Z</time>
      </trkpt>
      <trkpt lat="48.73367" lon="2.04945">
        <ele>174.14</ele>
        <time>2019-04-06T08:54:52Z</time>
      </trkpt>
      <trkpt lat="48.73357" lon="2.04957">
        <ele>174.14</ele>
        <time>2019-04-06T08:54:58Z</time>
      </trkpt>
      <trkpt lat="48.73346" lon="2.04972">
        <ele>174.14</ele>
        <time>2019-04-06T08:55:10Z</time>
      </trkpt>
      <trkpt lat="48.73337" lon="2.04985">
        <ele>173.66</ele>
        <time>2019-04-06T08:55:23Z</time>
      </trkpt>
      <trkpt lat="48.73336" lon="2.04986">
        <ele>173.66</ele>
        <time>2019-04-06T08:55:24Z</time>
      </trkpt>
      <trkpt lat="48.73325" lon="2.05004">
        <ele>173.17</ele>
        <time>2019-04-06T08:55:40Z</time>
      </trkpt>
      <trkpt lat="48.73318" lon="2.05019">
        <ele>172.21</ele>
        <time>2019-04-06T08:55:50Z</time>
      </trkpt>
      <trkpt lat="48.73302" lon="2.0504">
        <ele>173.17</ele>
        <time>2019-04-06T08:56:07Z</time>
      </trkpt>
      <trkpt lat="48.73292" lon="2.05063">
        <ele>173.17</ele>
        <time>2019-04-06T08:56:22Z</time>
      </trkpt>
      <trkpt lat="48.7329" lon="2.05065">
        <ele>172.69</ele>
        <time>2019-04-06T08:56:23Z</time>
      </trkpt>
      <trkpt lat="48.7328" lon="2.05084">
        <ele>171.73</ele>
        <time>2019-04-06T08:56:36Z</time>
      </trkpt>
      <trkpt lat="48.73269" lon="2.05103">
        <ele>171.73</ele>
        <time>2019-04-06T08:56:51Z</time>
      </trkpt>
      <trkpt lat="48.73259" lon="2.05123">
        <ele>171.73</ele>
        <time>2019-04-06T08:57:06Z</time>
      </trkpt>
      <trkpt lat="48.73257" lon="2.05129">
        <ele>171.25</ele>
        <time>2019-04-06T08:57:11Z</time>
      </trkpt>
      <trkpt lat="48.7325" lon="2.05142">
        <ele>171.25</ele>
        <time>2019-04-06T08:57:18Z</time>
      </trkpt>
      <trkpt lat="48.73244" lon="2.05152">
        <ele>170.77</ele>
        <time>2019-04-06T08:57:25Z</time>
      </trkpt>
      <trkpt lat="48.73233" lon="2.0517">
        <ele>170.77</ele>
        <time>2019-04-06T08:57:38Z</time>
      </trkpt>
      <trkpt lat="48.73224" lon="2.05182">
        <ele>170.29</ele>
        <time>2019-04-06T08:57:45Z</time>
      </trkpt>
      <trkpt lat="48.73215" lon="2.05196">
        <ele>167.89</ele>
        <time>2019-04-06T08:57:55Z</time>
      </trkpt>
      <trkpt lat="48.73201" lon="2.05219">
        <ele>166.93</ele>
        <time>2019-04-06T08:58:07Z</time>
      </trkpt>
      <trkpt lat="48.73195" lon="2.0524">
        <ele>165.96</ele>
        <time>2019-04-06T08:58:22Z</time>
      </trkpt>
      <trkpt lat="48.73195" lon="2.05247">
        <ele>164.52</ele>
        <time>2019-04-06T08:58:24Z</time>
      </trkpt>
      <trkpt lat="48.73197" lon="2.05275">
        <ele>165</ele>
        <time>2019-04-06T08:58:36Z</time>
      </trkpt>
      <trkpt lat="48.73204" lon="2.05304">
        <ele>166.93</ele>
        <time>2019-04-06T08:58:53Z</time>
      </trkpt>
      <trkpt lat="48.73204" lon="2.05325">
        <ele>166.45</ele>
        <time>2019-04-06T08:59:07Z</time>
      </trkpt>
      <trkpt lat="48.73203" lon="2.05335">
        <ele>165.96</ele>
        <time>2019-04-06T08:59:13Z</time>
      </trkpt>
      <trkpt lat="48.73198" lon="2.05359">
        <ele>165.48</ele>
        <time>2019-04-06T08:59:26Z</time>
      </trkpt>
      <trkpt lat="48.73198" lon="2.0536">
        <ele>165.96</ele>
        <time>2019-04-06T08:59:27Z</time>
      </trkpt>
      <trkpt lat="48.73208" lon="2.0539">
        <ele>165.96</ele>
        <time>2019-04-06T08:59:41Z</time>
      </trkpt>
      <trkpt lat="48.73216" lon="2.0541">
        <ele>165.96</ele>
        <time>2019-04-06T08:59:55Z</time>
      </trkpt>
      <trkpt lat="48.7323" lon="2.05432">
        <ele>165.96</ele>
        <time>2019-04-06T09:00:10Z</time>
      </trkpt>
      <trkpt lat="48.73241" lon="2.05452">
        <ele>166.93</ele>
        <time>2019-04-06T09:00:27Z</time>
      </trkpt>
      <trkpt lat="48.73242" lon="2.05454">
        <ele>167.41</ele>
        <time>2019-04-06T09:00:28Z</time>
      </trkpt>
      <trkpt lat="48.73253" lon="2.05479">
        <ele>166.93</ele>
        <time>2019-04-06T09:00:46Z</time>
      </trkpt>
      <trkpt lat="48.73254" lon="2.05483">
        <ele>167.41</ele>
        <time>2019-04-06T09:00:49Z</time>
      </trkpt>
      <trkpt lat="48.73263" lon="2.05513">
        <ele>166.93</ele>
        <time>2019-04-06T09:01:07Z</time>
      </trkpt>
      <trkpt lat="48.73271" lon="2.05536">
        <ele>167.41</ele>
        <time>2019-04-06T09:01:19Z</time>
      </trkpt>
      <trkpt lat="48.73273" lon="2.0554">
        <ele>166.45</ele>
        <time>2019-04-06T09:01:21Z</time>
      </trkpt>
      <trkpt lat="48.73282" lon="2.05562">
        <ele>166.93</ele>
        <time>2019-04-06T09:01:36Z</time>
      </trkpt>
      <trkpt lat="48.73287" lon="2.0558">
        <ele>168.85</ele>
        <time>2019-04-06T09:01:50Z</time>
      </trkpt>
      <trkpt lat="48.7329" lon="2.056">
        <ele>167.41</ele>
        <time>2019-04-06T09:02:05Z</time>
      </trkpt>
      <trkpt lat="48.73289" lon="2.05604">
        <ele>168.37</ele>
        <time>2019-04-06T09:02:08Z</time>
      </trkpt>
      <trkpt lat="48.73285" lon="2.05636">
        <ele>167.89</ele>
        <time>2019-04-06T09:02:23Z</time>
      </trkpt>
      <trkpt lat="48.7328" lon="2.05666">
        <ele>166.45</ele>
        <time>2019-04-06T09:02:39Z</time>
      </trkpt>
      <trkpt lat="48.73279" lon="2.05689">
        <ele>166.93</ele>
        <time>2019-04-06T09:02:51Z</time>
      </trkpt>
      <trkpt lat="48.73276" lon="2.05712">
        <ele>166.93</ele>
        <time>2019-04-06T09:03:04Z</time>
      </trkpt>
      <trkpt lat="48.73275" lon="2.05719">
        <ele>166.93</ele>
        <time>2019-04-06T09:03:08Z</time>
      </trkpt>
      <trkpt lat="48.73274" lon="2.05744">
        <ele>167.89</ele>
        <time>2019-04-06T09:03:21Z</time>
      </trkpt>
      <trkpt lat="48.73273" lon="2.05761">
        <ele>167.89</ele>
        <time>2019-04-06T09:03:30Z</time>
      </trkpt>
      <trkpt lat="48.73273" lon="2.05772">
        <ele>167.89</ele>
        <time>2019-04-06T09:03:37Z</time>
      </trkpt>
      <trkpt lat="48.73271" lon="2.05776">
        <ele>167.41</ele>
        <time>2019-04-06T09:03:39Z</time>
      </trkpt>
      <trkpt lat="48.7327" lon="2.05782">
        <ele>168.85</ele>
        <time>2019-04-06T09:03:41Z</time>
      </trkpt>
      <trkpt lat="48.73269" lon="2.05789">
        <ele>167.89</ele>
        <time>2019-04-06T09:03:46Z</time>
      </trkpt>
      <trkpt lat="48.73268" lon="2.05803">
        <ele>168.37</ele>
        <time>2019-04-06T09:03:55Z</time>
      </trkpt>
      <trkpt lat="48.73271" lon="2.05822">
        <ele>168.85</ele>
        <time>2019-04-06T09:04:10Z</time>
      </trkpt>
      <trkpt lat="48.73275" lon="2.0583">
        <ele>169.81</ele>
        <time>2019-04-06T09:04:21Z</time>
      </trkpt>
      <trkpt lat="48.7329" lon="2.0584">
        <ele>170.29</ele>
        <time>2019-04-06T09:04:36Z</time>
      </trkpt>
      <trkpt lat="48.7331" lon="2.05857">
        <ele>170.29</ele>
        <time>2019-04-06T09:04:52Z</time>
      </trkpt>
      <trkpt lat="48.73329" lon="2.05877">
        <ele>170.29</ele>
        <time>2019-04-06T09:05:09Z</time>
      </trkpt>
      <trkpt lat="48.73334" lon="2.05884">
        <ele>170.77</ele>
        <time>2019-04-06T09:05:16Z</time>
      </trkpt>
      <trkpt lat="48.73348" lon="2.05891">
        <ele>170.77</ele>
        <time>2019-04-06T09:05:24Z</time>
      </trkpt>
      <trkpt lat="48.7335" lon="2.05895">
        <ele>169.81</ele>
        <time>2019-04-06T09:05:28Z</time>
      </trkpt>
      <trkpt lat="48.73338" lon="2.05913">
        <ele>170.29</ele>
        <time>2019-04-06T09:05:41Z</time>
      </trkpt>
      <trkpt lat="48.7333" lon="2.05929">
        <ele>170.29</ele>
        <time>2019-04-06T09:05:53Z</time>
      </trkpt>
      <trkpt lat="48.7332" lon="2.05948">
        <ele>170.29</ele>
        <time>2019-04-06T09:06:07Z</time>
      </trkpt>
      <trkpt lat="48.73315" lon="2.05969">
        <ele>170.29</ele>
        <time>2019-04-06T09:06:19Z</time>
      </trkpt>
      <trkpt lat="48.73308" lon="2.05993">
        <ele>170.29</ele>
        <time>2019-04-06T09:06:34Z</time>
      </trkpt>
      <trkpt lat="48.73304" lon="2.06009">
        <ele>169.81</ele>
        <time>2019-04-06T09:06:44Z</time>
      </trkpt>
      <trkpt lat="48.73302" lon="2.06013">
        <ele>169.33</ele>
        <time>2019-04-06T09:06:47Z</time>
      </trkpt>
      <trkpt lat="48.73299" lon="2.06022">
        <ele>169.33</ele>
        <time>2019-04-06T09:06:51Z</time>
      </trkpt>
      <trkpt lat="48.73285" lon="2.06049">
        <ele>169.33</ele>
        <time>2019-04-06T09:07:08Z</time>
      </trkpt>
      <trkpt lat="48.7327" lon="2.06067">
        <ele>169.33</ele>
        <time>2019-04-06T09:07:22Z</time>
      </trkpt>
      <trkpt lat="48.73257" lon="2.06078">
        <ele>169.33</ele>
        <time>2019-04-06T09:07:33Z</time>
      </trkpt>
      <trkpt lat="48.73255" lon="2.06081">
        <ele>169.33</ele>
        <time>2019-04-06T09:07:35Z</time>
      </trkpt>
      <trkpt lat="48.73251" lon="2.06085">
        <ele>169.33</ele>
        <time>2019-04-06T09:07:39Z</time>
      </trkpt>
      <trkpt lat="48.73236" lon="2.0611">
        <ele>169.33</ele>
        <time>2019-04-06T09:07:56Z</time>
      </trkpt>
      <trkpt lat="48.73219" lon="2.06135">
        <ele>167.89</ele>
        <time>2019-04-06T09:08:10Z</time>
      </trkpt>
      <trkpt lat="48.73218" lon="2.06135">
        <ele>168.37</ele>
        <time>2019-04-06T09:08:11Z</time>
      </trkpt>
      <trkpt lat="48.73217" lon="2.06136">
        <ele>167.89</ele>
        <time>2019-04-06T09:08:13Z</time>
      </trkpt>
      <trkpt lat="48.73213" lon="2.06139">
        <ele>167.89</ele>
        <time>2019-04-06T09:08:17Z</time>
      </trkpt>
      <trkpt lat="48.732" lon="2.06159">
        <ele>167.41</ele>
        <time>2019-04-06T09:08:28Z</time>
      </trkpt>
      <trkpt lat="48.73193" lon="2.06174">
        <ele>167.41</ele>
        <time>2019-04-06T09:08:42Z</time>
      </trkpt>
      <trkpt lat="48.73184" lon="2.06193">
        <ele>167.41</ele>
        <time>2019-04-06T09:08:55Z</time>
      </trkpt>
      <trkpt lat="48.73166" lon="2.0622">
        <ele>166.45</ele>
        <time>2019-04-06T09:09:11Z</time>
      </trkpt>
      <trkpt lat="48.73162" lon="2.06226">
        <ele>166.45</ele>
        <time>2019-04-06T09:09:16Z</time>
      </trkpt>
      <trkpt lat="48.73161" lon="2.06227">
        <ele>167.41</ele>
        <time>2019-04-06T09:09:17Z</time>
      </trkpt>
      <trkpt lat="48.7316" lon="2.06229">
        <ele>167.41</ele>
        <time>2019-04-06T09:09:18Z</time>
      </trkpt>
      <trkpt lat="48.73159" lon="2.0623">
        <ele>166.93</ele>
        <time>2019-04-06T09:09:19Z</time>
      </trkpt>
      <trkpt lat="48.7315" lon="2.06232">
        <ele>166.93</ele>
        <time>2019-04-06T09:09:29Z</time>
      </trkpt>
      <trkpt lat="48.73143" lon="2.06235">
        <ele>167.41</ele>
        <time>2019-04-06T09:09:34Z</time>
      </trkpt>
      <trkpt lat="48.73133" lon="2.0624">
        <ele>167.41</ele>
        <time>2019-04-06T09:09:44Z</time>
      </trkpt>
      <trkpt lat="48.73131" lon="2.06241">
        <ele>166.93</ele>
        <time>2019-04-06T09:09:45Z</time>
      </trkpt>
      <trkpt lat="48.7313" lon="2.06241">
        <ele>166.93</ele>
        <time>2019-04-06T09:09:46Z</time>
      </trkpt>
      <trkpt lat="48.73129" lon="2.06242">
        <ele>167.41</ele>
        <time>2019-04-06T09:09:47Z</time>
      </trkpt>
      <trkpt lat="48.73119" lon="2.06247">
        <ele>166.93</ele>
        <time>2019-04-06T09:09:56Z</time>
      </trkpt>
      <trkpt lat="48.73118" lon="2.06247">
        <ele>166.93</ele>
        <time>2019-04-06T09:09:57Z</time>
      </trkpt>
      <trkpt lat="48.73104" lon="2.06256">
        <ele>167.41</ele>
        <time>2019-04-06T09:10:07Z</time>
      </trkpt>
      <trkpt lat="48.7309" lon="2.06263">
        <ele>166.45</ele>
        <time>2019-04-06T09:10:20Z</time>
      </trkpt>
      <trkpt lat="48.73088" lon="2.06264">
        <ele>167.41</ele>
        <time>2019-04-06T09:10:22Z</time>
      </trkpt>
      <trkpt lat="48.73069" lon="2.06271">
        <ele>167.89</ele>
        <time>2019-04-06T09:10:36Z</time>
      </trkpt>
      <trkpt lat="48.73051" lon="2.06281">
        <ele>168.37</ele>
        <time>2019-04-06T09:10:52Z</time>
      </trkpt>
      <trkpt lat="48.73042" lon="2.06289">
        <ele>168.85</ele>
        <time>2019-04-06T09:11:00Z</time>
      </trkpt>
      <trkpt lat="48.73042" lon="2.06291">
        <ele>168.85</ele>
        <time>2019-04-06T09:11:01Z</time>
      </trkpt>
      <trkpt lat="48.73041" lon="2.06292">
        <ele>168.37</ele>
        <time>2019-04-06T09:11:02Z</time>
      </trkpt>
      <trkpt lat="48.73027" lon="2.06308">
        <ele>168.85</ele>
        <time>2019-04-06T09:11:16Z</time>
      </trkpt>
      <trkpt lat="48.73015" lon="2.06325">
        <ele>169.81</ele>
        <time>2019-04-06T09:11:26Z</time>
      </trkpt>
      <trkpt lat="48.73011" lon="2.06331">
        <ele>169.81</ele>
        <time>2019-04-06T09:11:31Z</time>
      </trkpt>
      <trkpt lat="48.73006" lon="2.06342">
        <ele>169.81</ele>
        <time>2019-04-06T09:11:39Z</time>
      </trkpt>
      <trkpt lat="48.73005" lon="2.06343">
        <ele>169.81</ele>
        <time>2019-04-06T09:11:40Z</time>
      </trkpt>
      <trkpt lat="48.73003" lon="2.06346">
        <ele>170.77</ele>
        <time>2019-04-06T09:11:41Z</time>
      </trkpt>
      <trkpt lat="48.72995" lon="2.06358">
        <ele>169.81</ele>
        <time>2019-04-06T09:11:50Z</time>
      </trkpt>
      <trkpt lat="48.72994" lon="2.06359">
        <ele>170.29</ele>
        <time>2019-04-06T09:11:51Z</time>
      </trkpt>
      <trkpt lat="48.72994" lon="2.06362">
        <ele>170.29</ele>
        <time>2019-04-06T09:11:52Z</time>
      </trkpt>
      <trkpt lat="48.72987" lon="2.06376">
        <ele>169.81</ele>
        <time>2019-04-06T09:12:01Z</time>
      </trkpt>
      <trkpt lat="48.72982" lon="2.06382">
        <ele>168.85</ele>
        <time>2019-04-06T09:12:06Z</time>
      </trkpt>
      <trkpt lat="48.72981" lon="2.06383">
        <ele>169.81</ele>
        <time>2019-04-06T09:12:07Z</time>
      </trkpt>
      <trkpt lat="48.72981" lon="2.06385">
        <ele>169.81</ele>
        <time>2019-04-06T09:12:08Z</time>
      </trkpt>
      <trkpt lat="48.7298" lon="2.06387">
        <ele>169.81</ele>
        <time>2019-04-06T09:12:09Z</time>
      </trkpt>
      <trkpt lat="48.72979" lon="2.06388">
        <ele>170.29</ele>
        <time>2019-04-06T09:12:10Z</time>
      </trkpt>
      <trkpt lat="48.72978" lon="2.06389">
        <ele>169.81</ele>
        <time>2019-04-06T09:12:11Z</time>
      </trkpt>
      <trkpt lat="48.72976" lon="2.06391">
        <ele>169.81</ele>
        <time>2019-04-06T09:12:12Z</time>
      </trkpt>
      <trkpt lat="48.72974" lon="2.06393">
        <ele>168.85</ele>
        <time>2019-04-06T09:12:14Z</time>
      </trkpt>
      <trkpt lat="48.72974" lon="2.06395">
        <ele>169.33</ele>
        <time>2019-04-06T09:12:15Z</time>
      </trkpt>
      <trkpt lat="48.72973" lon="2.06397">
        <ele>170.77</ele>
        <time>2019-04-06T09:12:17Z</time>
      </trkpt>
      <trkpt lat="48.72961" lon="2.0641">
        <ele>169.33</ele>
        <time>2019-04-06T09:12:29Z</time>
      </trkpt>
      <trkpt lat="48.7296" lon="2.06411">
        <ele>168.85</ele>
        <time>2019-04-06T09:12:30Z</time>
      </trkpt>
      <trkpt lat="48.72959" lon="2.06412">
        <ele>169.33</ele>
        <time>2019-04-06T09:12:31Z</time>
      </trkpt>
      <trkpt lat="48.72945" lon="2.06426">
        <ele>167.89</ele>
        <time>2019-04-06T09:12:43Z</time>
      </trkpt>
      <trkpt lat="48.7293" lon="2.06439">
        <ele>168.37</ele>
        <time>2019-04-06T09:12:55Z</time>
      </trkpt>
      <trkpt lat="48.72919" lon="2.0645">
        <ele>167.89</ele>
        <time>2019-04-06T09:13:03Z</time>
      </trkpt>
      <trkpt lat="48.72908" lon="2.06458">
        <ele>168.37</ele>
        <time>2019-04-06T09:13:15Z</time>
      </trkpt>
      <trkpt lat="48.72898" lon="2.06466">
        <ele>167.89</ele>
        <time>2019-04-06T09:13:27Z</time>
      </trkpt>
      <trkpt lat="48.72888" lon="2.06475">
        <ele>167.41</ele>
        <time>2019-04-06T09:13:40Z</time>
      </trkpt>
      <trkpt lat="48.72876" lon="2.06487">
        <ele>167.89</ele>
        <time>2019-04-06T09:13:54Z</time>
      </trkpt>
      <trkpt lat="48.72871" lon="2.06494">
        <ele>166.93</ele>
        <time>2019-04-06T09:14:01Z</time>
      </trkpt>
      <trkpt lat="48.72868" lon="2.06503">
        <ele>165.96</ele>
        <time>2019-04-06T09:14:06Z</time>
      </trkpt>
      <trkpt lat="48.72867" lon="2.06504">
        <ele>166.93</ele>
        <time>2019-04-06T09:14:07Z</time>
      </trkpt>
      <trkpt lat="48.72862" lon="2.06506">
        <ele>165.96</ele>
        <time>2019-04-06T09:14:13Z</time>
      </trkpt>
      <trkpt lat="48.72861" lon="2.06506">
        <ele>166.45</ele>
        <time>2019-04-06T09:14:14Z</time>
      </trkpt>
      <trkpt lat="48.72859" lon="2.06507">
        <ele>166.93</ele>
        <time>2019-04-06T09:14:15Z</time>
      </trkpt>
      <trkpt lat="48.72858" lon="2.06508">
        <ele>166.93</ele>
        <time>2019-04-06T09:14:16Z</time>
      </trkpt>
      <trkpt lat="48.72856" lon="2.0651">
        <ele>166.45</ele>
        <time>2019-04-06T09:14:17Z</time>
      </trkpt>
      <trkpt lat="48.72853" lon="2.06515">
        <ele>166.45</ele>
        <time>2019-04-06T09:14:21Z</time>
      </trkpt>
      <trkpt lat="48.72852" lon="2.06516">
        <ele>166.93</ele>
        <time>2019-04-06T09:14:22Z</time>
      </trkpt>
      <trkpt lat="48.72851" lon="2.06518">
        <ele>166.45</ele>
        <time>2019-04-06T09:14:23Z</time>
      </trkpt>
      <trkpt lat="48.72845" lon="2.06527">
        <ele>165.96</ele>
        <time>2019-04-06T09:14:33Z</time>
      </trkpt>
      <trkpt lat="48.72834" lon="2.06543">
        <ele>165</ele>
        <time>2019-04-06T09:14:44Z</time>
      </trkpt>
      <trkpt lat="48.72827" lon="2.06552">
        <ele>165.48</ele>
        <time>2019-04-06T09:14:57Z</time>
      </trkpt>
      <trkpt lat="48.72826" lon="2.06553">
        <ele>162.12</ele>
        <time>2019-04-06T09:14:58Z</time>
      </trkpt>
      <trkpt lat="48.72826" lon="2.06554">
        <ele>165.96</ele>
        <time>2019-04-06T09:14:59Z</time>
      </trkpt>
      <trkpt lat="48.72813" lon="2.06574">
        <ele>165.48</ele>
        <time>2019-04-06T09:15:11Z</time>
      </trkpt>
      <trkpt lat="48.728" lon="2.06593">
        <ele>165.48</ele>
        <time>2019-04-06T09:15:26Z</time>
      </trkpt>
      <trkpt lat="48.72793" lon="2.06606">
        <ele>164.52</ele>
        <time>2019-04-06T09:15:34Z</time>
      </trkpt>
      <trkpt lat="48.72792" lon="2.06607">
        <ele>165</ele>
        <time>2019-04-06T09:15:35Z</time>
      </trkpt>
      <trkpt lat="48.72791" lon="2.06609">
        <ele>164.52</ele>
        <time>2019-04-06T09:15:36Z</time>
      </trkpt>
      <trkpt lat="48.72787" lon="2.06615">
        <ele>165</ele>
        <time>2019-04-06T09:15:40Z</time>
      </trkpt>
      <trkpt lat="48.72786" lon="2.06616">
        <ele>165</ele>
        <time>2019-04-06T09:15:41Z</time>
      </trkpt>
      <trkpt lat="48.72785" lon="2.06618">
        <ele>165.48</ele>
        <time>2019-04-06T09:15:43Z</time>
      </trkpt>
      <trkpt lat="48.72784" lon="2.0662">
        <ele>165.96</ele>
        <time>2019-04-06T09:15:44Z</time>
      </trkpt>
      <trkpt lat="48.72781" lon="2.06624">
        <ele>165.48</ele>
        <time>2019-04-06T09:15:47Z</time>
      </trkpt>
      <trkpt lat="48.7278" lon="2.06626">
        <ele>165.96</ele>
        <time>2019-04-06T09:15:48Z</time>
      </trkpt>
      <trkpt lat="48.72779" lon="2.06628">
        <ele>165.48</ele>
        <time>2019-04-06T09:15:49Z</time>
      </trkpt>
      <trkpt lat="48.72778" lon="2.06629">
        <ele>165</ele>
        <time>2019-04-06T09:15:50Z</time>
      </trkpt>
      <trkpt lat="48.72778" lon="2.06631">
        <ele>165.48</ele>
        <time>2019-04-06T09:15:51Z</time>
      </trkpt>
      <trkpt lat="48.72777" lon="2.06631">
        <ele>165.96</ele>
        <time>2019-04-06T09:15:52Z</time>
      </trkpt>
      <trkpt lat="48.72776" lon="2.06632">
        <ele>165.96</ele>
        <time>2019-04-06T09:15:53Z</time>
      </trkpt>
      <trkpt lat="48.72769" lon="2.06641">
        <ele>165.48</ele>
        <time>2019-04-06T09:16:01Z</time>
      </trkpt>
      <trkpt lat="48.72769" lon="2.06643">
        <ele>164.52</ele>
        <time>2019-04-06T09:16:02Z</time>
      </trkpt>
      <trkpt lat="48.72768" lon="2.06645">
        <ele>165.96</ele>
        <time>2019-04-06T09:16:03Z</time>
      </trkpt>
      <trkpt lat="48.72768" lon="2.06646">
        <ele>165.96</ele>
        <time>2019-04-06T09:16:04Z</time>
      </trkpt>
      <trkpt lat="48.72767" lon="2.06648">
        <ele>165.96</ele>
        <time>2019-04-06T09:16:05Z</time>
      </trkpt>
      <trkpt lat="48.72764" lon="2.06653">
        <ele>166.45</ele>
        <time>2019-04-06T09:16:09Z</time>
      </trkpt>
      <trkpt lat="48.72759" lon="2.06661">
        <ele>165.96</ele>
        <time>2019-04-06T09:16:17Z</time>
      </trkpt>
      <trkpt lat="48.7275" lon="2.06682">
        <ele>166.45</ele>
        <time>2019-04-06T09:16:28Z</time>
      </trkpt>
      <trkpt lat="48.72743" lon="2.0671">
        <ele>166.93</ele>
        <time>2019-04-06T09:16:47Z</time>
      </trkpt>
      <trkpt lat="48.72735" lon="2.06733">
        <ele>166.93</ele>
        <time>2019-04-06T09:16:58Z</time>
      </trkpt>
      <trkpt lat="48.72734" lon="2.06734">
        <ele>166.45</ele>
        <time>2019-04-06T09:16:59Z</time>
      </trkpt>
      <trkpt lat="48.72732" lon="2.06738">
        <ele>166.93</ele>
        <time>2019-04-06T09:17:04Z</time>
      </trkpt>
      <trkpt lat="48.72728" lon="2.06751">
        <ele>165.96</ele>
        <time>2019-04-06T09:17:10Z</time>
      </trkpt>
      <trkpt lat="48.72727" lon="2.06752">
        <ele>166.93</ele>
        <time>2019-04-06T09:17:11Z</time>
      </trkpt>
      <trkpt lat="48.72727" lon="2.06754">
        <ele>166.93</ele>
        <time>2019-04-06T09:17:12Z</time>
      </trkpt>
      <trkpt lat="48.72719" lon="2.06779">
        <ele>166.93</ele>
        <time>2019-04-06T09:17:26Z</time>
      </trkpt>
      <trkpt lat="48.7271" lon="2.06802">
        <ele>167.41</ele>
        <time>2019-04-06T09:17:40Z</time>
      </trkpt>
      <trkpt lat="48.72703" lon="2.06817">
        <ele>166.93</ele>
        <time>2019-04-06T09:17:52Z</time>
      </trkpt>
      <trkpt lat="48.72695" lon="2.06833">
        <ele>166.93</ele>
        <time>2019-04-06T09:18:03Z</time>
      </trkpt>
      <trkpt lat="48.72685" lon="2.06853">
        <ele>166.93</ele>
        <time>2019-04-06T09:18:16Z</time>
      </trkpt>
      <trkpt lat="48.72675" lon="2.06875">
        <ele>166.45</ele>
        <time>2019-04-06T09:18:31Z</time>
      </trkpt>
      <trkpt lat="48.72663" lon="2.06896">
        <ele>166.45</ele>
        <time>2019-04-06T09:18:47Z</time>
      </trkpt>
      <trkpt lat="48.72658" lon="2.06908">
        <ele>166.93</ele>
        <time>2019-04-06T09:18:55Z</time>
      </trkpt>
      <trkpt lat="48.72646" lon="2.06928">
        <ele>165.96</ele>
        <time>2019-04-06T09:19:08Z</time>
      </trkpt>
      <trkpt lat="48.72632" lon="2.06949">
        <ele>164.52</ele>
        <time>2019-04-06T09:19:22Z</time>
      </trkpt>
      <trkpt lat="48.72631" lon="2.0695">
        <ele>164.52</ele>
        <time>2019-04-06T09:19:23Z</time>
      </trkpt>
      <trkpt lat="48.7263" lon="2.06951">
        <ele>165.48</ele>
        <time>2019-04-06T09:19:24Z</time>
      </trkpt>
      <trkpt lat="48.72627" lon="2.06952">
        <ele>165</ele>
        <time>2019-04-06T09:19:27Z</time>
      </trkpt>
      <trkpt lat="48.72626" lon="2.06952">
        <ele>164.52</ele>
        <time>2019-04-06T09:19:28Z</time>
      </trkpt>
      <trkpt lat="48.72625" lon="2.06954">
        <ele>164.52</ele>
        <time>2019-04-06T09:19:29Z</time>
      </trkpt>
      <trkpt lat="48.72613" lon="2.06973">
        <ele>165</ele>
        <time>2019-04-06T09:19:42Z</time>
      </trkpt>
      <trkpt lat="48.72605" lon="2.06985">
        <ele>164.04</ele>
        <time>2019-04-06T09:19:53Z</time>
      </trkpt>
      <trkpt lat="48.72589" lon="2.07007">
        <ele>163.08</ele>
        <time>2019-04-06T09:20:09Z</time>
      </trkpt>
      <trkpt lat="48.72583" lon="2.07016">
        <ele>163.08</ele>
        <time>2019-04-06T09:20:14Z</time>
      </trkpt>
      <trkpt lat="48.72581" lon="2.07017">
        <ele>163.08</ele>
        <time>2019-04-06T09:20:15Z</time>
      </trkpt>
      <trkpt lat="48.72576" lon="2.07023">
        <ele>162.6</ele>
        <time>2019-04-06T09:20:21Z</time>
      </trkpt>
      <trkpt lat="48.72576" lon="2.07024">
        <ele>163.08</ele>
        <time>2019-04-06T09:20:22Z</time>
      </trkpt>
      <trkpt lat="48.72564" lon="2.07035">
        <ele>162.6</ele>
        <time>2019-04-06T09:20:31Z</time>
      </trkpt>
      <trkpt lat="48.72561" lon="2.07042">
        <ele>162.12</ele>
        <time>2019-04-06T09:20:36Z</time>
      </trkpt>
      <trkpt lat="48.72553" lon="2.07048">
        <ele>162.6</ele>
        <time>2019-04-06T09:20:42Z</time>
      </trkpt>
      <trkpt lat="48.72551" lon="2.07055">
        <ele>162.12</ele>
        <time>2019-04-06T09:20:46Z</time>
      </trkpt>
      <trkpt lat="48.72551" lon="2.07059">
        <ele>162.12</ele>
        <time>2019-04-06T09:20:50Z</time>
      </trkpt>
      <trkpt lat="48.72544" lon="2.07062">
        <ele>158.75</ele>
        <time>2019-04-06T09:20:58Z</time>
      </trkpt>
      <trkpt lat="48.72543" lon="2.07062">
        <ele>162.12</ele>
        <time>2019-04-06T09:20:59Z</time>
      </trkpt>
      <trkpt lat="48.7252" lon="2.07057">
        <ele>161.64</ele>
        <time>2019-04-06T09:21:16Z</time>
      </trkpt>
      <trkpt lat="48.72519" lon="2.07056">
        <ele>151.06</ele>
        <time>2019-04-06T09:21:17Z</time>
      </trkpt>
      <trkpt lat="48.72514" lon="2.07052">
        <ele>168.85</ele>
        <time>2019-04-06T09:21:18Z</time>
      </trkpt>
      <trkpt lat="48.72514" lon="2.07052">
        <ele>161.16</ele>
        <time>2019-04-06T09:21:19Z</time>
      </trkpt>
      <trkpt lat="48.72505" lon="2.07056">
        <ele>160.68</ele>
        <time>2019-04-06T09:21:50Z</time>
      </trkpt>
      <trkpt lat="48.72505" lon="2.07083">
        <ele>160.68</ele>
        <time>2019-04-06T09:22:08Z</time>
      </trkpt>
      <trkpt lat="48.72497" lon="2.07103">
        <ele>161.16</ele>
        <time>2019-04-06T09:22:23Z</time>
      </trkpt>
      <trkpt lat="48.72486" lon="2.07119">
        <ele>159.72</ele>
        <time>2019-04-06T09:22:38Z</time>
      </trkpt>
      <trkpt lat="48.72477" lon="2.07141">
        <ele>159.72</ele>
        <time>2019-04-06T09:22:52Z</time>
      </trkpt>
      <trkpt lat="48.7247" lon="2.07157">
        <ele>160.68</ele>
        <time>2019-04-06T09:23:05Z</time>
      </trkpt>
      <trkpt lat="48.7246" lon="2.0718">
        <ele>159.72</ele>
        <time>2019-04-06T09:23:20Z</time>
      </trkpt>
      <trkpt lat="48.72457" lon="2.07189">
        <ele>160.2</ele>
        <time>2019-04-06T09:23:36Z</time>
      </trkpt>
      <trkpt lat="48.72457" lon="2.07197">
        <ele>159.72</ele>
        <time>2019-04-06T09:23:53Z</time>
      </trkpt>
      <trkpt lat="48.72458" lon="2.07194">
        <ele>160.2</ele>
        <time>2019-04-06T09:24:11Z</time>
      </trkpt>
      <trkpt lat="48.72458" lon="2.0719">
        <ele>159.24</ele>
        <time>2019-04-06T09:24:36Z</time>
      </trkpt>
      <trkpt lat="48.72458" lon="2.07199">
        <ele>159.24</ele>
        <time>2019-04-06T09:25:05Z</time>
      </trkpt>
      <trkpt lat="48.72459" lon="2.07187">
        <ele>158.75</ele>
        <time>2019-04-06T09:25:35Z</time>
      </trkpt>
      <trkpt lat="48.72453" lon="2.07197">
        <ele>158.75</ele>
        <time>2019-04-06T09:25:51Z</time>
      </trkpt>
      <trkpt lat="48.72443" lon="2.07212">
        <ele>158.75</ele>
        <time>2019-04-06T09:26:03Z</time>
      </trkpt>
      <trkpt lat="48.72433" lon="2.07231">
        <ele>158.27</ele>
        <time>2019-04-06T09:26:18Z</time>
      </trkpt>
      <trkpt lat="48.72421" lon="2.07259">
        <ele>158.27</ele>
        <time>2019-04-06T09:26:35Z</time>
      </trkpt>
      <trkpt lat="48.72414" lon="2.07272">
        <ele>157.79</ele>
        <time>2019-04-06T09:26:44Z</time>
      </trkpt>
      <trkpt lat="48.72413" lon="2.07273">
        <ele>158.75</ele>
        <time>2019-04-06T09:26:45Z</time>
      </trkpt>
      <trkpt lat="48.72405" lon="2.07286">
        <ele>158.75</ele>
        <time>2019-04-06T09:26:58Z</time>
      </trkpt>
      <trkpt lat="48.72399" lon="2.07316">
        <ele>159.72</ele>
        <time>2019-04-06T09:27:13Z</time>
      </trkpt>
      <trkpt lat="48.72397" lon="2.07334">
        <ele>159.24</ele>
        <time>2019-04-06T09:27:25Z</time>
      </trkpt>
      <trkpt lat="48.72394" lon="2.07336">
        <ele>160.2</ele>
        <time>2019-04-06T09:27:37Z</time>
      </trkpt>
      <trkpt lat="48.7239" lon="2.07332">
        <ele>159.72</ele>
        <time>2019-04-06T09:27:50Z</time>
      </trkpt>
      <trkpt lat="48.72391" lon="2.07333">
        <ele>159.24</ele>
        <time>2019-04-06T09:28:01Z</time>
      </trkpt>
      <trkpt lat="48.72392" lon="2.07335">
        <ele>159.72</ele>
        <time>2019-04-06T09:28:14Z</time>
      </trkpt>
      <trkpt lat="48.72395" lon="2.07335">
        <ele>159.24</ele>
        <time>2019-04-06T09:28:23Z</time>
      </trkpt>
      <trkpt lat="48.72391" lon="2.07334">
        <ele>158.75</ele>
        <time>2019-04-06T09:28:37Z</time>
      </trkpt>
      <trkpt lat="48.72383" lon="2.0734">
        <ele>159.72</ele>
        <time>2019-04-06T09:29:02Z</time>
      </trkpt>
      <trkpt lat="48.7239" lon="2.07341">
        <ele>159.24</ele>
        <time>2019-04-06T09:29:14Z</time>
      </trkpt>
      <trkpt lat="48.72399" lon="2.07363">
        <ele>159.24</ele>
        <time>2019-04-06T09:29:29Z</time>
      </trkpt>
      <trkpt lat="48.72399" lon="2.07375">
        <ele>159.24</ele>
        <time>2019-04-06T09:29:37Z</time>
      </trkpt>
      <trkpt lat="48.72397" lon="2.07384">
        <ele>159.24</ele>
        <time>2019-04-06T09:29:50Z</time>
      </trkpt>
      <trkpt lat="48.72397" lon="2.07383">
        <ele>158.75</ele>
        <time>2019-04-06T09:30:04Z</time>
      </trkpt>
      <trkpt lat="48.72396" lon="2.07384">
        <ele>158.75</ele>
        <time>2019-04-06T09:30:15Z</time>
      </trkpt>
      <trkpt lat="48.72397" lon="2.07386">
        <ele>159.24</ele>
        <time>2019-04-06T09:30:27Z</time>
      </trkpt>
      <trkpt lat="48.72398" lon="2.07386">
        <ele>160.2</ele>
        <time>2019-04-06T09:30:33Z</time>
      </trkpt>
      <trkpt lat="48.724" lon="2.07389">
        <ele>159.24</ele>
        <time>2019-04-06T09:30:53Z</time>
      </trkpt>
      <trkpt lat="48.72398" lon="2.07387">
        <ele>158.27</ele>
        <time>2019-04-06T09:31:16Z</time>
      </trkpt>
      <trkpt lat="48.72397" lon="2.0739">
        <ele>158.75</ele>
        <time>2019-04-06T09:31:39Z</time>
      </trkpt>
      <trkpt lat="48.72397" lon="2.07387">
        <ele>159.24</ele>
        <time>2019-04-06T09:31:55Z</time>
      </trkpt>
      <trkpt lat="48.72396" lon="2.07392">
        <ele>158.75</ele>
        <time>2019-04-06T09:32:16Z</time>
      </trkpt>
      <trkpt lat="48.72397" lon="2.07388">
        <ele>158.75</ele>
        <time>2019-04-06T09:32:29Z</time>
      </trkpt>
      <trkpt lat="48.72394" lon="2.07385">
        <ele>158.75</ele>
        <time>2019-04-06T09:32:40Z</time>
      </trkpt>
      <trkpt lat="48.72394" lon="2.07387">
        <ele>158.27</ele>
        <time>2019-04-06T09:32:58Z</time>
      </trkpt>
      <trkpt lat="48.72394" lon="2.07387">
        <ele>158.27</ele>
        <time>2019-04-06T09:33:17Z</time>
      </trkpt>
      <trkpt lat="48.72394" lon="2.07385">
        <ele>157.79</ele>
        <time>2019-04-06T09:33:32Z</time>
      </trkpt>
      <trkpt lat="48.72396" lon="2.07386">
        <ele>158.27</ele>
        <time>2019-04-06T09:33:48Z</time>
      </trkpt>
      <trkpt lat="48.72396" lon="2.07385">
        <ele>157.79</ele>
        <time>2019-04-06T09:34:02Z</time>
      </trkpt>
      <trkpt lat="48.72395" lon="2.07383">
        <ele>157.79</ele>
        <time>2019-04-06T09:34:18Z</time>
      </trkpt>
      <trkpt lat="48.72396" lon="2.07385">
        <ele>157.31</ele>
        <time>2019-04-06T09:34:31Z</time>
      </trkpt>
      <trkpt lat="48.72398" lon="2.07384">
        <ele>158.75</ele>
        <time>2019-04-06T09:34:48Z</time>
      </trkpt>
      <trkpt lat="48.72393" lon="2.07388">
        <ele>157.79</ele>
        <time>2019-04-06T09:35:06Z</time>
      </trkpt>
      <trkpt lat="48.72391" lon="2.07392">
        <ele>157.79</ele>
        <time>2019-04-06T09:35:18Z</time>
      </trkpt>
      <trkpt lat="48.7239" lon="2.07389">
        <ele>157.31</ele>
        <time>2019-04-06T09:35:36Z</time>
      </trkpt>
      <trkpt lat="48.72388" lon="2.0739">
        <ele>157.31</ele>
        <time>2019-04-06T09:35:55Z</time>
      </trkpt>
      <trkpt lat="48.72394" lon="2.07387">
        <ele>156.83</ele>
        <time>2019-04-06T09:36:07Z</time>
      </trkpt>
      <trkpt lat="48.724" lon="2.07381">
        <ele>157.79</ele>
        <time>2019-04-06T09:36:19Z</time>
      </trkpt>
      <trkpt lat="48.72404" lon="2.07378">
        <ele>156.83</ele>
        <time>2019-04-06T09:36:24Z</time>
      </trkpt>
      <trkpt lat="48.72409" lon="2.07381">
        <ele>157.79</ele>
        <time>2019-04-06T09:36:31Z</time>
      </trkpt>
      <trkpt lat="48.72417" lon="2.07395">
        <ele>157.79</ele>
        <time>2019-04-06T09:36:44Z</time>
      </trkpt>
      <trkpt lat="48.72427" lon="2.07405">
        <ele>158.27</ele>
        <time>2019-04-06T09:36:57Z</time>
      </trkpt>
      <trkpt lat="48.7244" lon="2.07418">
        <ele>158.75</ele>
        <time>2019-04-06T09:37:11Z</time>
      </trkpt>
      <trkpt lat="48.72452" lon="2.0743">
        <ele>158.27</ele>
        <time>2019-04-06T09:37:25Z</time>
      </trkpt>
      <trkpt lat="48.72452" lon="2.0743">
        <ele>158.27</ele>
        <time>2019-04-06T09:37:38Z</time>
      </trkpt>
      <trkpt lat="48.72455" lon="2.07434">
        <ele>158.27</ele>
        <time>2019-04-06T09:37:48Z</time>
      </trkpt>
      <trkpt lat="48.72471" lon="2.0745">
        <ele>159.24</ele>
        <time>2019-04-06T09:38:04Z</time>
      </trkpt>
      <trkpt lat="48.72487" lon="2.07462">
        <ele>160.2</ele>
        <time>2019-04-06T09:38:19Z</time>
      </trkpt>
      <trkpt lat="48.72498" lon="2.07472">
        <ele>160.68</ele>
        <time>2019-04-06T09:38:30Z</time>
      </trkpt>
      <trkpt lat="48.72514" lon="2.07484">
        <ele>162.12</ele>
        <time>2019-04-06T09:38:44Z</time>
      </trkpt>
      <trkpt lat="48.72532" lon="2.07499">
        <ele>162.6</ele>
        <time>2019-04-06T09:39:00Z</time>
      </trkpt>
      <trkpt lat="48.72543" lon="2.07509">
        <ele>163.56</ele>
        <time>2019-04-06T09:39:11Z</time>
      </trkpt>
      <trkpt lat="48.72558" lon="2.07522">
        <ele>164.52</ele>
        <time>2019-04-06T09:39:25Z</time>
      </trkpt>
      <trkpt lat="48.72572" lon="2.07535">
        <ele>165.96</ele>
        <time>2019-04-06T09:39:39Z</time>
      </trkpt>
      <trkpt lat="48.72589" lon="2.07553">
        <ele>165.48</ele>
        <time>2019-04-06T09:39:55Z</time>
      </trkpt>
      <trkpt lat="48.72611" lon="2.07571">
        <ele>166.45</ele>
        <time>2019-04-06T09:40:12Z</time>
      </trkpt>
      <trkpt lat="48.72618" lon="2.07576">
        <ele>166.45</ele>
        <time>2019-04-06T09:40:19Z</time>
      </trkpt>
      <trkpt lat="48.72619" lon="2.07577">
        <ele>166.45</ele>
        <time>2019-04-06T09:40:20Z</time>
      </trkpt>
      <trkpt lat="48.7262" lon="2.07579">
        <ele>166.45</ele>
        <time>2019-04-06T09:40:21Z</time>
      </trkpt>
      <trkpt lat="48.72634" lon="2.07593">
        <ele>166.93</ele>
        <time>2019-04-06T09:40:36Z</time>
      </trkpt>
      <trkpt lat="48.72642" lon="2.07599">
        <ele>167.41</ele>
        <time>2019-04-06T09:40:44Z</time>
      </trkpt>
      <trkpt lat="48.72643" lon="2.076">
        <ele>166.93</ele>
        <time>2019-04-06T09:40:45Z</time>
      </trkpt>
      <trkpt lat="48.72644" lon="2.07601">
        <ele>166.45</ele>
        <time>2019-04-06T09:40:46Z</time>
      </trkpt>
      <trkpt lat="48.72646" lon="2.07602">
        <ele>166.45</ele>
        <time>2019-04-06T09:40:47Z</time>
      </trkpt>
      <trkpt lat="48.72647" lon="2.07602">
        <ele>166.45</ele>
        <time>2019-04-06T09:40:48Z</time>
      </trkpt>
      <trkpt lat="48.72649" lon="2.07603">
        <ele>166.93</ele>
        <time>2019-04-06T09:40:49Z</time>
      </trkpt>
      <trkpt lat="48.72656" lon="2.07611">
        <ele>166.93</ele>
        <time>2019-04-06T09:41:02Z</time>
      </trkpt>
      <trkpt lat="48.72667" lon="2.07621">
        <ele>166.93</ele>
        <time>2019-04-06T09:41:24Z</time>
      </trkpt>
      <trkpt lat="48.72679" lon="2.07634">
        <ele>167.41</ele>
        <time>2019-04-06T09:41:37Z</time>
      </trkpt>
      <trkpt lat="48.7268" lon="2.07635">
        <ele>166.93</ele>
        <time>2019-04-06T09:41:38Z</time>
      </trkpt>
      <trkpt lat="48.72699" lon="2.07652">
        <ele>167.89</ele>
        <time>2019-04-06T09:41:55Z</time>
      </trkpt>
      <trkpt lat="48.72717" lon="2.07668">
        <ele>168.85</ele>
        <time>2019-04-06T09:42:12Z</time>
      </trkpt>
      <trkpt lat="48.72734" lon="2.07679">
        <ele>168.37</ele>
        <time>2019-04-06T09:42:24Z</time>
      </trkpt>
      <trkpt lat="48.72743" lon="2.07687">
        <ele>168.85</ele>
        <time>2019-04-06T09:42:33Z</time>
      </trkpt>
      <trkpt lat="48.72745" lon="2.07688">
        <ele>169.81</ele>
        <time>2019-04-06T09:42:35Z</time>
      </trkpt>
      <trkpt lat="48.72745" lon="2.0769">
        <ele>168.85</ele>
        <time>2019-04-06T09:42:36Z</time>
      </trkpt>
      <trkpt lat="48.7275" lon="2.07697">
        <ele>168.85</ele>
        <time>2019-04-06T09:42:42Z</time>
      </trkpt>
      <trkpt lat="48.72752" lon="2.077">
        <ele>168.37</ele>
        <time>2019-04-06T09:42:44Z</time>
      </trkpt>
      <trkpt lat="48.72758" lon="2.07703">
        <ele>168.85</ele>
        <time>2019-04-06T09:42:54Z</time>
      </trkpt>
      <trkpt lat="48.72761" lon="2.07706">
        <ele>168.85</ele>
        <time>2019-04-06T09:42:58Z</time>
      </trkpt>
      <trkpt lat="48.72762" lon="2.07708">
        <ele>168.37</ele>
        <time>2019-04-06T09:42:59Z</time>
      </trkpt>
      <trkpt lat="48.72763" lon="2.07708">
        <ele>168.37</ele>
        <time>2019-04-06T09:43:00Z</time>
      </trkpt>
      <trkpt lat="48.72764" lon="2.0771">
        <ele>168.85</ele>
        <time>2019-04-06T09:43:01Z</time>
      </trkpt>
      <trkpt lat="48.72765" lon="2.0771">
        <ele>168.85</ele>
        <time>2019-04-06T09:43:02Z</time>
      </trkpt>
      <trkpt lat="48.72766" lon="2.07711">
        <ele>168.37</ele>
        <time>2019-04-06T09:43:03Z</time>
      </trkpt>
      <trkpt lat="48.72778" lon="2.07722">
        <ele>168.37</ele>
        <time>2019-04-06T09:43:17Z</time>
      </trkpt>
      <trkpt lat="48.72796" lon="2.07739">
        <ele>168.37</ele>
        <time>2019-04-06T09:43:33Z</time>
      </trkpt>
      <trkpt lat="48.72806" lon="2.07748">
        <ele>167.89</ele>
        <time>2019-04-06T09:43:44Z</time>
      </trkpt>
      <trkpt lat="48.7281" lon="2.0775">
        <ele>167.89</ele>
        <time>2019-04-06T09:43:50Z</time>
      </trkpt>
      <trkpt lat="48.72811" lon="2.07751">
        <ele>168.37</ele>
        <time>2019-04-06T09:43:51Z</time>
      </trkpt>
      <trkpt lat="48.72813" lon="2.07752">
        <ele>168.37</ele>
        <time>2019-04-06T09:43:52Z</time>
      </trkpt>
      <trkpt lat="48.72814" lon="2.07754">
        <ele>167.89</ele>
        <time>2019-04-06T09:43:53Z</time>
      </trkpt>
      <trkpt lat="48.72817" lon="2.07754">
        <ele>167.89</ele>
        <time>2019-04-06T09:43:54Z</time>
      </trkpt>
      <trkpt lat="48.72833" lon="2.07772">
        <ele>167.89</ele>
        <time>2019-04-06T09:44:09Z</time>
      </trkpt>
      <trkpt lat="48.72861" lon="2.07789">
        <ele>167.89</ele>
        <time>2019-04-06T09:44:26Z</time>
      </trkpt>
      <trkpt lat="48.72875" lon="2.07801">
        <ele>167.41</ele>
        <time>2019-04-06T09:44:40Z</time>
      </trkpt>
      <trkpt lat="48.72888" lon="2.07808">
        <ele>166.93</ele>
        <time>2019-04-06T09:44:51Z</time>
      </trkpt>
      <trkpt lat="48.72898" lon="2.07815">
        <ele>166.93</ele>
        <time>2019-04-06T09:45:02Z</time>
      </trkpt>
      <trkpt lat="48.72906" lon="2.0783">
        <ele>166.45</ele>
        <time>2019-04-06T09:45:13Z</time>
      </trkpt>
      <trkpt lat="48.72907" lon="2.07832">
        <ele>166.45</ele>
        <time>2019-04-06T09:45:14Z</time>
      </trkpt>
      <trkpt lat="48.72911" lon="2.0784">
        <ele>166.45</ele>
        <time>2019-04-06T09:45:26Z</time>
      </trkpt>
      <trkpt lat="48.72913" lon="2.07844">
        <ele>165.96</ele>
        <time>2019-04-06T09:45:39Z</time>
      </trkpt>
      <trkpt lat="48.72916" lon="2.07863">
        <ele>166.45</ele>
        <time>2019-04-06T09:45:51Z</time>
      </trkpt>
      <trkpt lat="48.72917" lon="2.07865">
        <ele>165.96</ele>
        <time>2019-04-06T09:45:53Z</time>
      </trkpt>
      <trkpt lat="48.72918" lon="2.0787">
        <ele>166.45</ele>
        <time>2019-04-06T09:45:56Z</time>
      </trkpt>
      <trkpt lat="48.72921" lon="2.07898">
        <ele>166.45</ele>
        <time>2019-04-06T09:46:12Z</time>
      </trkpt>
      <trkpt lat="48.72922" lon="2.079">
        <ele>166.45</ele>
        <time>2019-04-06T09:46:15Z</time>
      </trkpt>
      <trkpt lat="48.72922" lon="2.07902">
        <ele>165.48</ele>
        <time>2019-04-06T09:46:16Z</time>
      </trkpt>
      <trkpt lat="48.72918" lon="2.07932">
        <ele>165.96</ele>
        <time>2019-04-06T09:46:32Z</time>
      </trkpt>
      <trkpt lat="48.72918" lon="2.07939">
        <ele>166.45</ele>
        <time>2019-04-06T09:46:36Z</time>
      </trkpt>
      <trkpt lat="48.72917" lon="2.07944">
        <ele>166.45</ele>
        <time>2019-04-06T09:46:40Z</time>
      </trkpt>
      <trkpt lat="48.72917" lon="2.07946">
        <ele>165</ele>
        <time>2019-04-06T09:46:41Z</time>
      </trkpt>
      <trkpt lat="48.72916" lon="2.07948">
        <ele>165.48</ele>
        <time>2019-04-06T09:46:42Z</time>
      </trkpt>
      <trkpt lat="48.72916" lon="2.0795">
        <ele>165.48</ele>
        <time>2019-04-06T09:46:43Z</time>
      </trkpt>
      <trkpt lat="48.72916" lon="2.07952">
        <ele>165</ele>
        <time>2019-04-06T09:46:44Z</time>
      </trkpt>
      <trkpt lat="48.7291" lon="2.07974">
        <ele>166.93</ele>
        <time>2019-04-06T09:46:58Z</time>
      </trkpt>
      <trkpt lat="48.72904" lon="2.07994">
        <ele>165.48</ele>
        <time>2019-04-06T09:47:10Z</time>
      </trkpt>
      <trkpt lat="48.72896" lon="2.08015">
        <ele>166.45</ele>
        <time>2019-04-06T09:47:25Z</time>
      </trkpt>
      <trkpt lat="48.72886" lon="2.08031">
        <ele>165.96</ele>
        <time>2019-04-06T09:47:36Z</time>
      </trkpt>
      <trkpt lat="48.72879" lon="2.0805">
        <ele>166.45</ele>
        <time>2019-04-06T09:47:47Z</time>
      </trkpt>
      <trkpt lat="48.72869" lon="2.08072">
        <ele>166.93</ele>
        <time>2019-04-06T09:48:02Z</time>
      </trkpt>
      <trkpt lat="48.72863" lon="2.0809">
        <ele>165.96</ele>
        <time>2019-04-06T09:48:13Z</time>
      </trkpt>
      <trkpt lat="48.72864" lon="2.08096">
        <ele>166.45</ele>
        <time>2019-04-06T09:48:18Z</time>
      </trkpt>
      <trkpt lat="48.72864" lon="2.08099">
        <ele>166.45</ele>
        <time>2019-04-06T09:48:19Z</time>
      </trkpt>
      <trkpt lat="48.72865" lon="2.08101">
        <ele>165.96</ele>
        <time>2019-04-06T09:48:20Z</time>
      </trkpt>
      <trkpt lat="48.72866" lon="2.08104">
        <ele>165.96</ele>
        <time>2019-04-06T09:48:21Z</time>
      </trkpt>
      <trkpt lat="48.72867" lon="2.08107">
        <ele>166.45</ele>
        <time>2019-04-06T09:48:22Z</time>
      </trkpt>
      <trkpt lat="48.72867" lon="2.08109">
        <ele>166.45</ele>
        <time>2019-04-06T09:48:23Z</time>
      </trkpt>
      <trkpt lat="48.72879" lon="2.08125">
        <ele>166.93</ele>
        <time>2019-04-06T09:48:35Z</time>
      </trkpt>
      <trkpt lat="48.72885" lon="2.0813">
        <ele>165.96</ele>
        <time>2019-04-06T09:48:48Z</time>
      </trkpt>
      <trkpt lat="48.72886" lon="2.08131">
        <ele>165.96</ele>
        <time>2019-04-06T09:48:49Z</time>
      </trkpt>
      <trkpt lat="48.72887" lon="2.08133">
        <ele>166.45</ele>
        <time>2019-04-06T09:48:50Z</time>
      </trkpt>
      <trkpt lat="48.72888" lon="2.08135">
        <ele>166.45</ele>
        <time>2019-04-06T09:48:51Z</time>
      </trkpt>
      <trkpt lat="48.72889" lon="2.08138">
        <ele>166.45</ele>
        <time>2019-04-06T09:48:52Z</time>
      </trkpt>
      <trkpt lat="48.7289" lon="2.0814">
        <ele>165.48</ele>
        <time>2019-04-06T09:48:53Z</time>
      </trkpt>
      <trkpt lat="48.72892" lon="2.08141">
        <ele>165.96</ele>
        <time>2019-04-06T09:48:54Z</time>
      </trkpt>
      <trkpt lat="48.72902" lon="2.08138">
        <ele>165</ele>
        <time>2019-04-06T09:49:05Z</time>
      </trkpt>
      <trkpt lat="48.72903" lon="2.08137">
        <ele>165.48</ele>
        <time>2019-04-06T09:49:06Z</time>
      </trkpt>
      <trkpt lat="48.72904" lon="2.08137">
        <ele>165.48</ele>
        <time>2019-04-06T09:49:07Z</time>
      </trkpt>
      <trkpt lat="48.72906" lon="2.08136">
        <ele>165.48</ele>
        <time>2019-04-06T09:49:08Z</time>
      </trkpt>
      <trkpt lat="48.72907" lon="2.08135">
        <ele>165.96</ele>
        <time>2019-04-06T09:49:09Z</time>
      </trkpt>
      <trkpt lat="48.72908" lon="2.08134">
        <ele>165.48</ele>
        <time>2019-04-06T09:49:10Z</time>
      </trkpt>
      <trkpt lat="48.7291" lon="2.08134">
        <ele>166.45</ele>
        <time>2019-04-06T09:49:11Z</time>
      </trkpt>
      <trkpt lat="48.72911" lon="2.08134">
        <ele>166.45</ele>
        <time>2019-04-06T09:49:12Z</time>
      </trkpt>
      <trkpt lat="48.72915" lon="2.08132">
        <ele>165.96</ele>
        <time>2019-04-06T09:49:17Z</time>
      </trkpt>
      <trkpt lat="48.72919" lon="2.0813">
        <ele>165.48</ele>
        <time>2019-04-06T09:49:20Z</time>
      </trkpt>
      <trkpt lat="48.7292" lon="2.08129">
        <ele>165.96</ele>
        <time>2019-04-06T09:49:21Z</time>
      </trkpt>
      <trkpt lat="48.72936" lon="2.08125">
        <ele>165</ele>
        <time>2019-04-06T09:49:36Z</time>
      </trkpt>
      <trkpt lat="48.72949" lon="2.0812">
        <ele>165.48</ele>
        <time>2019-04-06T09:49:48Z</time>
      </trkpt>
      <trkpt lat="48.7295" lon="2.0812">
        <ele>164.52</ele>
        <time>2019-04-06T09:49:49Z</time>
      </trkpt>
      <trkpt lat="48.72952" lon="2.08119">
        <ele>165</ele>
        <time>2019-04-06T09:49:50Z</time>
      </trkpt>
      <trkpt lat="48.7296" lon="2.08117">
        <ele>165</ele>
        <time>2019-04-06T09:49:55Z</time>
      </trkpt>
      <trkpt lat="48.72966" lon="2.08116">
        <ele>165</ele>
        <time>2019-04-06T09:50:00Z</time>
      </trkpt>
      <trkpt lat="48.72979" lon="2.08111">
        <ele>164.52</ele>
        <time>2019-04-06T09:50:12Z</time>
      </trkpt>
      <trkpt lat="48.72984" lon="2.08119">
        <ele>164.04</ele>
        <time>2019-04-06T09:50:24Z</time>
      </trkpt>
      <trkpt lat="48.72984" lon="2.08123">
        <ele>164.04</ele>
        <time>2019-04-06T09:50:27Z</time>
      </trkpt>
      <trkpt lat="48.72991" lon="2.08132">
        <ele>164.04</ele>
        <time>2019-04-06T09:50:35Z</time>
      </trkpt>
      <trkpt lat="48.72995" lon="2.08137">
        <ele>163.08</ele>
        <time>2019-04-06T09:50:41Z</time>
      </trkpt>
      <trkpt lat="48.73013" lon="2.08128">
        <ele>162.12</ele>
        <time>2019-04-06T09:50:56Z</time>
      </trkpt>
      <trkpt lat="48.73015" lon="2.08124">
        <ele>162.6</ele>
        <time>2019-04-06T09:50:59Z</time>
      </trkpt>
      <trkpt lat="48.73025" lon="2.08128">
        <ele>162.12</ele>
        <time>2019-04-06T09:51:09Z</time>
      </trkpt>
      <trkpt lat="48.73027" lon="2.0813">
        <ele>162.6</ele>
        <time>2019-04-06T09:51:11Z</time>
      </trkpt>
      <trkpt lat="48.7303" lon="2.08132">
        <ele>165.96</ele>
        <time>2019-04-06T09:51:13Z</time>
      </trkpt>
      <trkpt lat="48.73031" lon="2.08135">
        <ele>162.12</ele>
        <time>2019-04-06T09:51:15Z</time>
      </trkpt>
      <trkpt lat="48.73032" lon="2.08136">
        <ele>162.12</ele>
        <time>2019-04-06T09:51:16Z</time>
      </trkpt>
      <trkpt lat="48.73053" lon="2.08147">
        <ele>161.16</ele>
        <time>2019-04-06T09:51:37Z</time>
      </trkpt>
      <trkpt lat="48.7307" lon="2.0816">
        <ele>161.16</ele>
        <time>2019-04-06T09:51:56Z</time>
      </trkpt>
      <trkpt lat="48.73085" lon="2.0818">
        <ele>161.16</ele>
        <time>2019-04-06T09:52:13Z</time>
      </trkpt>
      <trkpt lat="48.73102" lon="2.08195">
        <ele>162.12</ele>
        <time>2019-04-06T09:52:31Z</time>
      </trkpt>
      <trkpt lat="48.73107" lon="2.08216">
        <ele>159.24</ele>
        <time>2019-04-06T09:52:47Z</time>
      </trkpt>
      <trkpt lat="48.73089" lon="2.08236">
        <ele>159.72</ele>
        <time>2019-04-06T09:53:06Z</time>
      </trkpt>
      <trkpt lat="48.73071" lon="2.08256">
        <ele>159.72</ele>
        <time>2019-04-06T09:53:26Z</time>
      </trkpt>
      <trkpt lat="48.73052" lon="2.08284">
        <ele>158.27</ele>
        <time>2019-04-06T09:53:46Z</time>
      </trkpt>
      <trkpt lat="48.73037" lon="2.08302">
        <ele>159.24</ele>
        <time>2019-04-06T09:54:06Z</time>
      </trkpt>
      <trkpt lat="48.73019" lon="2.08324">
        <ele>158.27</ele>
        <time>2019-04-06T09:54:25Z</time>
      </trkpt>
      <trkpt lat="48.73005" lon="2.08343">
        <ele>158.27</ele>
        <time>2019-04-06T09:54:44Z</time>
      </trkpt>
      <trkpt lat="48.72989" lon="2.08358">
        <ele>157.79</ele>
        <time>2019-04-06T09:55:00Z</time>
      </trkpt>
      <trkpt lat="48.72975" lon="2.08377">
        <ele>158.75</ele>
        <time>2019-04-06T09:55:17Z</time>
      </trkpt>
      <trkpt lat="48.72963" lon="2.08392">
        <ele>158.75</ele>
        <time>2019-04-06T09:55:28Z</time>
      </trkpt>
      <trkpt lat="48.72952" lon="2.08406">
        <ele>157.79</ele>
        <time>2019-04-06T09:55:42Z</time>
      </trkpt>
      <trkpt lat="48.72935" lon="2.08424">
        <ele>157.31</ele>
        <time>2019-04-06T09:55:59Z</time>
      </trkpt>
      <trkpt lat="48.72916" lon="2.0844">
        <ele>157.31</ele>
        <time>2019-04-06T09:56:17Z</time>
      </trkpt>
      <trkpt lat="48.72903" lon="2.0846">
        <ele>156.83</ele>
        <time>2019-04-06T09:56:32Z</time>
      </trkpt>
      <trkpt lat="48.72897" lon="2.08489">
        <ele>157.31</ele>
        <time>2019-04-06T09:56:49Z</time>
      </trkpt>
      <trkpt lat="48.72892" lon="2.08518">
        <ele>156.83</ele>
        <time>2019-04-06T09:57:04Z</time>
      </trkpt>
      <trkpt lat="48.7289" lon="2.08544">
        <ele>155.87</ele>
        <time>2019-04-06T09:57:18Z</time>
      </trkpt>
      <trkpt lat="48.72887" lon="2.08563">
        <ele>156.35</ele>
        <time>2019-04-06T09:57:31Z</time>
      </trkpt>
      <trkpt lat="48.72884" lon="2.08593">
        <ele>156.35</ele>
        <time>2019-04-06T09:57:46Z</time>
      </trkpt>
      <trkpt lat="48.7289" lon="2.08616">
        <ele>156.35</ele>
        <time>2019-04-06T09:57:58Z</time>
      </trkpt>
      <trkpt lat="48.72894" lon="2.08637">
        <ele>156.83</ele>
        <time>2019-04-06T09:58:10Z</time>
      </trkpt>
      <trkpt lat="48.72893" lon="2.08664">
        <ele>156.83</ele>
        <time>2019-04-06T09:58:25Z</time>
      </trkpt>
      <trkpt lat="48.72889" lon="2.08683">
        <ele>156.83</ele>
        <time>2019-04-06T09:58:35Z</time>
      </trkpt>
      <trkpt lat="48.72882" lon="2.08703">
        <ele>157.79</ele>
        <time>2019-04-06T09:58:47Z</time>
      </trkpt>
      <trkpt lat="48.72868" lon="2.08731">
        <ele>158.27</ele>
        <time>2019-04-06T09:59:05Z</time>
      </trkpt>
      <trkpt lat="48.72857" lon="2.0875">
        <ele>158.27</ele>
        <time>2019-04-06T09:59:19Z</time>
      </trkpt>
      <trkpt lat="48.72852" lon="2.08777">
        <ele>157.31</ele>
        <time>2019-04-06T09:59:33Z</time>
      </trkpt>
      <trkpt lat="48.72851" lon="2.08782">
        <ele>158.75</ele>
        <time>2019-04-06T09:59:36Z</time>
      </trkpt>
      <trkpt lat="48.72851" lon="2.08785">
        <ele>157.79</ele>
        <time>2019-04-06T09:59:38Z</time>
      </trkpt>
      <trkpt lat="48.72849" lon="2.08796">
        <ele>159.24</ele>
        <time>2019-04-06T09:59:43Z</time>
      </trkpt>
      <trkpt lat="48.72848" lon="2.08804">
        <ele>157.31</ele>
        <time>2019-04-06T09:59:47Z</time>
      </trkpt>
      <trkpt lat="48.72846" lon="2.08812">
        <ele>157.79</ele>
        <time>2019-04-06T09:59:51Z</time>
      </trkpt>
      <trkpt lat="48.72846" lon="2.08822">
        <ele>156.83</ele>
        <time>2019-04-06T09:59:57Z</time>
      </trkpt>
      <trkpt lat="48.72845" lon="2.0883">
        <ele>157.79</ele>
        <time>2019-04-06T10:00:01Z</time>
      </trkpt>
      <trkpt lat="48.72845" lon="2.08831">
        <ele>157.31</ele>
        <time>2019-04-06T10:00:02Z</time>
      </trkpt>
      <trkpt lat="48.72848" lon="2.08864">
        <ele>157.79</ele>
        <time>2019-04-06T10:00:19Z</time>
      </trkpt>
      <trkpt lat="48.72846" lon="2.08876">
        <ele>157.31</ele>
        <time>2019-04-06T10:00:27Z</time>
      </trkpt>
      <trkpt lat="48.72833" lon="2.08908">
        <ele>157.79</ele>
        <time>2019-04-06T10:00:43Z</time>
      </trkpt>
      <trkpt lat="48.72827" lon="2.08928">
        <ele>158.75</ele>
        <time>2019-04-06T10:00:56Z</time>
      </trkpt>
      <trkpt lat="48.72826" lon="2.08936">
        <ele>158.75</ele>
        <time>2019-04-06T10:01:01Z</time>
      </trkpt>
      <trkpt lat="48.72823" lon="2.08947">
        <ele>158.27</ele>
        <time>2019-04-06T10:01:07Z</time>
      </trkpt>
      <trkpt lat="48.7282" lon="2.08962">
        <ele>156.83</ele>
        <time>2019-04-06T10:01:19Z</time>
      </trkpt>
      <trkpt lat="48.72811" lon="2.08987">
        <ele>156.35</ele>
        <time>2019-04-06T10:01:34Z</time>
      </trkpt>
      <trkpt lat="48.72797" lon="2.08998">
        <ele>157.31</ele>
        <time>2019-04-06T10:01:49Z</time>
      </trkpt>
      <trkpt lat="48.72783" lon="2.09009">
        <ele>158.27</ele>
        <time>2019-04-06T10:02:04Z</time>
      </trkpt>
      <trkpt lat="48.72772" lon="2.09013">
        <ele>158.27</ele>
        <time>2019-04-06T10:02:14Z</time>
      </trkpt>
      <trkpt lat="48.7276" lon="2.09032">
        <ele>157.79</ele>
        <time>2019-04-06T10:02:24Z</time>
      </trkpt>
      <trkpt lat="48.72759" lon="2.09033">
        <ele>157.79</ele>
        <time>2019-04-06T10:02:25Z</time>
      </trkpt>
      <trkpt lat="48.72753" lon="2.09065">
        <ele>157.31</ele>
        <time>2019-04-06T10:02:36Z</time>
      </trkpt>
      <trkpt lat="48.72757" lon="2.09091">
        <ele>157.79</ele>
        <time>2019-04-06T10:02:50Z</time>
      </trkpt>
      <trkpt lat="48.72764" lon="2.09116">
        <ele>155.87</ele>
        <time>2019-04-06T10:03:02Z</time>
      </trkpt>
      <trkpt lat="48.72779" lon="2.09138">
        <ele>152.51</ele>
        <time>2019-04-06T10:03:18Z</time>
      </trkpt>
      <trkpt lat="48.72786" lon="2.09147">
        <ele>152.03</ele>
        <time>2019-04-06T10:03:24Z</time>
      </trkpt>
      <trkpt lat="48.72788" lon="2.09154">
        <ele>152.51</ele>
        <time>2019-04-06T10:03:27Z</time>
      </trkpt>
      <trkpt lat="48.72789" lon="2.09176">
        <ele>151.54</ele>
        <time>2019-04-06T10:03:41Z</time>
      </trkpt>
      <trkpt lat="48.7279" lon="2.0918">
        <ele>152.99</ele>
        <time>2019-04-06T10:03:47Z</time>
      </trkpt>
      <trkpt lat="48.72789" lon="2.09186">
        <ele>152.03</ele>
        <time>2019-04-06T10:03:50Z</time>
      </trkpt>
      <trkpt lat="48.72784" lon="2.09197">
        <ele>152.03</ele>
        <time>2019-04-06T10:04:00Z</time>
      </trkpt>
      <trkpt lat="48.72783" lon="2.09207">
        <ele>151.54</ele>
        <time>2019-04-06T10:04:05Z</time>
      </trkpt>
      <trkpt lat="48.72781" lon="2.0922">
        <ele>151.06</ele>
        <time>2019-04-06T10:04:11Z</time>
      </trkpt>
      <trkpt lat="48.72764" lon="2.09236">
        <ele>151.54</ele>
        <time>2019-04-06T10:04:28Z</time>
      </trkpt>
      <trkpt lat="48.72747" lon="2.09247">
        <ele>152.99</ele>
        <time>2019-04-06T10:04:43Z</time>
      </trkpt>
      <trkpt lat="48.72737" lon="2.09254">
        <ele>153.47</ele>
        <time>2019-04-06T10:04:51Z</time>
      </trkpt>
      <trkpt lat="48.72734" lon="2.09295">
        <ele>152.03</ele>
        <time>2019-04-06T10:05:08Z</time>
      </trkpt>
      <trkpt lat="48.72735" lon="2.09302">
        <ele>151.54</ele>
        <time>2019-04-06T10:05:10Z</time>
      </trkpt>
      <trkpt lat="48.72734" lon="2.09312">
        <ele>151.54</ele>
        <time>2019-04-06T10:05:15Z</time>
      </trkpt>
      <trkpt lat="48.72727" lon="2.09336">
        <ele>150.1</ele>
        <time>2019-04-06T10:05:30Z</time>
      </trkpt>
      <trkpt lat="48.72722" lon="2.09343">
        <ele>150.1</ele>
        <time>2019-04-06T10:05:35Z</time>
      </trkpt>
      <trkpt lat="48.72713" lon="2.09347">
        <ele>151.54</ele>
        <time>2019-04-06T10:05:45Z</time>
      </trkpt>
      <trkpt lat="48.7271" lon="2.09348">
        <ele>152.51</ele>
        <time>2019-04-06T10:05:47Z</time>
      </trkpt>
      <trkpt lat="48.72699" lon="2.09362">
        <ele>151.06</ele>
        <time>2019-04-06T10:06:01Z</time>
      </trkpt>
      <trkpt lat="48.72697" lon="2.0939">
        <ele>151.06</ele>
        <time>2019-04-06T10:06:13Z</time>
      </trkpt>
      <trkpt lat="48.72696" lon="2.09394">
        <ele>150.58</ele>
        <time>2019-04-06T10:06:15Z</time>
      </trkpt>
      <trkpt lat="48.72694" lon="2.09402">
        <ele>150.58</ele>
        <time>2019-04-06T10:06:28Z</time>
      </trkpt>
      <trkpt lat="48.72692" lon="2.09402">
        <ele>151.54</ele>
        <time>2019-04-06T10:06:31Z</time>
      </trkpt>
      <trkpt lat="48.72686" lon="2.09402">
        <ele>152.03</ele>
        <time>2019-04-06T10:06:34Z</time>
      </trkpt>
      <trkpt lat="48.72673" lon="2.09409">
        <ele>151.54</ele>
        <time>2019-04-06T10:06:44Z</time>
      </trkpt>
      <trkpt lat="48.7267" lon="2.09409">
        <ele>152.51</ele>
        <time>2019-04-06T10:06:46Z</time>
      </trkpt>
      <trkpt lat="48.72655" lon="2.09409">
        <ele>152.51</ele>
        <time>2019-04-06T10:06:58Z</time>
      </trkpt>
      <trkpt lat="48.72652" lon="2.09408">
        <ele>152.99</ele>
        <time>2019-04-06T10:07:00Z</time>
      </trkpt>
      <trkpt lat="48.72641" lon="2.09407">
        <ele>153.95</ele>
        <time>2019-04-06T10:07:08Z</time>
      </trkpt>
      <trkpt lat="48.72636" lon="2.09408">
        <ele>154.43</ele>
        <time>2019-04-06T10:07:13Z</time>
      </trkpt>
      <trkpt lat="48.72629" lon="2.09425">
        <ele>153.95</ele>
        <time>2019-04-06T10:07:25Z</time>
      </trkpt>
      <trkpt lat="48.72617" lon="2.09443">
        <ele>152.99</ele>
        <time>2019-04-06T10:07:40Z</time>
      </trkpt>
      <trkpt lat="48.72605" lon="2.0945">
        <ele>153.47</ele>
        <time>2019-04-06T10:07:49Z</time>
      </trkpt>
      <trkpt lat="48.72602" lon="2.09449">
        <ele>151.54</ele>
        <time>2019-04-06T10:07:51Z</time>
      </trkpt>
      <trkpt lat="48.72596" lon="2.09442">
        <ele>152.51</ele>
        <time>2019-04-06T10:07:57Z</time>
      </trkpt>
      <trkpt lat="48.72594" lon="2.09441">
        <ele>151.54</ele>
        <time>2019-04-06T10:07:59Z</time>
      </trkpt>
      <trkpt lat="48.72573" lon="2.09429">
        <ele>152.99</ele>
        <time>2019-04-06T10:08:16Z</time>
      </trkpt>
      <trkpt lat="48.72559" lon="2.09423">
        <ele>152.03</ele>
        <time>2019-04-06T10:08:26Z</time>
      </trkpt>
      <trkpt lat="48.72555" lon="2.09422">
        <ele>151.06</ele>
        <time>2019-04-06T10:08:31Z</time>
      </trkpt>
      <trkpt lat="48.7254" lon="2.0942">
        <ele>151.54</ele>
        <time>2019-04-06T10:08:42Z</time>
      </trkpt>
      <trkpt lat="48.72534" lon="2.09422">
        <ele>151.06</ele>
        <time>2019-04-06T10:08:47Z</time>
      </trkpt>
      <trkpt lat="48.72532" lon="2.09425">
        <ele>152.03</ele>
        <time>2019-04-06T10:08:49Z</time>
      </trkpt>
      <trkpt lat="48.72515" lon="2.09429">
        <ele>151.06</ele>
        <time>2019-04-06T10:09:01Z</time>
      </trkpt>
      <trkpt lat="48.72503" lon="2.09438">
        <ele>150.1</ele>
        <time>2019-04-06T10:09:11Z</time>
      </trkpt>
      <trkpt lat="48.72502" lon="2.09442">
        <ele>150.1</ele>
        <time>2019-04-06T10:09:13Z</time>
      </trkpt>
      <trkpt lat="48.72498" lon="2.09452">
        <ele>150.58</ele>
        <time>2019-04-06T10:09:29Z</time>
      </trkpt>
      <trkpt lat="48.72494" lon="2.09449">
        <ele>150.58</ele>
        <time>2019-04-06T10:09:41Z</time>
      </trkpt>
      <trkpt lat="48.72498" lon="2.09453">
        <ele>151.54</ele>
        <time>2019-04-06T10:09:55Z</time>
      </trkpt>
      <trkpt lat="48.72495" lon="2.09453">
        <ele>151.54</ele>
        <time>2019-04-06T10:10:24Z</time>
      </trkpt>
      <trkpt lat="48.72491" lon="2.09455">
        <ele>152.51</ele>
        <time>2019-04-06T10:10:30Z</time>
      </trkpt>
      <trkpt lat="48.72489" lon="2.09457">
        <ele>152.51</ele>
        <time>2019-04-06T10:10:32Z</time>
      </trkpt>
      <trkpt lat="48.72482" lon="2.09465">
        <ele>153.47</ele>
        <time>2019-04-06T10:10:42Z</time>
      </trkpt>
      <trkpt lat="48.72467" lon="2.09473">
        <ele>154.91</ele>
        <time>2019-04-06T10:10:55Z</time>
      </trkpt>
      <trkpt lat="48.7246" lon="2.09493">
        <ele>155.87</ele>
        <time>2019-04-06T10:11:08Z</time>
      </trkpt>
      <trkpt lat="48.72452" lon="2.0951">
        <ele>156.35</ele>
        <time>2019-04-06T10:11:19Z</time>
      </trkpt>
      <trkpt lat="48.72446" lon="2.09515">
        <ele>157.31</ele>
        <time>2019-04-06T10:11:27Z</time>
      </trkpt>
      <trkpt lat="48.7244" lon="2.09531">
        <ele>157.79</ele>
        <time>2019-04-06T10:11:33Z</time>
      </trkpt>
      <trkpt lat="48.72433" lon="2.09557">
        <ele>157.31</ele>
        <time>2019-04-06T10:11:49Z</time>
      </trkpt>
      <trkpt lat="48.72431" lon="2.09584">
        <ele>158.27</ele>
        <time>2019-04-06T10:12:04Z</time>
      </trkpt>
      <trkpt lat="48.72425" lon="2.09599">
        <ele>158.75</ele>
        <time>2019-04-06T10:12:12Z</time>
      </trkpt>
      <trkpt lat="48.72428" lon="2.0962">
        <ele>158.27</ele>
        <time>2019-04-06T10:12:24Z</time>
      </trkpt>
      <trkpt lat="48.72429" lon="2.09623">
        <ele>158.75</ele>
        <time>2019-04-06T10:12:26Z</time>
      </trkpt>
      <trkpt lat="48.72433" lon="2.09638">
        <ele>158.27</ele>
        <time>2019-04-06T10:12:34Z</time>
      </trkpt>
      <trkpt lat="48.72434" lon="2.09645">
        <ele>158.75</ele>
        <time>2019-04-06T10:12:39Z</time>
      </trkpt>
      <trkpt lat="48.72435" lon="2.09649">
        <ele>158.27</ele>
        <time>2019-04-06T10:12:41Z</time>
      </trkpt>
      <trkpt lat="48.72435" lon="2.09661">
        <ele>158.27</ele>
        <time>2019-04-06T10:12:47Z</time>
      </trkpt>
      <trkpt lat="48.72442" lon="2.09688">
        <ele>158.75</ele>
        <time>2019-04-06T10:13:03Z</time>
      </trkpt>
      <trkpt lat="48.72444" lon="2.09699">
        <ele>157.79</ele>
        <time>2019-04-06T10:13:09Z</time>
      </trkpt>
      <trkpt lat="48.72448" lon="2.09731">
        <ele>158.27</ele>
        <time>2019-04-06T10:13:25Z</time>
      </trkpt>
      <trkpt lat="48.72448" lon="2.09735">
        <ele>158.27</ele>
        <time>2019-04-06T10:13:27Z</time>
      </trkpt>
      <trkpt lat="48.7245" lon="2.09752">
        <ele>157.79</ele>
        <time>2019-04-06T10:13:39Z</time>
      </trkpt>
      <trkpt lat="48.72453" lon="2.09755">
        <ele>157.79</ele>
        <time>2019-04-06T10:13:42Z</time>
      </trkpt>
      <trkpt lat="48.72467" lon="2.09776">
        <ele>157.31</ele>
        <time>2019-04-06T10:13:54Z</time>
      </trkpt>
      <trkpt lat="48.7247" lon="2.09783">
        <ele>156.83</ele>
        <time>2019-04-06T10:14:00Z</time>
      </trkpt>
      <trkpt lat="48.72473" lon="2.09808">
        <ele>157.79</ele>
        <time>2019-04-06T10:14:14Z</time>
      </trkpt>
      <trkpt lat="48.72472" lon="2.09816">
        <ele>156.83</ele>
        <time>2019-04-06T10:14:19Z</time>
      </trkpt>
      <trkpt lat="48.72471" lon="2.09845">
        <ele>157.79</ele>
        <time>2019-04-06T10:14:35Z</time>
      </trkpt>
      <trkpt lat="48.72469" lon="2.09858">
        <ele>157.79</ele>
        <time>2019-04-06T10:14:42Z</time>
      </trkpt>
      <trkpt lat="48.72471" lon="2.09884">
        <ele>156.83</ele>
        <time>2019-04-06T10:14:55Z</time>
      </trkpt>
      <trkpt lat="48.7247" lon="2.09896">
        <ele>157.31</ele>
        <time>2019-04-06T10:15:01Z</time>
      </trkpt>
      <trkpt lat="48.7246" lon="2.09917">
        <ele>158.27</ele>
        <time>2019-04-06T10:15:16Z</time>
      </trkpt>
      <trkpt lat="48.72452" lon="2.09931">
        <ele>158.27</ele>
        <time>2019-04-06T10:15:26Z</time>
      </trkpt>
      <trkpt lat="48.7245" lon="2.09937">
        <ele>157.79</ele>
        <time>2019-04-06T10:15:29Z</time>
      </trkpt>
      <trkpt lat="48.72449" lon="2.09956">
        <ele>158.27</ele>
        <time>2019-04-06T10:15:39Z</time>
      </trkpt>
      <trkpt lat="48.72443" lon="2.09981">
        <ele>157.31</ele>
        <time>2019-04-06T10:15:54Z</time>
      </trkpt>
      <trkpt lat="48.72444" lon="2.09988">
        <ele>158.27</ele>
        <time>2019-04-06T10:15:58Z</time>
      </trkpt>
      <trkpt lat="48.72439" lon="2.09999">
        <ele>158.27</ele>
        <time>2019-04-06T10:16:11Z</time>
      </trkpt>
      <trkpt lat="48.72437" lon="2.09999">
        <ele>158.27</ele>
        <time>2019-04-06T10:16:25Z</time>
      </trkpt>
      <trkpt lat="48.72431" lon="2.09996">
        <ele>158.27</ele>
        <time>2019-04-06T10:16:44Z</time>
      </trkpt>
      <trkpt lat="48.72436" lon="2.09998">
        <ele>158.27</ele>
        <time>2019-04-06T10:17:04Z</time>
      </trkpt>
      <trkpt lat="48.72443" lon="2.09995">
        <ele>157.79</ele>
        <time>2019-04-06T10:17:22Z</time>
      </trkpt>
      <trkpt lat="48.72443" lon="2.09982">
        <ele>157.31</ele>
        <time>2019-04-06T10:17:40Z</time>
      </trkpt>
      <trkpt lat="48.72447" lon="2.09965">
        <ele>157.79</ele>
        <time>2019-04-06T10:17:54Z</time>
      </trkpt>
      <trkpt lat="48.72444" lon="2.09963">
        <ele>158.75</ele>
        <time>2019-04-06T10:18:08Z</time>
      </trkpt>
      <trkpt lat="48.72449" lon="2.09966">
        <ele>158.27</ele>
        <time>2019-04-06T10:18:31Z</time>
      </trkpt>
      <trkpt lat="48.72447" lon="2.09965">
        <ele>158.27</ele>
        <time>2019-04-06T10:18:50Z</time>
      </trkpt>
      <trkpt lat="48.72445" lon="2.09963">
        <ele>157.79</ele>
        <time>2019-04-06T10:19:01Z</time>
      </trkpt>
      <trkpt lat="48.7244" lon="2.0996">
        <ele>158.75</ele>
        <time>2019-04-06T10:19:22Z</time>
      </trkpt>
      <trkpt lat="48.72441" lon="2.09959">
        <ele>157.79</ele>
        <time>2019-04-06T10:19:39Z</time>
      </trkpt>
      <trkpt lat="48.72444" lon="2.09961">
        <ele>157.79</ele>
        <time>2019-04-06T10:19:54Z</time>
      </trkpt>
      <trkpt lat="48.72442" lon="2.09963">
        <ele>158.27</ele>
        <time>2019-04-06T10:20:13Z</time>
      </trkpt>
      <trkpt lat="48.72444" lon="2.0998">
        <ele>158.75</ele>
        <time>2019-04-06T10:20:24Z</time>
      </trkpt>
      <trkpt lat="48.72436" lon="2.09996">
        <ele>158.27</ele>
        <time>2019-04-06T10:20:37Z</time>
      </trkpt>
      <trkpt lat="48.72434" lon="2.09997">
        <ele>158.75</ele>
        <time>2019-04-06T10:20:39Z</time>
      </trkpt>
      <trkpt lat="48.72428" lon="2.10007">
        <ele>158.75</ele>
        <time>2019-04-06T10:20:50Z</time>
      </trkpt>
      <trkpt lat="48.72425" lon="2.10008">
        <ele>158.75</ele>
        <time>2019-04-06T10:20:53Z</time>
      </trkpt>
      <trkpt lat="48.72419" lon="2.10006">
        <ele>158.27</ele>
        <time>2019-04-06T10:20:59Z</time>
      </trkpt>
      <trkpt lat="48.72414" lon="2.1001">
        <ele>158.27</ele>
        <time>2019-04-06T10:21:05Z</time>
      </trkpt>
      <trkpt lat="48.72412" lon="2.10014">
        <ele>158.75</ele>
        <time>2019-04-06T10:21:10Z</time>
      </trkpt>
      <trkpt lat="48.72409" lon="2.10025">
        <ele>158.75</ele>
        <time>2019-04-06T10:21:17Z</time>
      </trkpt>
      <trkpt lat="48.72409" lon="2.10048">
        <ele>158.27</ele>
        <time>2019-04-06T10:21:33Z</time>
      </trkpt>
      <trkpt lat="48.724" lon="2.10063">
        <ele>158.75</ele>
        <time>2019-04-06T10:21:43Z</time>
      </trkpt>
      <trkpt lat="48.72399" lon="2.10068">
        <ele>158.75</ele>
        <time>2019-04-06T10:21:46Z</time>
      </trkpt>
      <trkpt lat="48.724" lon="2.10076">
        <ele>158.27</ele>
        <time>2019-04-06T10:21:49Z</time>
      </trkpt>
      <trkpt lat="48.72401" lon="2.10079">
        <ele>158.27</ele>
        <time>2019-04-06T10:21:51Z</time>
      </trkpt>
      <trkpt lat="48.72404" lon="2.1008">
        <ele>158.75</ele>
        <time>2019-04-06T10:21:53Z</time>
      </trkpt>
      <trkpt lat="48.72405" lon="2.10083">
        <ele>157.79</ele>
        <time>2019-04-06T10:21:55Z</time>
      </trkpt>
      <trkpt lat="48.72412" lon="2.10089">
        <ele>157.31</ele>
        <time>2019-04-06T10:22:04Z</time>
      </trkpt>
      <trkpt lat="48.72424" lon="2.101">
        <ele>157.31</ele>
        <time>2019-04-06T10:22:17Z</time>
      </trkpt>
      <trkpt lat="48.72425" lon="2.10102">
        <ele>157.31</ele>
        <time>2019-04-06T10:22:18Z</time>
      </trkpt>
      <trkpt lat="48.72427" lon="2.10124">
        <ele>156.35</ele>
        <time>2019-04-06T10:22:32Z</time>
      </trkpt>
      <trkpt lat="48.72417" lon="2.10139">
        <ele>156.35</ele>
        <time>2019-04-06T10:22:42Z</time>
      </trkpt>
      <trkpt lat="48.72411" lon="2.10145">
        <ele>156.35</ele>
        <time>2019-04-06T10:22:51Z</time>
      </trkpt>
      <trkpt lat="48.72408" lon="2.10151">
        <ele>155.87</ele>
        <time>2019-04-06T10:22:54Z</time>
      </trkpt>
      <trkpt lat="48.72398" lon="2.10171">
        <ele>155.87</ele>
        <time>2019-04-06T10:23:03Z</time>
      </trkpt>
      <trkpt lat="48.72384" lon="2.10189">
        <ele>155.87</ele>
        <time>2019-04-06T10:23:15Z</time>
      </trkpt>
      <trkpt lat="48.7237" lon="2.10191">
        <ele>155.39</ele>
        <time>2019-04-06T10:23:28Z</time>
      </trkpt>
      <trkpt lat="48.72355" lon="2.10194">
        <ele>155.87</ele>
        <time>2019-04-06T10:23:41Z</time>
      </trkpt>
      <trkpt lat="48.72354" lon="2.10196">
        <ele>155.87</ele>
        <time>2019-04-06T10:23:42Z</time>
      </trkpt>
      <trkpt lat="48.72353" lon="2.10201">
        <ele>155.39</ele>
        <time>2019-04-06T10:23:44Z</time>
      </trkpt>
      <trkpt lat="48.7234" lon="2.10225">
        <ele>155.87</ele>
        <time>2019-04-06T10:23:58Z</time>
      </trkpt>
      <trkpt lat="48.72329" lon="2.10258">
        <ele>154.91</ele>
        <time>2019-04-06T10:24:18Z</time>
      </trkpt>
      <trkpt lat="48.72329" lon="2.10267">
        <ele>154.43</ele>
        <time>2019-04-06T10:24:22Z</time>
      </trkpt>
      <trkpt lat="48.72334" lon="2.10286">
        <ele>152.51</ele>
        <time>2019-04-06T10:24:31Z</time>
      </trkpt>
      <trkpt lat="48.72332" lon="2.10302">
        <ele>152.51</ele>
        <time>2019-04-06T10:24:42Z</time>
      </trkpt>
      <trkpt lat="48.72331" lon="2.10326">
        <ele>152.99</ele>
        <time>2019-04-06T10:24:55Z</time>
      </trkpt>
      <trkpt lat="48.72328" lon="2.10352">
        <ele>153.47</ele>
        <time>2019-04-06T10:25:10Z</time>
      </trkpt>
      <trkpt lat="48.72327" lon="2.10376">
        <ele>153.47</ele>
        <time>2019-04-06T10:25:23Z</time>
      </trkpt>
      <trkpt lat="48.72324" lon="2.10393">
        <ele>153.47</ele>
        <time>2019-04-06T10:25:33Z</time>
      </trkpt>
      <trkpt lat="48.72322" lon="2.10398">
        <ele>154.43</ele>
        <time>2019-04-06T10:25:36Z</time>
      </trkpt>
      <trkpt lat="48.72308" lon="2.10415">
        <ele>153.95</ele>
        <time>2019-04-06T10:25:53Z</time>
      </trkpt>
      <trkpt lat="48.7229" lon="2.10434">
        <ele>154.91</ele>
        <time>2019-04-06T10:26:07Z</time>
      </trkpt>
      <trkpt lat="48.72275" lon="2.10441">
        <ele>154.43</ele>
        <time>2019-04-06T10:26:21Z</time>
      </trkpt>
      <trkpt lat="48.72257" lon="2.10452">
        <ele>154.91</ele>
        <time>2019-04-06T10:26:38Z</time>
      </trkpt>
      <trkpt lat="48.72242" lon="2.10465">
        <ele>154.43</ele>
        <time>2019-04-06T10:26:52Z</time>
      </trkpt>
      <trkpt lat="48.72227" lon="2.10476">
        <ele>154.91</ele>
        <time>2019-04-06T10:27:04Z</time>
      </trkpt>
      <trkpt lat="48.72215" lon="2.10481">
        <ele>153.47</ele>
        <time>2019-04-06T10:27:16Z</time>
      </trkpt>
      <trkpt lat="48.72195" lon="2.10488">
        <ele>152.03</ele>
        <time>2019-04-06T10:27:30Z</time>
      </trkpt>
      <trkpt lat="48.72193" lon="2.10491">
        <ele>152.03</ele>
        <time>2019-04-06T10:27:33Z</time>
      </trkpt>
      <trkpt lat="48.72177" lon="2.10504">
        <ele>154.43</ele>
        <time>2019-04-06T10:27:48Z</time>
      </trkpt>
      <trkpt lat="48.72164" lon="2.10521">
        <ele>154.43</ele>
        <time>2019-04-06T10:28:01Z</time>
      </trkpt>
      <trkpt lat="48.72149" lon="2.1054">
        <ele>154.43</ele>
        <time>2019-04-06T10:28:13Z</time>
      </trkpt>
      <trkpt lat="48.72145" lon="2.10541">
        <ele>154.91</ele>
        <time>2019-04-06T10:28:17Z</time>
      </trkpt>
      <trkpt lat="48.72138" lon="2.10544">
        <ele>154.43</ele>
        <time>2019-04-06T10:28:25Z</time>
      </trkpt>
      <trkpt lat="48.72128" lon="2.1055">
        <ele>153.47</ele>
        <time>2019-04-06T10:28:34Z</time>
      </trkpt>
      <trkpt lat="48.72127" lon="2.10552">
        <ele>153.47</ele>
        <time>2019-04-06T10:28:35Z</time>
      </trkpt>
      <trkpt lat="48.72111" lon="2.10559">
        <ele>153.47</ele>
        <time>2019-04-06T10:28:46Z</time>
      </trkpt>
      <trkpt lat="48.72094" lon="2.10563">
        <ele>153.95</ele>
        <time>2019-04-06T10:29:00Z</time>
      </trkpt>
      <trkpt lat="48.72088" lon="2.10565">
        <ele>153.95</ele>
        <time>2019-04-06T10:29:03Z</time>
      </trkpt>
      <trkpt lat="48.72075" lon="2.10579">
        <ele>154.91</ele>
        <time>2019-04-06T10:29:14Z</time>
      </trkpt>
      <trkpt lat="48.72072" lon="2.10583">
        <ele>154.43</ele>
        <time>2019-04-06T10:29:17Z</time>
      </trkpt>
      <trkpt lat="48.72067" lon="2.10612">
        <ele>153.95</ele>
        <time>2019-04-06T10:29:31Z</time>
      </trkpt>
      <trkpt lat="48.72056" lon="2.10622">
        <ele>152.51</ele>
        <time>2019-04-06T10:29:43Z</time>
      </trkpt>
      <trkpt lat="48.72042" lon="2.10625">
        <ele>152.99</ele>
        <time>2019-04-06T10:29:56Z</time>
      </trkpt>
      <trkpt lat="48.72039" lon="2.10625">
        <ele>152.51</ele>
        <time>2019-04-06T10:29:58Z</time>
      </trkpt>
      <trkpt lat="48.72034" lon="2.10629">
        <ele>152.51</ele>
        <time>2019-04-06T10:30:02Z</time>
      </trkpt>
      <trkpt lat="48.72025" lon="2.10645">
        <ele>151.06</ele>
        <time>2019-04-06T10:30:09Z</time>
      </trkpt>
      <trkpt lat="48.72015" lon="2.10647">
        <ele>151.54</ele>
        <time>2019-04-06T10:30:15Z</time>
      </trkpt>
      <trkpt lat="48.72004" lon="2.10641">
        <ele>152.03</ele>
        <time>2019-04-06T10:30:26Z</time>
      </trkpt>
      <trkpt lat="48.72001" lon="2.10644">
        <ele>151.54</ele>
        <time>2019-04-06T10:30:29Z</time>
      </trkpt>
      <trkpt lat="48.71988" lon="2.10658">
        <ele>149.14</ele>
        <time>2019-04-06T10:30:40Z</time>
      </trkpt>
      <trkpt lat="48.71977" lon="2.10675">
        <ele>150.1</ele>
        <time>2019-04-06T10:30:53Z</time>
      </trkpt>
      <trkpt lat="48.71969" lon="2.1069">
        <ele>149.14</ele>
        <time>2019-04-06T10:31:03Z</time>
      </trkpt>
      <trkpt lat="48.71963" lon="2.10699">
        <ele>149.62</ele>
        <time>2019-04-06T10:31:07Z</time>
      </trkpt>
      <trkpt lat="48.71957" lon="2.10706">
        <ele>150.1</ele>
        <time>2019-04-06T10:31:11Z</time>
      </trkpt>
      <trkpt lat="48.71951" lon="2.10709">
        <ele>149.62</ele>
        <time>2019-04-06T10:31:16Z</time>
      </trkpt>
      <trkpt lat="48.71932" lon="2.10715">
        <ele>150.58</ele>
        <time>2019-04-06T10:31:33Z</time>
      </trkpt>
      <trkpt lat="48.7191" lon="2.10726">
        <ele>151.54</ele>
        <time>2019-04-06T10:31:49Z</time>
      </trkpt>
      <trkpt lat="48.71891" lon="2.10723">
        <ele>152.99</ele>
        <time>2019-04-06T10:32:04Z</time>
      </trkpt>
      <trkpt lat="48.71885" lon="2.1072">
        <ele>153.47</ele>
        <time>2019-04-06T10:32:09Z</time>
      </trkpt>
      <trkpt lat="48.71874" lon="2.10715">
        <ele>152.51</ele>
        <time>2019-04-06T10:32:20Z</time>
      </trkpt>
      <trkpt lat="48.71864" lon="2.10715">
        <ele>152.03</ele>
        <time>2019-04-06T10:32:28Z</time>
      </trkpt>
      <trkpt lat="48.7185" lon="2.10719">
        <ele>151.06</ele>
        <time>2019-04-06T10:32:40Z</time>
      </trkpt>
      <trkpt lat="48.71849" lon="2.10719">
        <ele>151.06</ele>
        <time>2019-04-06T10:32:41Z</time>
      </trkpt>
      <trkpt lat="48.71834" lon="2.10725">
        <ele>150.1</ele>
        <time>2019-04-06T10:32:51Z</time>
      </trkpt>
      <trkpt lat="48.71833" lon="2.10725">
        <ele>150.1</ele>
        <time>2019-04-06T10:32:52Z</time>
      </trkpt>
      <trkpt lat="48.71822" lon="2.10728">
        <ele>149.62</ele>
        <time>2019-04-06T10:33:01Z</time>
      </trkpt>
      <trkpt lat="48.7181" lon="2.10732">
        <ele>148.66</ele>
        <time>2019-04-06T10:33:12Z</time>
      </trkpt>
      <trkpt lat="48.71793" lon="2.10738">
        <ele>147.22</ele>
        <time>2019-04-06T10:33:22Z</time>
      </trkpt>
      <trkpt lat="48.71788" lon="2.10739">
        <ele>147.22</ele>
        <time>2019-04-06T10:33:25Z</time>
      </trkpt>
      <trkpt lat="48.71782" lon="2.1074">
        <ele>146.26</ele>
        <time>2019-04-06T10:33:32Z</time>
      </trkpt>
      <trkpt lat="48.71775" lon="2.10745">
        <ele>147.22</ele>
        <time>2019-04-06T10:33:37Z</time>
      </trkpt>
      <trkpt lat="48.71764" lon="2.10754">
        <ele>146.74</ele>
        <time>2019-04-06T10:33:51Z</time>
      </trkpt>
      <trkpt lat="48.71753" lon="2.1077">
        <ele>147.22</ele>
        <time>2019-04-06T10:34:04Z</time>
      </trkpt>
      <trkpt lat="48.71743" lon="2.10787">
        <ele>147.22</ele>
        <time>2019-04-06T10:34:18Z</time>
      </trkpt>
      <trkpt lat="48.71726" lon="2.10799">
        <ele>146.26</ele>
        <time>2019-04-06T10:34:32Z</time>
      </trkpt>
      <trkpt lat="48.71724" lon="2.10801">
        <ele>146.26</ele>
        <time>2019-04-06T10:34:34Z</time>
      </trkpt>
      <trkpt lat="48.71711" lon="2.1081">
        <ele>146.74</ele>
        <time>2019-04-06T10:34:47Z</time>
      </trkpt>
      <trkpt lat="48.71701" lon="2.10818">
        <ele>145.78</ele>
        <time>2019-04-06T10:34:58Z</time>
      </trkpt>
      <trkpt lat="48.71693" lon="2.10823">
        <ele>146.74</ele>
        <time>2019-04-06T10:35:06Z</time>
      </trkpt>
      <trkpt lat="48.71684" lon="2.10829">
        <ele>147.22</ele>
        <time>2019-04-06T10:35:17Z</time>
      </trkpt>
      <trkpt lat="48.71684" lon="2.10829">
        <ele>147.22</ele>
        <time>2019-04-06T10:35:18Z</time>
      </trkpt>
      <trkpt lat="48.71673" lon="2.10834">
        <ele>147.7</ele>
        <time>2019-04-06T10:35:30Z</time>
      </trkpt>
      <trkpt lat="48.71671" lon="2.10834">
        <ele>148.18</ele>
        <time>2019-04-06T10:35:40Z</time>
      </trkpt>
      <trkpt lat="48.71672" lon="2.10837">
        <ele>148.18</ele>
        <time>2019-04-06T10:35:56Z</time>
      </trkpt>
      <trkpt lat="48.71667" lon="2.10829">
        <ele>148.18</ele>
        <time>2019-04-06T10:36:08Z</time>
      </trkpt>
      <trkpt lat="48.71665" lon="2.1083">
        <ele>149.14</ele>
        <time>2019-04-06T10:36:16Z</time>
      </trkpt>
      <trkpt lat="48.71656" lon="2.10832">
        <ele>149.14</ele>
        <time>2019-04-06T10:36:28Z</time>
      </trkpt>
      <trkpt lat="48.71645" lon="2.10832">
        <ele>148.66</ele>
        <time>2019-04-06T10:36:40Z</time>
      </trkpt>
      <trkpt lat="48.71634" lon="2.10832">
        <ele>149.14</ele>
        <time>2019-04-06T10:36:53Z</time>
      </trkpt>
      <trkpt lat="48.71624" lon="2.10835">
        <ele>149.62</ele>
        <time>2019-04-06T10:37:06Z</time>
      </trkpt>
      <trkpt lat="48.71624" lon="2.10836">
        <ele>149.62</ele>
        <time>2019-04-06T10:37:07Z</time>
      </trkpt>
      <trkpt lat="48.71623" lon="2.10838">
        <ele>149.62</ele>
        <time>2019-04-06T10:37:18Z</time>
      </trkpt>
      <trkpt lat="48.71625" lon="2.1084">
        <ele>149.14</ele>
        <time>2019-04-06T10:37:32Z</time>
      </trkpt>
      <trkpt lat="48.71625" lon="2.10839">
        <ele>145.78</ele>
        <time>2019-04-06T10:37:35Z</time>
      </trkpt>
      <trkpt lat="48.71625" lon="2.10838">
        <ele>150.1</ele>
        <time>2019-04-06T10:37:36Z</time>
      </trkpt>
      <trkpt lat="48.71625" lon="2.10837">
        <ele>148.66</ele>
        <time>2019-04-06T10:37:37Z</time>
      </trkpt>
      <trkpt lat="48.71624" lon="2.10838">
        <ele>148.18</ele>
        <time>2019-04-06T10:37:40Z</time>
      </trkpt>
      <trkpt lat="48.71625" lon="2.10839">
        <ele>164.52</ele>
        <time>2019-04-06T11:29:11Z</time>
      </trkpt>
      <trkpt lat="48.71648" lon="2.10841">
        <ele>164.52</ele>
        <time>2019-04-06T11:29:12Z</time>
      </trkpt>
      <trkpt lat="48.71644" lon="2.10832">
        <ele>167.41</ele>
        <time>2019-04-06T11:29:24Z</time>
      </trkpt>
      <trkpt lat="48.71633" lon="2.1083">
        <ele>167.41</ele>
        <time>2019-04-06T11:29:42Z</time>
      </trkpt>
      <trkpt lat="48.71637" lon="2.10833">
        <ele>166.45</ele>
        <time>2019-04-06T11:29:59Z</time>
      </trkpt>
      <trkpt lat="48.71639" lon="2.10835">
        <ele>166.45</ele>
        <time>2019-04-06T11:30:26Z</time>
      </trkpt>
      <trkpt lat="48.71646" lon="2.10823">
        <ele>166.93</ele>
        <time>2019-04-06T11:30:47Z</time>
      </trkpt>
      <trkpt lat="48.71645" lon="2.10817">
        <ele>166.45</ele>
        <time>2019-04-06T11:31:08Z</time>
      </trkpt>
      <trkpt lat="48.71643" lon="2.10822">
        <ele>166.45</ele>
        <time>2019-04-06T11:31:28Z</time>
      </trkpt>
      <trkpt lat="48.71639" lon="2.10829">
        <ele>167.41</ele>
        <time>2019-04-06T11:31:50Z</time>
      </trkpt>
      <trkpt lat="48.71641" lon="2.10834">
        <ele>167.41</ele>
        <time>2019-04-06T11:32:17Z</time>
      </trkpt>
      <trkpt lat="48.71641" lon="2.10838">
        <ele>167.89</ele>
        <time>2019-04-06T11:32:38Z</time>
      </trkpt>
      <trkpt lat="48.71637" lon="2.1084">
        <ele>168.37</ele>
        <time>2019-04-06T11:32:55Z</time>
      </trkpt>
      <trkpt lat="48.71626" lon="2.10843">
        <ele>168.37</ele>
        <time>2019-04-06T11:33:10Z</time>
      </trkpt>
      <trkpt lat="48.71614" lon="2.10817">
        <ele>168.37</ele>
        <time>2019-04-06T11:33:27Z</time>
      </trkpt>
      <trkpt lat="48.71614" lon="2.10807">
        <ele>168.85</ele>
        <time>2019-04-06T11:33:57Z</time>
      </trkpt>
      <trkpt lat="48.71629" lon="2.10822">
        <ele>167.41</ele>
        <time>2019-04-06T11:34:10Z</time>
      </trkpt>
      <trkpt lat="48.71635" lon="2.10834">
        <ele>168.37</ele>
        <time>2019-04-06T11:34:24Z</time>
      </trkpt>
      <trkpt lat="48.71624" lon="2.10841">
        <ele>168.37</ele>
        <time>2019-04-06T11:34:52Z</time>
      </trkpt>
      <trkpt lat="48.7162" lon="2.1085">
        <ele>167.41</ele>
        <time>2019-04-06T11:35:20Z</time>
      </trkpt>
      <trkpt lat="48.7161" lon="2.10849">
        <ele>167.41</ele>
        <time>2019-04-06T11:35:43Z</time>
      </trkpt>
      <trkpt lat="48.71615" lon="2.10866">
        <ele>167.41</ele>
        <time>2019-04-06T11:36:16Z</time>
      </trkpt>
      <trkpt lat="48.71615" lon="2.10851">
        <ele>167.89</ele>
        <time>2019-04-06T11:36:49Z</time>
      </trkpt>
      <trkpt lat="48.71619" lon="2.10852">
        <ele>167.41</ele>
        <time>2019-04-06T11:37:08Z</time>
      </trkpt>
      <trkpt lat="48.71615" lon="2.10855">
        <ele>167.89</ele>
        <time>2019-04-06T11:37:29Z</time>
      </trkpt>
      <trkpt lat="48.7161" lon="2.10862">
        <ele>168.37</ele>
        <time>2019-04-06T11:37:44Z</time>
      </trkpt>
      <trkpt lat="48.71609" lon="2.10875">
        <ele>168.37</ele>
        <time>2019-04-06T11:38:00Z</time>
      </trkpt>
      <trkpt lat="48.71607" lon="2.10892">
        <ele>166.93</ele>
        <time>2019-04-06T11:38:16Z</time>
      </trkpt>
      <trkpt lat="48.716" lon="2.109">
        <ele>168.37</ele>
        <time>2019-04-06T11:38:30Z</time>
      </trkpt>
      <trkpt lat="48.71595" lon="2.10903">
        <ele>169.33</ele>
        <time>2019-04-06T11:38:42Z</time>
      </trkpt>
      <trkpt lat="48.71595" lon="2.10907">
        <ele>169.81</ele>
        <time>2019-04-06T11:38:56Z</time>
      </trkpt>
      <trkpt lat="48.71599" lon="2.10909">
        <ele>169.81</ele>
        <time>2019-04-06T11:39:17Z</time>
      </trkpt>
      <trkpt lat="48.716" lon="2.10905">
        <ele>169.81</ele>
        <time>2019-04-06T11:39:45Z</time>
      </trkpt>
      <trkpt lat="48.71606" lon="2.10906">
        <ele>169.33</ele>
        <time>2019-04-06T11:40:12Z</time>
      </trkpt>
      <trkpt lat="48.71582" lon="2.10912">
        <ele>169.81</ele>
        <time>2019-04-06T11:40:35Z</time>
      </trkpt>
      <trkpt lat="48.71574" lon="2.10922">
        <ele>168.85</ele>
        <time>2019-04-06T11:40:50Z</time>
      </trkpt>
      <trkpt lat="48.71569" lon="2.10929">
        <ele>169.33</ele>
        <time>2019-04-06T11:41:00Z</time>
      </trkpt>
      <trkpt lat="48.71568" lon="2.10943">
        <ele>170.77</ele>
        <time>2019-04-06T11:41:13Z</time>
      </trkpt>
      <trkpt lat="48.71571" lon="2.1095">
        <ele>170.29</ele>
        <time>2019-04-06T11:41:18Z</time>
      </trkpt>
      <trkpt lat="48.71574" lon="2.10964">
        <ele>171.73</ele>
        <time>2019-04-06T11:41:29Z</time>
      </trkpt>
      <trkpt lat="48.71575" lon="2.10967">
        <ele>171.25</ele>
        <time>2019-04-06T11:41:30Z</time>
      </trkpt>
      <trkpt lat="48.71577" lon="2.10978">
        <ele>171.73</ele>
        <time>2019-04-06T11:41:36Z</time>
      </trkpt>
      <trkpt lat="48.71575" lon="2.10995">
        <ele>172.21</ele>
        <time>2019-04-06T11:41:49Z</time>
      </trkpt>
      <trkpt lat="48.71569" lon="2.11013">
        <ele>172.21</ele>
        <time>2019-04-06T11:42:01Z</time>
      </trkpt>
      <trkpt lat="48.71567" lon="2.11035">
        <ele>172.21</ele>
        <time>2019-04-06T11:42:16Z</time>
      </trkpt>
      <trkpt lat="48.71564" lon="2.11055">
        <ele>171.73</ele>
        <time>2019-04-06T11:42:29Z</time>
      </trkpt>
      <trkpt lat="48.71555" lon="2.11082">
        <ele>169.33</ele>
        <time>2019-04-06T11:42:45Z</time>
      </trkpt>
      <trkpt lat="48.71553" lon="2.11092">
        <ele>171.73</ele>
        <time>2019-04-06T11:42:54Z</time>
      </trkpt>
      <trkpt lat="48.71551" lon="2.11097">
        <ele>171.73</ele>
        <time>2019-04-06T11:42:57Z</time>
      </trkpt>
      <trkpt lat="48.71549" lon="2.11115">
        <ele>172.21</ele>
        <time>2019-04-06T11:43:10Z</time>
      </trkpt>
      <trkpt lat="48.71544" lon="2.1114">
        <ele>172.69</ele>
        <time>2019-04-06T11:43:21Z</time>
      </trkpt>
      <trkpt lat="48.71537" lon="2.11165">
        <ele>171.25</ele>
        <time>2019-04-06T11:43:37Z</time>
      </trkpt>
      <trkpt lat="48.71534" lon="2.11173">
        <ele>167.89</ele>
        <time>2019-04-06T11:43:46Z</time>
      </trkpt>
      <trkpt lat="48.71532" lon="2.11188">
        <ele>165.96</ele>
        <time>2019-04-06T11:43:56Z</time>
      </trkpt>
      <trkpt lat="48.71526" lon="2.11208">
        <ele>165</ele>
        <time>2019-04-06T11:44:06Z</time>
      </trkpt>
      <trkpt lat="48.71522" lon="2.1123">
        <ele>164.52</ele>
        <time>2019-04-06T11:44:17Z</time>
      </trkpt>
      <trkpt lat="48.71519" lon="2.11246">
        <ele>163.08</ele>
        <time>2019-04-06T11:44:27Z</time>
      </trkpt>
      <trkpt lat="48.71517" lon="2.11273">
        <ele>162.12</ele>
        <time>2019-04-06T11:44:36Z</time>
      </trkpt>
      <trkpt lat="48.71517" lon="2.11286">
        <ele>161.16</ele>
        <time>2019-04-06T11:44:45Z</time>
      </trkpt>
      <trkpt lat="48.71513" lon="2.11299">
        <ele>160.2</ele>
        <time>2019-04-06T11:44:55Z</time>
      </trkpt>
      <trkpt lat="48.71508" lon="2.11322">
        <ele>159.72</ele>
        <time>2019-04-06T11:45:08Z</time>
      </trkpt>
      <trkpt lat="48.7151" lon="2.1134">
        <ele>159.72</ele>
        <time>2019-04-06T11:45:17Z</time>
      </trkpt>
      <trkpt lat="48.71511" lon="2.1136">
        <ele>159.24</ele>
        <time>2019-04-06T11:45:26Z</time>
      </trkpt>
      <trkpt lat="48.71511" lon="2.11365">
        <ele>159.72</ele>
        <time>2019-04-06T11:45:29Z</time>
      </trkpt>
      <trkpt lat="48.71506" lon="2.11383">
        <ele>157.79</ele>
        <time>2019-04-06T11:45:41Z</time>
      </trkpt>
      <trkpt lat="48.71506" lon="2.1139">
        <ele>157.31</ele>
        <time>2019-04-06T11:45:44Z</time>
      </trkpt>
      <trkpt lat="48.71501" lon="2.11393">
        <ele>156.35</ele>
        <time>2019-04-06T11:45:49Z</time>
      </trkpt>
      <trkpt lat="48.71502" lon="2.11387">
        <ele>155.39</ele>
        <time>2019-04-06T11:45:55Z</time>
      </trkpt>
      <trkpt lat="48.715" lon="2.11375">
        <ele>154.43</ele>
        <time>2019-04-06T11:46:01Z</time>
      </trkpt>
      <trkpt lat="48.71499" lon="2.11371">
        <ele>154.91</ele>
        <time>2019-04-06T11:46:03Z</time>
      </trkpt>
      <trkpt lat="48.71496" lon="2.11357">
        <ele>152.99</ele>
        <time>2019-04-06T11:46:15Z</time>
      </trkpt>
      <trkpt lat="48.71496" lon="2.11356">
        <ele>152.99</ele>
        <time>2019-04-06T11:46:16Z</time>
      </trkpt>
      <trkpt lat="48.71496" lon="2.11348">
        <ele>152.03</ele>
        <time>2019-04-06T11:46:23Z</time>
      </trkpt>
      <trkpt lat="48.71494" lon="2.11326">
        <ele>149.14</ele>
        <time>2019-04-06T11:46:35Z</time>
      </trkpt>
      <trkpt lat="48.71497" lon="2.11311">
        <ele>147.7</ele>
        <time>2019-04-06T11:46:43Z</time>
      </trkpt>
      <trkpt lat="48.71498" lon="2.11302">
        <ele>145.78</ele>
        <time>2019-04-06T11:46:57Z</time>
      </trkpt>
      <trkpt lat="48.71494" lon="2.11292">
        <ele>143.85</ele>
        <time>2019-04-06T11:47:07Z</time>
      </trkpt>
      <trkpt lat="48.71493" lon="2.11289">
        <ele>143.37</ele>
        <time>2019-04-06T11:47:08Z</time>
      </trkpt>
      <trkpt lat="48.71492" lon="2.11287">
        <ele>142.89</ele>
        <time>2019-04-06T11:47:09Z</time>
      </trkpt>
      <trkpt lat="48.71489" lon="2.11285">
        <ele>143.37</ele>
        <time>2019-04-06T11:47:11Z</time>
      </trkpt>
      <trkpt lat="48.71488" lon="2.11285">
        <ele>142.89</ele>
        <time>2019-04-06T11:47:12Z</time>
      </trkpt>
      <trkpt lat="48.71484" lon="2.11287">
        <ele>141.93</ele>
        <time>2019-04-06T11:47:28Z</time>
      </trkpt>
      <trkpt lat="48.71481" lon="2.11293">
        <ele>139.05</ele>
        <time>2019-04-06T11:47:38Z</time>
      </trkpt>
      <trkpt lat="48.71476" lon="2.11316">
        <ele>136.16</ele>
        <time>2019-04-06T11:47:51Z</time>
      </trkpt>
      <trkpt lat="48.71476" lon="2.11322">
        <ele>134.24</ele>
        <time>2019-04-06T11:48:01Z</time>
      </trkpt>
      <trkpt lat="48.71474" lon="2.11331">
        <ele>134.24</ele>
        <time>2019-04-06T11:48:05Z</time>
      </trkpt>
      <trkpt lat="48.71473" lon="2.11335">
        <ele>133.76</ele>
        <time>2019-04-06T11:48:06Z</time>
      </trkpt>
      <trkpt lat="48.71471" lon="2.11339">
        <ele>132.8</ele>
        <time>2019-04-06T11:48:08Z</time>
      </trkpt>
      <trkpt lat="48.71469" lon="2.11341">
        <ele>132.32</ele>
        <time>2019-04-06T11:48:10Z</time>
      </trkpt>
      <trkpt lat="48.7146" lon="2.11351">
        <ele>130.88</ele>
        <time>2019-04-06T11:48:15Z</time>
      </trkpt>
      <trkpt lat="48.71459" lon="2.11353">
        <ele>130.88</ele>
        <time>2019-04-06T11:48:16Z</time>
      </trkpt>
      <trkpt lat="48.71456" lon="2.11362">
        <ele>129.92</ele>
        <time>2019-04-06T11:48:22Z</time>
      </trkpt>
      <trkpt lat="48.71455" lon="2.11363">
        <ele>129.43</ele>
        <time>2019-04-06T11:48:23Z</time>
      </trkpt>
      <trkpt lat="48.71454" lon="2.11365">
        <ele>128.95</ele>
        <time>2019-04-06T11:48:24Z</time>
      </trkpt>
      <trkpt lat="48.71448" lon="2.11383">
        <ele>126.55</ele>
        <time>2019-04-06T11:48:38Z</time>
      </trkpt>
      <trkpt lat="48.71439" lon="2.11408">
        <ele>122.71</ele>
        <time>2019-04-06T11:48:51Z</time>
      </trkpt>
      <trkpt lat="48.71427" lon="2.11419">
        <ele>120.78</ele>
        <time>2019-04-06T11:49:01Z</time>
      </trkpt>
      <trkpt lat="48.71416" lon="2.11426">
        <ele>120.3</ele>
        <time>2019-04-06T11:49:11Z</time>
      </trkpt>
      <trkpt lat="48.71412" lon="2.11438">
        <ele>121.26</ele>
        <time>2019-04-06T11:49:22Z</time>
      </trkpt>
      <trkpt lat="48.7141" lon="2.11446">
        <ele>121.26</ele>
        <time>2019-04-06T11:49:31Z</time>
      </trkpt>
      <trkpt lat="48.71402" lon="2.11458">
        <ele>121.74</ele>
        <time>2019-04-06T11:49:47Z</time>
      </trkpt>
      <trkpt lat="48.71392" lon="2.11474">
        <ele>121.74</ele>
        <time>2019-04-06T11:49:54Z</time>
      </trkpt>
      <trkpt lat="48.71377" lon="2.11477">
        <ele>123.67</ele>
        <time>2019-04-06T11:50:09Z</time>
      </trkpt>
      <trkpt lat="48.7136" lon="2.11504">
        <ele>121.74</ele>
        <time>2019-04-06T11:50:27Z</time>
      </trkpt>
      <trkpt lat="48.71347" lon="2.11515">
        <ele>122.71</ele>
        <time>2019-04-06T11:50:44Z</time>
      </trkpt>
      <trkpt lat="48.71341" lon="2.11525">
        <ele>121.74</ele>
        <time>2019-04-06T11:50:48Z</time>
      </trkpt>
      <trkpt lat="48.7134" lon="2.11527">
        <ele>122.22</ele>
        <time>2019-04-06T11:50:49Z</time>
      </trkpt>
      <trkpt lat="48.71339" lon="2.11527">
        <ele>122.22</ele>
        <time>2019-04-06T11:50:50Z</time>
      </trkpt>
      <trkpt lat="48.71328" lon="2.1154">
        <ele>123.67</ele>
        <time>2019-04-06T11:51:03Z</time>
      </trkpt>
      <trkpt lat="48.71327" lon="2.1154">
        <ele>124.15</ele>
        <time>2019-04-06T11:51:04Z</time>
      </trkpt>
      <trkpt lat="48.71323" lon="2.11545">
        <ele>124.63</ele>
        <time>2019-04-06T11:51:09Z</time>
      </trkpt>
      <trkpt lat="48.71313" lon="2.11561">
        <ele>123.19</ele>
        <time>2019-04-06T11:51:23Z</time>
      </trkpt>
      <trkpt lat="48.71306" lon="2.11574">
        <ele>122.71</ele>
        <time>2019-04-06T11:51:34Z</time>
      </trkpt>
      <trkpt lat="48.71305" lon="2.11574">
        <ele>122.71</ele>
        <time>2019-04-06T11:51:35Z</time>
      </trkpt>
      <trkpt lat="48.71293" lon="2.11596">
        <ele>123.19</ele>
        <time>2019-04-06T11:51:51Z</time>
      </trkpt>
      <trkpt lat="48.71291" lon="2.11605">
        <ele>123.67</ele>
        <time>2019-04-06T11:51:57Z</time>
      </trkpt>
      <trkpt lat="48.71276" lon="2.11626">
        <ele>123.19</ele>
        <time>2019-04-06T11:52:11Z</time>
      </trkpt>
      <trkpt lat="48.71273" lon="2.11651">
        <ele>122.71</ele>
        <time>2019-04-06T11:52:27Z</time>
      </trkpt>
      <trkpt lat="48.71264" lon="2.11675">
        <ele>121.26</ele>
        <time>2019-04-06T11:52:42Z</time>
      </trkpt>
      <trkpt lat="48.7126" lon="2.1168">
        <ele>120.78</ele>
        <time>2019-04-06T11:52:46Z</time>
      </trkpt>
      <trkpt lat="48.71249" lon="2.11703">
        <ele>119.82</ele>
        <time>2019-04-06T11:53:01Z</time>
      </trkpt>
      <trkpt lat="48.71235" lon="2.1173">
        <ele>119.34</ele>
        <time>2019-04-06T11:53:17Z</time>
      </trkpt>
      <trkpt lat="48.7122" lon="2.1175">
        <ele>118.86</ele>
        <time>2019-04-06T11:53:35Z</time>
      </trkpt>
      <trkpt lat="48.7121" lon="2.11768">
        <ele>118.86</ele>
        <time>2019-04-06T11:53:51Z</time>
      </trkpt>
      <trkpt lat="48.712" lon="2.118">
        <ele>118.38</ele>
        <time>2019-04-06T11:54:08Z</time>
      </trkpt>
      <trkpt lat="48.71182" lon="2.1182">
        <ele>117.9</ele>
        <time>2019-04-06T11:54:25Z</time>
      </trkpt>
      <trkpt lat="48.71169" lon="2.11827">
        <ele>117.9</ele>
        <time>2019-04-06T11:54:35Z</time>
      </trkpt>
      <trkpt lat="48.71148" lon="2.11841">
        <ele>117.9</ele>
        <time>2019-04-06T11:54:53Z</time>
      </trkpt>
      <trkpt lat="48.71123" lon="2.11856">
        <ele>115.5</ele>
        <time>2019-04-06T11:55:14Z</time>
      </trkpt>
      <trkpt lat="48.71101" lon="2.11856">
        <ele>114.53</ele>
        <time>2019-04-06T11:55:31Z</time>
      </trkpt>
      <trkpt lat="48.71093" lon="2.11858">
        <ele>114.53</ele>
        <time>2019-04-06T11:55:38Z</time>
      </trkpt>
      <trkpt lat="48.71075" lon="2.11857">
        <ele>115.5</ele>
        <time>2019-04-06T11:55:56Z</time>
      </trkpt>
      <trkpt lat="48.71061" lon="2.11852">
        <ele>115.5</ele>
        <time>2019-04-06T11:56:08Z</time>
      </trkpt>
      <trkpt lat="48.71046" lon="2.11849">
        <ele>116.46</ele>
        <time>2019-04-06T11:56:25Z</time>
      </trkpt>
      <trkpt lat="48.71037" lon="2.11836">
        <ele>118.38</ele>
        <time>2019-04-06T11:56:40Z</time>
      </trkpt>
      <trkpt lat="48.71029" lon="2.11823">
        <ele>121.26</ele>
        <time>2019-04-06T11:56:54Z</time>
      </trkpt>
      <trkpt lat="48.71022" lon="2.11809">
        <ele>123.19</ele>
        <time>2019-04-06T11:57:06Z</time>
      </trkpt>
      <trkpt lat="48.71014" lon="2.11789">
        <ele>123.19</ele>
        <time>2019-04-06T11:57:18Z</time>
      </trkpt>
      <trkpt lat="48.71001" lon="2.11774">
        <ele>121.26</ele>
        <time>2019-04-06T11:57:36Z</time>
      </trkpt>
      <trkpt lat="48.7098" lon="2.11763">
        <ele>122.22</ele>
        <time>2019-04-06T11:57:54Z</time>
      </trkpt>
      <trkpt lat="48.70964" lon="2.11756">
        <ele>120.78</ele>
        <time>2019-04-06T11:58:09Z</time>
      </trkpt>
      <trkpt lat="48.70953" lon="2.11747">
        <ele>118.86</ele>
        <time>2019-04-06T11:58:19Z</time>
      </trkpt>
      <trkpt lat="48.70946" lon="2.1173">
        <ele>117.9</ele>
        <time>2019-04-06T11:58:32Z</time>
      </trkpt>
      <trkpt lat="48.70936" lon="2.1172">
        <ele>116.94</ele>
        <time>2019-04-06T11:58:43Z</time>
      </trkpt>
      <trkpt lat="48.7093" lon="2.11719">
        <ele>116.94</ele>
        <time>2019-04-06T11:58:47Z</time>
      </trkpt>
      <trkpt lat="48.70924" lon="2.11719">
        <ele>116.94</ele>
        <time>2019-04-06T11:58:51Z</time>
      </trkpt>
      <trkpt lat="48.70914" lon="2.11711">
        <ele>117.42</ele>
        <time>2019-04-06T11:59:02Z</time>
      </trkpt>
      <trkpt lat="48.70885" lon="2.11712">
        <ele>117.42</ele>
        <time>2019-04-06T11:59:15Z</time>
      </trkpt>
      <trkpt lat="48.70881" lon="2.11714">
        <ele>118.38</ele>
        <time>2019-04-06T11:59:17Z</time>
      </trkpt>
      <trkpt lat="48.70876" lon="2.11718">
        <ele>117.42</ele>
        <time>2019-04-06T11:59:21Z</time>
      </trkpt>
      <trkpt lat="48.70873" lon="2.11725">
        <ele>116.94</ele>
        <time>2019-04-06T11:59:26Z</time>
      </trkpt>
      <trkpt lat="48.70869" lon="2.11729">
        <ele>116.94</ele>
        <time>2019-04-06T11:59:31Z</time>
      </trkpt>
      <trkpt lat="48.70859" lon="2.11731">
        <ele>118.38</ele>
        <time>2019-04-06T11:59:42Z</time>
      </trkpt>
      <trkpt lat="48.70854" lon="2.11734">
        <ele>118.38</ele>
        <time>2019-04-06T11:59:46Z</time>
      </trkpt>
      <trkpt lat="48.70847" lon="2.11751">
        <ele>118.38</ele>
        <time>2019-04-06T11:59:59Z</time>
      </trkpt>
      <trkpt lat="48.7084" lon="2.11771">
        <ele>119.34</ele>
        <time>2019-04-06T12:00:09Z</time>
      </trkpt>
      <trkpt lat="48.70838" lon="2.11793">
        <ele>117.42</ele>
        <time>2019-04-06T12:00:22Z</time>
      </trkpt>
      <trkpt lat="48.70837" lon="2.11811">
        <ele>116.94</ele>
        <time>2019-04-06T12:00:34Z</time>
      </trkpt>
      <trkpt lat="48.70833" lon="2.11822">
        <ele>117.42</ele>
        <time>2019-04-06T12:00:42Z</time>
      </trkpt>
      <trkpt lat="48.70829" lon="2.11827">
        <ele>118.38</ele>
        <time>2019-04-06T12:00:47Z</time>
      </trkpt>
      <trkpt lat="48.70818" lon="2.1184">
        <ele>120.78</ele>
        <time>2019-04-06T12:01:00Z</time>
      </trkpt>
      <trkpt lat="48.70808" lon="2.11844">
        <ele>121.26</ele>
        <time>2019-04-06T12:01:11Z</time>
      </trkpt>
      <trkpt lat="48.70801" lon="2.11848">
        <ele>124.15</ele>
        <time>2019-04-06T12:01:25Z</time>
      </trkpt>
      <trkpt lat="48.70792" lon="2.11845">
        <ele>127.03</ele>
        <time>2019-04-06T12:01:38Z</time>
      </trkpt>
      <trkpt lat="48.70778" lon="2.11839">
        <ele>130.4</ele>
        <time>2019-04-06T12:01:53Z</time>
      </trkpt>
      <trkpt lat="48.70765" lon="2.1184">
        <ele>132.8</ele>
        <time>2019-04-06T12:02:06Z</time>
      </trkpt>
      <trkpt lat="48.70755" lon="2.11843">
        <ele>133.76</ele>
        <time>2019-04-06T12:02:13Z</time>
      </trkpt>
      <trkpt lat="48.70749" lon="2.11861">
        <ele>132.8</ele>
        <time>2019-04-06T12:02:26Z</time>
      </trkpt>
      <trkpt lat="48.70745" lon="2.11874">
        <ele>132.32</ele>
        <time>2019-04-06T12:02:34Z</time>
      </trkpt>
      <trkpt lat="48.70738" lon="2.11893">
        <ele>131.36</ele>
        <time>2019-04-06T12:02:46Z</time>
      </trkpt>
      <trkpt lat="48.70728" lon="2.11893">
        <ele>131.36</ele>
        <time>2019-04-06T12:02:58Z</time>
      </trkpt>
      <trkpt lat="48.70716" lon="2.11897">
        <ele>131.36</ele>
        <time>2019-04-06T12:03:07Z</time>
      </trkpt>
      <trkpt lat="48.70712" lon="2.11899">
        <ele>130.4</ele>
        <time>2019-04-06T12:03:13Z</time>
      </trkpt>
      <trkpt lat="48.70709" lon="2.119">
        <ele>130.88</ele>
        <time>2019-04-06T12:03:15Z</time>
      </trkpt>
      <trkpt lat="48.70699" lon="2.11902">
        <ele>129.43</ele>
        <time>2019-04-06T12:03:25Z</time>
      </trkpt>
      <trkpt lat="48.70691" lon="2.11902">
        <ele>126.55</ele>
        <time>2019-04-06T12:03:37Z</time>
      </trkpt>
      <trkpt lat="48.70685" lon="2.11907">
        <ele>123.67</ele>
        <time>2019-04-06T12:03:44Z</time>
      </trkpt>
      <trkpt lat="48.70672" lon="2.11919">
        <ele>120.78</ele>
        <time>2019-04-06T12:03:56Z</time>
      </trkpt>
      <trkpt lat="48.70669" lon="2.11923">
        <ele>119.82</ele>
        <time>2019-04-06T12:03:58Z</time>
      </trkpt>
      <trkpt lat="48.70658" lon="2.11944">
        <ele>119.82</ele>
        <time>2019-04-06T12:04:09Z</time>
      </trkpt>
      <trkpt lat="48.7065" lon="2.11954">
        <ele>118.86</ele>
        <time>2019-04-06T12:04:24Z</time>
      </trkpt>
      <trkpt lat="48.70646" lon="2.1195">
        <ele>117.9</ele>
        <time>2019-04-06T12:04:51Z</time>
      </trkpt>
      <trkpt lat="48.70644" lon="2.1195">
        <ele>117.42</ele>
        <time>2019-04-06T12:04:53Z</time>
      </trkpt>
      <trkpt lat="48.70636" lon="2.11951">
        <ele>115.5</ele>
        <time>2019-04-06T12:04:59Z</time>
      </trkpt>
      <trkpt lat="48.70634" lon="2.11951">
        <ele>114.53</ele>
        <time>2019-04-06T12:05:01Z</time>
      </trkpt>
      <trkpt lat="48.7063" lon="2.11952">
        <ele>113.09</ele>
        <time>2019-04-06T12:05:04Z</time>
      </trkpt>
      <trkpt lat="48.70627" lon="2.11953">
        <ele>112.61</ele>
        <time>2019-04-06T12:05:06Z</time>
      </trkpt>
      <trkpt lat="48.70618" lon="2.11952">
        <ele>109.25</ele>
        <time>2019-04-06T12:05:14Z</time>
      </trkpt>
      <trkpt lat="48.70617" lon="2.11953">
        <ele>109.25</ele>
        <time>2019-04-06T12:05:15Z</time>
      </trkpt>
      <trkpt lat="48.70613" lon="2.11963">
        <ele>108.29</ele>
        <time>2019-04-06T12:05:27Z</time>
      </trkpt>
      <trkpt lat="48.70613" lon="2.11957">
        <ele>108.77</ele>
        <time>2019-04-06T12:05:44Z</time>
      </trkpt>
      <trkpt lat="48.70612" lon="2.11953">
        <ele>108.29</ele>
        <time>2019-04-06T12:05:45Z</time>
      </trkpt>
      <trkpt lat="48.70611" lon="2.11951">
        <ele>108.29</ele>
        <time>2019-04-06T12:05:46Z</time>
      </trkpt>
      <trkpt lat="48.7061" lon="2.11948">
        <ele>108.29</ele>
        <time>2019-04-06T12:05:47Z</time>
      </trkpt>
      <trkpt lat="48.70609" lon="2.11945">
        <ele>107.81</ele>
        <time>2019-04-06T12:05:48Z</time>
      </trkpt>
      <trkpt lat="48.70602" lon="2.11926">
        <ele>109.25</ele>
        <time>2019-04-06T12:06:00Z</time>
      </trkpt>
      <trkpt lat="48.70598" lon="2.11916">
        <ele>109.25</ele>
        <time>2019-04-06T12:06:07Z</time>
      </trkpt>
      <trkpt lat="48.70597" lon="2.11915">
        <ele>109.25</ele>
        <time>2019-04-06T12:06:08Z</time>
      </trkpt>
      <trkpt lat="48.70595" lon="2.11914">
        <ele>109.25</ele>
        <time>2019-04-06T12:06:09Z</time>
      </trkpt>
      <trkpt lat="48.70586" lon="2.11914">
        <ele>108.29</ele>
        <time>2019-04-06T12:06:17Z</time>
      </trkpt>
      <trkpt lat="48.70565" lon="2.11925">
        <ele>105.88</ele>
        <time>2019-04-06T12:06:29Z</time>
      </trkpt>
      <trkpt lat="48.70558" lon="2.11929">
        <ele>104.44</ele>
        <time>2019-04-06T12:06:41Z</time>
      </trkpt>
      <trkpt lat="48.70556" lon="2.11931">
        <ele>103.48</ele>
        <time>2019-04-06T12:06:44Z</time>
      </trkpt>
      <trkpt lat="48.70552" lon="2.11931">
        <ele>103</ele>
        <time>2019-04-06T12:06:48Z</time>
      </trkpt>
      <trkpt lat="48.70547" lon="2.11931">
        <ele>103</ele>
        <time>2019-04-06T12:06:51Z</time>
      </trkpt>
      <trkpt lat="48.70543" lon="2.11931">
        <ele>103.48</ele>
        <time>2019-04-06T12:06:56Z</time>
      </trkpt>
      <trkpt lat="48.70527" lon="2.11913">
        <ele>102.52</ele>
        <time>2019-04-06T12:07:12Z</time>
      </trkpt>
      <trkpt lat="48.70526" lon="2.11912">
        <ele>102.52</ele>
        <time>2019-04-06T12:07:13Z</time>
      </trkpt>
      <trkpt lat="48.70518" lon="2.11895">
        <ele>102.04</ele>
        <time>2019-04-06T12:07:21Z</time>
      </trkpt>
      <trkpt lat="48.70515" lon="2.11886">
        <ele>101.08</ele>
        <time>2019-04-06T12:07:28Z</time>
      </trkpt>
      <trkpt lat="48.70514" lon="2.11884">
        <ele>100.6</ele>
        <time>2019-04-06T12:07:29Z</time>
      </trkpt>
      <trkpt lat="48.70514" lon="2.11882">
        <ele>101.08</ele>
        <time>2019-04-06T12:07:30Z</time>
      </trkpt>
      <trkpt lat="48.70513" lon="2.1188">
        <ele>101.08</ele>
        <time>2019-04-06T12:07:31Z</time>
      </trkpt>
      <trkpt lat="48.70513" lon="2.11877">
        <ele>101.08</ele>
        <time>2019-04-06T12:07:32Z</time>
      </trkpt>
      <trkpt lat="48.70512" lon="2.11875">
        <ele>101.08</ele>
        <time>2019-04-06T12:07:33Z</time>
      </trkpt>
      <trkpt lat="48.70512" lon="2.11873">
        <ele>101.08</ele>
        <time>2019-04-06T12:07:34Z</time>
      </trkpt>
      <trkpt lat="48.70505" lon="2.11857">
        <ele>100.11</ele>
        <time>2019-04-06T12:07:48Z</time>
      </trkpt>
      <trkpt lat="48.70501" lon="2.11852">
        <ele>100.11</ele>
        <time>2019-04-06T12:07:52Z</time>
      </trkpt>
      <trkpt lat="48.705" lon="2.11851">
        <ele>99.63</ele>
        <time>2019-04-06T12:07:53Z</time>
      </trkpt>
      <trkpt lat="48.70495" lon="2.11839">
        <ele>99.63</ele>
        <time>2019-04-06T12:08:01Z</time>
      </trkpt>
      <trkpt lat="48.70494" lon="2.11837">
        <ele>99.63</ele>
        <time>2019-04-06T12:08:02Z</time>
      </trkpt>
      <trkpt lat="48.70486" lon="2.11819">
        <ele>99.15</ele>
        <time>2019-04-06T12:08:13Z</time>
      </trkpt>
      <trkpt lat="48.70486" lon="2.11817">
        <ele>99.15</ele>
        <time>2019-04-06T12:08:14Z</time>
      </trkpt>
      <trkpt lat="48.70486" lon="2.11814">
        <ele>99.15</ele>
        <time>2019-04-06T12:08:15Z</time>
      </trkpt>
      <trkpt lat="48.70485" lon="2.11811">
        <ele>99.15</ele>
        <time>2019-04-06T12:08:16Z</time>
      </trkpt>
      <trkpt lat="48.70485" lon="2.118">
        <ele>98.67</ele>
        <time>2019-04-06T12:08:25Z</time>
      </trkpt>
      <trkpt lat="48.70484" lon="2.11797">
        <ele>99.15</ele>
        <time>2019-04-06T12:08:26Z</time>
      </trkpt>
      <trkpt lat="48.70484" lon="2.11794">
        <ele>99.15</ele>
        <time>2019-04-06T12:08:27Z</time>
      </trkpt>
      <trkpt lat="48.70483" lon="2.11791">
        <ele>98.67</ele>
        <time>2019-04-06T12:08:28Z</time>
      </trkpt>
      <trkpt lat="48.70478" lon="2.1178">
        <ele>98.19</ele>
        <time>2019-04-06T12:08:36Z</time>
      </trkpt>
      <trkpt lat="48.70477" lon="2.11781">
        <ele>97.71</ele>
        <time>2019-04-06T12:08:37Z</time>
      </trkpt>
      <trkpt lat="48.70475" lon="2.11782">
        <ele>98.19</ele>
        <time>2019-04-06T12:08:38Z</time>
      </trkpt>
      <trkpt lat="48.70474" lon="2.11783">
        <ele>97.71</ele>
        <time>2019-04-06T12:08:39Z</time>
      </trkpt>
      <trkpt lat="48.70472" lon="2.11783">
        <ele>98.67</ele>
        <time>2019-04-06T12:08:43Z</time>
      </trkpt>
      <trkpt lat="48.7047" lon="2.11783">
        <ele>97.71</ele>
        <time>2019-04-06T12:08:45Z</time>
      </trkpt>
      <trkpt lat="48.70467" lon="2.11786">
        <ele>98.67</ele>
        <time>2019-04-06T12:08:48Z</time>
      </trkpt>
      <trkpt lat="48.70467" lon="2.11788">
        <ele>97.71</ele>
        <time>2019-04-06T12:08:50Z</time>
      </trkpt>
      <trkpt lat="48.70467" lon="2.1179">
        <ele>97.71</ele>
        <time>2019-04-06T12:08:51Z</time>
      </trkpt>
      <trkpt lat="48.70469" lon="2.11808">
        <ele>98.19</ele>
        <time>2019-04-06T12:09:01Z</time>
      </trkpt>
      <trkpt lat="48.70475" lon="2.11835">
        <ele>98.67</ele>
        <time>2019-04-06T12:09:15Z</time>
      </trkpt>
      <trkpt lat="48.70477" lon="2.11852">
        <ele>98.67</ele>
        <time>2019-04-06T12:09:24Z</time>
      </trkpt>
      <trkpt lat="48.70472" lon="2.11863">
        <ele>98.67</ele>
        <time>2019-04-06T12:09:30Z</time>
      </trkpt>
      <trkpt lat="48.70469" lon="2.11867">
        <ele>98.19</ele>
        <time>2019-04-06T12:09:34Z</time>
      </trkpt>
      <trkpt lat="48.70468" lon="2.11869">
        <ele>98.19</ele>
        <time>2019-04-06T12:09:35Z</time>
      </trkpt>
      <trkpt lat="48.70465" lon="2.11885">
        <ele>97.71</ele>
        <time>2019-04-06T12:09:43Z</time>
      </trkpt>
      <trkpt lat="48.70467" lon="2.11913">
        <ele>96.27</ele>
        <time>2019-04-06T12:09:56Z</time>
      </trkpt>
      <trkpt lat="48.7047" lon="2.11932">
        <ele>95.79</ele>
        <time>2019-04-06T12:10:07Z</time>
      </trkpt>
      <trkpt lat="48.70471" lon="2.1194">
        <ele>96.75</ele>
        <time>2019-04-06T12:10:12Z</time>
      </trkpt>
      <trkpt lat="48.7047" lon="2.11946">
        <ele>96.27</ele>
        <time>2019-04-06T12:10:17Z</time>
      </trkpt>
      <trkpt lat="48.7047" lon="2.11949">
        <ele>96.27</ele>
        <time>2019-04-06T12:10:18Z</time>
      </trkpt>
      <trkpt lat="48.7047" lon="2.1195">
        <ele>95.79</ele>
        <time>2019-04-06T12:10:19Z</time>
      </trkpt>
      <trkpt lat="48.7047" lon="2.11952">
        <ele>95.79</ele>
        <time>2019-04-06T12:10:20Z</time>
      </trkpt>
      <trkpt lat="48.7047" lon="2.11955">
        <ele>95.31</ele>
        <time>2019-04-06T12:10:21Z</time>
      </trkpt>
      <trkpt lat="48.7047" lon="2.11957">
        <ele>95.31</ele>
        <time>2019-04-06T12:10:22Z</time>
      </trkpt>
      <trkpt lat="48.70469" lon="2.1196">
        <ele>96.27</ele>
        <time>2019-04-06T12:10:23Z</time>
      </trkpt>
      <trkpt lat="48.70468" lon="2.11962">
        <ele>95.31</ele>
        <time>2019-04-06T12:10:24Z</time>
      </trkpt>
      <trkpt lat="48.70468" lon="2.11964">
        <ele>95.31</ele>
        <time>2019-04-06T12:10:25Z</time>
      </trkpt>
      <trkpt lat="48.70467" lon="2.11965">
        <ele>95.31</ele>
        <time>2019-04-06T12:10:26Z</time>
      </trkpt>
      <trkpt lat="48.70466" lon="2.11967">
        <ele>95.31</ele>
        <time>2019-04-06T12:10:27Z</time>
      </trkpt>
      <trkpt lat="48.70459" lon="2.11981">
        <ele>93.87</ele>
        <time>2019-04-06T12:10:38Z</time>
      </trkpt>
      <trkpt lat="48.70454" lon="2.11989">
        <ele>93.87</ele>
        <time>2019-04-06T12:10:41Z</time>
      </trkpt>
      <trkpt lat="48.70442" lon="2.11995">
        <ele>91.94</ele>
        <time>2019-04-06T12:10:51Z</time>
      </trkpt>
      <trkpt lat="48.70441" lon="2.12002">
        <ele>91.46</ele>
        <time>2019-04-06T12:10:58Z</time>
      </trkpt>
      <trkpt lat="48.70435" lon="2.12009">
        <ele>90.02</ele>
        <time>2019-04-06T12:11:02Z</time>
      </trkpt>
      <trkpt lat="48.70433" lon="2.12016">
        <ele>89.54</ele>
        <time>2019-04-06T12:11:16Z</time>
      </trkpt>
      <trkpt lat="48.70432" lon="2.12018">
        <ele>89.54</ele>
        <time>2019-04-06T12:11:20Z</time>
      </trkpt>
      <trkpt lat="48.70431" lon="2.12023">
        <ele>88.58</ele>
        <time>2019-04-06T12:11:25Z</time>
      </trkpt>
      <trkpt lat="48.70428" lon="2.12027">
        <ele>88.1</ele>
        <time>2019-04-06T12:11:36Z</time>
      </trkpt>
      <trkpt lat="48.70427" lon="2.12036">
        <ele>87.62</ele>
        <time>2019-04-06T12:11:55Z</time>
      </trkpt>
      <trkpt lat="48.70429" lon="2.12033">
        <ele>87.14</ele>
        <time>2019-04-06T12:12:17Z</time>
      </trkpt>
      <trkpt lat="48.70428" lon="2.12035">
        <ele>87.14</ele>
        <time>2019-04-06T12:12:24Z</time>
      </trkpt>
      <trkpt lat="48.70418" lon="2.12037">
        <ele>86.18</ele>
        <time>2019-04-06T12:12:31Z</time>
      </trkpt>
      <trkpt lat="48.70416" lon="2.12041">
        <ele>86.66</ele>
        <time>2019-04-06T12:12:35Z</time>
      </trkpt>
      <trkpt lat="48.70413" lon="2.1205">
        <ele>87.14</ele>
        <time>2019-04-06T12:12:46Z</time>
      </trkpt>
      <trkpt lat="48.70411" lon="2.12061">
        <ele>87.14</ele>
        <time>2019-04-06T12:12:57Z</time>
      </trkpt>
      <trkpt lat="48.70409" lon="2.12066">
        <ele>87.62</ele>
        <time>2019-04-06T12:13:00Z</time>
      </trkpt>
      <trkpt lat="48.70406" lon="2.12079">
        <ele>87.14</ele>
        <time>2019-04-06T12:13:10Z</time>
      </trkpt>
      <trkpt lat="48.70409" lon="2.12087">
        <ele>86.66</ele>
        <time>2019-04-06T12:13:24Z</time>
      </trkpt>
      <trkpt lat="48.70411" lon="2.1209">
        <ele>87.14</ele>
        <time>2019-04-06T12:13:27Z</time>
      </trkpt>
      <trkpt lat="48.70412" lon="2.12096">
        <ele>87.14</ele>
        <time>2019-04-06T12:13:30Z</time>
      </trkpt>
      <trkpt lat="48.70412" lon="2.12101">
        <ele>88.1</ele>
        <time>2019-04-06T12:13:32Z</time>
      </trkpt>
      <trkpt lat="48.70413" lon="2.12114">
        <ele>87.14</ele>
        <time>2019-04-06T12:13:36Z</time>
      </trkpt>
      <trkpt lat="48.70412" lon="2.12124">
        <ele>87.14</ele>
        <time>2019-04-06T12:13:49Z</time>
      </trkpt>
      <trkpt lat="48.70414" lon="2.12126">
        <ele>87.14</ele>
        <time>2019-04-06T12:14:03Z</time>
      </trkpt>
      <trkpt lat="48.70412" lon="2.12134">
        <ele>86.66</ele>
        <time>2019-04-06T12:14:19Z</time>
      </trkpt>
      <trkpt lat="48.70414" lon="2.12134">
        <ele>86.66</ele>
        <time>2019-04-06T12:14:39Z</time>
      </trkpt>
      <trkpt lat="48.70413" lon="2.12138">
        <ele>86.66</ele>
        <time>2019-04-06T12:14:52Z</time>
      </trkpt>
      <trkpt lat="48.70412" lon="2.12145">
        <ele>86.18</ele>
        <time>2019-04-06T12:14:59Z</time>
      </trkpt>
      <trkpt lat="48.70403" lon="2.12149">
        <ele>84.73</ele>
        <time>2019-04-06T12:15:05Z</time>
      </trkpt>
      <trkpt lat="48.70393" lon="2.12151">
        <ele>80.41</ele>
        <time>2019-04-06T12:15:16Z</time>
      </trkpt>
      <trkpt lat="48.70393" lon="2.12152">
        <ele>79.93</ele>
        <time>2019-04-06T12:15:18Z</time>
      </trkpt>
      <trkpt lat="48.70385" lon="2.12151">
        <ele>76.56</ele>
        <time>2019-04-06T12:15:28Z</time>
      </trkpt>
      <trkpt lat="48.70372" lon="2.12152">
        <ele>74.64</ele>
        <time>2019-04-06T12:15:35Z</time>
      </trkpt>
      <trkpt lat="48.70351" lon="2.12156">
        <ele>75.12</ele>
        <time>2019-04-06T12:15:49Z</time>
      </trkpt>
      <trkpt lat="48.70348" lon="2.12158">
        <ele>74.64</ele>
        <time>2019-04-06T12:15:52Z</time>
      </trkpt>
      <trkpt lat="48.70348" lon="2.12172">
        <ele>74.16</ele>
        <time>2019-04-06T12:15:59Z</time>
      </trkpt>
      <trkpt lat="48.70349" lon="2.12174">
        <ele>74.64</ele>
        <time>2019-04-06T12:16:00Z</time>
      </trkpt>
      <trkpt lat="48.7035" lon="2.12176">
        <ele>74.64</ele>
        <time>2019-04-06T12:16:01Z</time>
      </trkpt>
      <trkpt lat="48.70353" lon="2.1219">
        <ele>73.2</ele>
        <time>2019-04-06T12:16:10Z</time>
      </trkpt>
      <trkpt lat="48.70353" lon="2.12192">
        <ele>73.2</ele>
        <time>2019-04-06T12:16:11Z</time>
      </trkpt>
      <trkpt lat="48.70354" lon="2.12194">
        <ele>73.68</ele>
        <time>2019-04-06T12:16:12Z</time>
      </trkpt>
      <trkpt lat="48.70356" lon="2.1221">
        <ele>73.2</ele>
        <time>2019-04-06T12:16:20Z</time>
      </trkpt>
      <trkpt lat="48.70357" lon="2.12213">
        <ele>73.68</ele>
        <time>2019-04-06T12:16:21Z</time>
      </trkpt>
      <trkpt lat="48.70353" lon="2.1222">
        <ele>73.68</ele>
        <time>2019-04-06T12:16:27Z</time>
      </trkpt>
      <trkpt lat="48.70352" lon="2.1222">
        <ele>74.16</ele>
        <time>2019-04-06T12:16:28Z</time>
      </trkpt>
      <trkpt lat="48.70346" lon="2.12224">
        <ele>74.16</ele>
        <time>2019-04-06T12:16:40Z</time>
      </trkpt>
      <trkpt lat="48.70346" lon="2.12224">
        <ele>74.16</ele>
        <time>2019-04-06T12:17:08Z</time>
      </trkpt>
      <trkpt lat="48.70342" lon="2.12222">
        <ele>74.16</ele>
        <time>2019-04-06T12:17:40Z</time>
      </trkpt>
      <trkpt lat="48.70341" lon="2.12222">
        <ele>72.24</ele>
        <time>2019-04-06T12:17:46Z</time>
      </trkpt>
      <trkpt lat="48.70341" lon="2.12222">
        <ele>73.68</ele>
        <time>2019-04-06T12:17:49Z</time>
      </trkpt>
      <trkpt lat="48.70334" lon="2.12224">
        <ele>73.2</ele>
        <time>2019-04-06T12:18:01Z</time>
      </trkpt>
      <trkpt lat="48.7033" lon="2.12224">
        <ele>72.72</ele>
        <time>2019-04-06T12:18:05Z</time>
      </trkpt>
      <trkpt lat="48.70319" lon="2.12228">
        <ele>73.2</ele>
        <time>2019-04-06T12:18:16Z</time>
      </trkpt>
      <trkpt lat="48.70317" lon="2.12235">
        <ele>72.72</ele>
        <time>2019-04-06T12:18:21Z</time>
      </trkpt>
      <trkpt lat="48.70317" lon="2.12237">
        <ele>73.2</ele>
        <time>2019-04-06T12:18:22Z</time>
      </trkpt>
      <trkpt lat="48.70316" lon="2.12238">
        <ele>72.72</ele>
        <time>2019-04-06T12:18:23Z</time>
      </trkpt>
      <trkpt lat="48.70315" lon="2.1224">
        <ele>73.68</ele>
        <time>2019-04-06T12:18:24Z</time>
      </trkpt>
      <trkpt lat="48.70315" lon="2.12241">
        <ele>73.68</ele>
        <time>2019-04-06T12:18:25Z</time>
      </trkpt>
      <trkpt lat="48.70315" lon="2.12244">
        <ele>73.2</ele>
        <time>2019-04-06T12:18:26Z</time>
      </trkpt>
      <trkpt lat="48.70316" lon="2.12247">
        <ele>72.72</ele>
        <time>2019-04-06T12:18:39Z</time>
      </trkpt>
      <trkpt lat="48.70315" lon="2.12247">
        <ele>72.72</ele>
        <time>2019-04-06T12:18:40Z</time>
      </trkpt>
      <trkpt lat="48.70314" lon="2.12248">
        <ele>73.2</ele>
        <time>2019-04-06T12:18:41Z</time>
      </trkpt>
      <trkpt lat="48.70309" lon="2.12259">
        <ele>73.2</ele>
        <time>2019-04-06T12:18:53Z</time>
      </trkpt>
      <trkpt lat="48.70304" lon="2.12273">
        <ele>73.2</ele>
        <time>2019-04-06T12:19:03Z</time>
      </trkpt>
      <trkpt lat="48.70301" lon="2.12278">
        <ele>72.72</ele>
        <time>2019-04-06T12:19:11Z</time>
      </trkpt>
      <trkpt lat="48.70299" lon="2.12278">
        <ele>72.72</ele>
        <time>2019-04-06T12:19:12Z</time>
      </trkpt>
      <trkpt lat="48.70297" lon="2.12279">
        <ele>72.24</ele>
        <time>2019-04-06T12:19:13Z</time>
      </trkpt>
      <trkpt lat="48.70296" lon="2.1228">
        <ele>72.72</ele>
        <time>2019-04-06T12:19:14Z</time>
      </trkpt>
      <trkpt lat="48.7029" lon="2.1229">
        <ele>73.2</ele>
        <time>2019-04-06T12:19:25Z</time>
      </trkpt>
      <trkpt lat="48.70279" lon="2.123">
        <ele>73.2</ele>
        <time>2019-04-06T12:19:37Z</time>
      </trkpt>
      <trkpt lat="48.70278" lon="2.12301">
        <ele>73.2</ele>
        <time>2019-04-06T12:19:38Z</time>
      </trkpt>
      <trkpt lat="48.70277" lon="2.12307">
        <ele>72.72</ele>
        <time>2019-04-06T12:19:41Z</time>
      </trkpt>
      <trkpt lat="48.70274" lon="2.12344">
        <ele>73.2</ele>
        <time>2019-04-06T12:19:53Z</time>
      </trkpt>
      <trkpt lat="48.70273" lon="2.12348">
        <ele>73.2</ele>
        <time>2019-04-06T12:19:55Z</time>
      </trkpt>
      <trkpt lat="48.70269" lon="2.12366">
        <ele>72.72</ele>
        <time>2019-04-06T12:20:06Z</time>
      </trkpt>
      <trkpt lat="48.70262" lon="2.12391">
        <ele>73.68</ele>
        <time>2019-04-06T12:20:21Z</time>
      </trkpt>
      <trkpt lat="48.7026" lon="2.12398">
        <ele>73.2</ele>
        <time>2019-04-06T12:20:26Z</time>
      </trkpt>
      <trkpt lat="48.7026" lon="2.124">
        <ele>72.72</ele>
        <time>2019-04-06T12:20:27Z</time>
      </trkpt>
      <trkpt lat="48.70259" lon="2.12402">
        <ele>73.68</ele>
        <time>2019-04-06T12:20:28Z</time>
      </trkpt>
      <trkpt lat="48.7025" lon="2.12424">
        <ele>72.72</ele>
        <time>2019-04-06T12:20:42Z</time>
      </trkpt>
      <trkpt lat="48.70237" lon="2.12443">
        <ele>72.72</ele>
        <time>2019-04-06T12:20:56Z</time>
      </trkpt>
      <trkpt lat="48.70222" lon="2.12467">
        <ele>72.72</ele>
        <time>2019-04-06T12:21:13Z</time>
      </trkpt>
      <trkpt lat="48.70205" lon="2.12489">
        <ele>72.24</ele>
        <time>2019-04-06T12:21:29Z</time>
      </trkpt>
      <trkpt lat="48.702" lon="2.12493">
        <ele>72.72</ele>
        <time>2019-04-06T12:21:35Z</time>
      </trkpt>
      <trkpt lat="48.70198" lon="2.12493">
        <ele>72.72</ele>
        <time>2019-04-06T12:21:36Z</time>
      </trkpt>
      <trkpt lat="48.70197" lon="2.12494">
        <ele>72.72</ele>
        <time>2019-04-06T12:21:37Z</time>
      </trkpt>
      <trkpt lat="48.70196" lon="2.12494">
        <ele>72.72</ele>
        <time>2019-04-06T12:21:38Z</time>
      </trkpt>
      <trkpt lat="48.70195" lon="2.12494">
        <ele>72.72</ele>
        <time>2019-04-06T12:21:39Z</time>
      </trkpt>
      <trkpt lat="48.70193" lon="2.12494">
        <ele>73.2</ele>
        <time>2019-04-06T12:21:40Z</time>
      </trkpt>
      <trkpt lat="48.70192" lon="2.12495">
        <ele>72.72</ele>
        <time>2019-04-06T12:21:41Z</time>
      </trkpt>
      <trkpt lat="48.7019" lon="2.12494">
        <ele>73.2</ele>
        <time>2019-04-06T12:21:42Z</time>
      </trkpt>
      <trkpt lat="48.70188" lon="2.12494">
        <ele>72.72</ele>
        <time>2019-04-06T12:21:43Z</time>
      </trkpt>
      <trkpt lat="48.70186" lon="2.12494">
        <ele>73.2</ele>
        <time>2019-04-06T12:21:44Z</time>
      </trkpt>
      <trkpt lat="48.70173" lon="2.12491">
        <ele>73.2</ele>
        <time>2019-04-06T12:21:57Z</time>
      </trkpt>
      <trkpt lat="48.70154" lon="2.12485">
        <ele>72.72</ele>
        <time>2019-04-06T12:22:10Z</time>
      </trkpt>
      <trkpt lat="48.70137" lon="2.12479">
        <ele>72.24</ele>
        <time>2019-04-06T12:22:24Z</time>
      </trkpt>
      <trkpt lat="48.70141" lon="2.12477">
        <ele>70.31</ele>
        <time>2019-04-06T12:22:39Z</time>
      </trkpt>
      <trkpt lat="48.7013" lon="2.12496">
        <ele>70.31</ele>
        <time>2019-04-06T12:22:40Z</time>
      </trkpt>
      <trkpt lat="48.7013" lon="2.125">
        <ele>70.31</ele>
        <time>2019-04-06T12:22:41Z</time>
      </trkpt>
      <trkpt lat="48.70132" lon="2.1252">
        <ele>72.24</ele>
        <time>2019-04-06T12:22:50Z</time>
      </trkpt>
      <trkpt lat="48.70133" lon="2.12522">
        <ele>72.24</ele>
        <time>2019-04-06T12:22:51Z</time>
      </trkpt>
      <trkpt lat="48.70133" lon="2.12525">
        <ele>72.24</ele>
        <time>2019-04-06T12:22:52Z</time>
      </trkpt>
      <trkpt lat="48.70133" lon="2.12527">
        <ele>72.24</ele>
        <time>2019-04-06T12:22:53Z</time>
      </trkpt>
      <trkpt lat="48.70133" lon="2.12529">
        <ele>72.72</ele>
        <time>2019-04-06T12:22:54Z</time>
      </trkpt>
      <trkpt lat="48.70132" lon="2.12531">
        <ele>72.72</ele>
        <time>2019-04-06T12:22:55Z</time>
      </trkpt>
      <trkpt lat="48.70131" lon="2.12533">
        <ele>72.72</ele>
        <time>2019-04-06T12:22:56Z</time>
      </trkpt>
      <trkpt lat="48.7013" lon="2.12534">
        <ele>72.72</ele>
        <time>2019-04-06T12:22:57Z</time>
      </trkpt>
      <trkpt lat="48.70122" lon="2.12545">
        <ele>72.24</ele>
        <time>2019-04-06T12:23:08Z</time>
      </trkpt>
      <trkpt lat="48.70121" lon="2.12549">
        <ele>71.76</ele>
        <time>2019-04-06T12:23:10Z</time>
      </trkpt>
      <trkpt lat="48.70119" lon="2.12551">
        <ele>71.27</ele>
        <time>2019-04-06T12:23:11Z</time>
      </trkpt>
      <trkpt lat="48.70108" lon="2.12569">
        <ele>70.79</ele>
        <time>2019-04-06T12:23:23Z</time>
      </trkpt>
      <trkpt lat="48.70093" lon="2.12588">
        <ele>70.79</ele>
        <time>2019-04-06T12:23:38Z</time>
      </trkpt>
      <trkpt lat="48.7008" lon="2.12606">
        <ele>70.31</ele>
        <time>2019-04-06T12:23:52Z</time>
      </trkpt>
      <trkpt lat="48.70067" lon="2.12627">
        <ele>70.79</ele>
        <time>2019-04-06T12:24:08Z</time>
      </trkpt>
      <trkpt lat="48.70054" lon="2.12643">
        <ele>70.79</ele>
        <time>2019-04-06T12:24:21Z</time>
      </trkpt>
      <trkpt lat="48.70038" lon="2.12665">
        <ele>70.31</ele>
        <time>2019-04-06T12:24:38Z</time>
      </trkpt>
      <trkpt lat="48.70019" lon="2.12687">
        <ele>69.83</ele>
        <time>2019-04-06T12:24:55Z</time>
      </trkpt>
      <trkpt lat="48.70004" lon="2.12709">
        <ele>69.35</ele>
        <time>2019-04-06T12:25:12Z</time>
      </trkpt>
      <trkpt lat="48.6999" lon="2.12735">
        <ele>69.35</ele>
        <time>2019-04-06T12:25:28Z</time>
      </trkpt>
      <trkpt lat="48.69986" lon="2.12741">
        <ele>69.83</ele>
        <time>2019-04-06T12:25:34Z</time>
      </trkpt>
      <trkpt lat="48.69985" lon="2.12742">
        <ele>69.35</ele>
        <time>2019-04-06T12:25:35Z</time>
      </trkpt>
      <trkpt lat="48.69974" lon="2.12766">
        <ele>69.35</ele>
        <time>2019-04-06T12:25:50Z</time>
      </trkpt>
      <trkpt lat="48.69969" lon="2.12786">
        <ele>68.87</ele>
        <time>2019-04-06T12:26:01Z</time>
      </trkpt>
      <trkpt lat="48.69968" lon="2.12789">
        <ele>68.39</ele>
        <time>2019-04-06T12:26:02Z</time>
      </trkpt>
      <trkpt lat="48.69968" lon="2.12791">
        <ele>68.39</ele>
        <time>2019-04-06T12:26:03Z</time>
      </trkpt>
      <trkpt lat="48.69967" lon="2.12794">
        <ele>68.39</ele>
        <time>2019-04-06T12:26:04Z</time>
      </trkpt>
      <trkpt lat="48.69966" lon="2.12796">
        <ele>68.39</ele>
        <time>2019-04-06T12:26:05Z</time>
      </trkpt>
      <trkpt lat="48.69956" lon="2.12824">
        <ele>69.35</ele>
        <time>2019-04-06T12:26:20Z</time>
      </trkpt>
      <trkpt lat="48.6995" lon="2.12867">
        <ele>68.87</ele>
        <time>2019-04-06T12:26:40Z</time>
      </trkpt>
      <trkpt lat="48.69942" lon="2.12898">
        <ele>68.87</ele>
        <time>2019-04-06T12:26:56Z</time>
      </trkpt>
      <trkpt lat="48.69941" lon="2.129">
        <ele>69.35</ele>
        <time>2019-04-06T12:26:57Z</time>
      </trkpt>
      <trkpt lat="48.69928" lon="2.1292">
        <ele>68.87</ele>
        <time>2019-04-06T12:27:12Z</time>
      </trkpt>
      <trkpt lat="48.69918" lon="2.1291">
        <ele>68.87</ele>
        <time>2019-04-06T12:27:24Z</time>
      </trkpt>
      <trkpt lat="48.69911" lon="2.12903">
        <ele>68.87</ele>
        <time>2019-04-06T12:27:29Z</time>
      </trkpt>
      <trkpt lat="48.69909" lon="2.12903">
        <ele>67.91</ele>
        <time>2019-04-06T12:27:30Z</time>
      </trkpt>
      <trkpt lat="48.69908" lon="2.12903">
        <ele>68.39</ele>
        <time>2019-04-06T12:27:31Z</time>
      </trkpt>
      <trkpt lat="48.69906" lon="2.12903">
        <ele>67.91</ele>
        <time>2019-04-06T12:27:32Z</time>
      </trkpt>
      <trkpt lat="48.69904" lon="2.12903">
        <ele>68.39</ele>
        <time>2019-04-06T12:27:33Z</time>
      </trkpt>
      <trkpt lat="48.69903" lon="2.12903">
        <ele>67.91</ele>
        <time>2019-04-06T12:27:34Z</time>
      </trkpt>
      <trkpt lat="48.69885" lon="2.12906">
        <ele>68.87</ele>
        <time>2019-04-06T12:27:50Z</time>
      </trkpt>
      <trkpt lat="48.69863" lon="2.12911">
        <ele>67.43</ele>
        <time>2019-04-06T12:28:04Z</time>
      </trkpt>
      <trkpt lat="48.69857" lon="2.12923">
        <ele>67.43</ele>
        <time>2019-04-06T12:28:19Z</time>
      </trkpt>
      <trkpt lat="48.69859" lon="2.12921">
        <ele>67.43</ele>
        <time>2019-04-06T12:28:56Z</time>
      </trkpt>
      <trkpt lat="48.69862" lon="2.12927">
        <ele>67.91</ele>
        <time>2019-04-06T12:29:22Z</time>
      </trkpt>
      <trkpt lat="48.6986" lon="2.12926">
        <ele>67.43</ele>
        <time>2019-04-06T12:29:23Z</time>
      </trkpt>
      <trkpt lat="48.69857" lon="2.12926">
        <ele>67.91</ele>
        <time>2019-04-06T12:29:25Z</time>
      </trkpt>
      <trkpt lat="48.6985" lon="2.12928">
        <ele>67.43</ele>
        <time>2019-04-06T12:29:30Z</time>
      </trkpt>
      <trkpt lat="48.69848" lon="2.1293">
        <ele>67.91</ele>
        <time>2019-04-06T12:29:32Z</time>
      </trkpt>
      <trkpt lat="48.69847" lon="2.12932">
        <ele>67.91</ele>
        <time>2019-04-06T12:29:33Z</time>
      </trkpt>
      <trkpt lat="48.69833" lon="2.12949">
        <ele>68.39</ele>
        <time>2019-04-06T12:29:47Z</time>
      </trkpt>
      <trkpt lat="48.69828" lon="2.12956">
        <ele>68.39</ele>
        <time>2019-04-06T12:29:53Z</time>
      </trkpt>
      <trkpt lat="48.69827" lon="2.12958">
        <ele>69.83</ele>
        <time>2019-04-06T12:29:54Z</time>
      </trkpt>
      <trkpt lat="48.69826" lon="2.1296">
        <ele>69.35</ele>
        <time>2019-04-06T12:29:55Z</time>
      </trkpt>
      <trkpt lat="48.69824" lon="2.12965">
        <ele>68.39</ele>
        <time>2019-04-06T12:29:57Z</time>
      </trkpt>
      <trkpt lat="48.69816" lon="2.12987">
        <ele>68.87</ele>
        <time>2019-04-06T12:30:11Z</time>
      </trkpt>
      <trkpt lat="48.69811" lon="2.13011">
        <ele>68.87</ele>
        <time>2019-04-06T12:30:23Z</time>
      </trkpt>
      <trkpt lat="48.6981" lon="2.13013">
        <ele>68.87</ele>
        <time>2019-04-06T12:30:24Z</time>
      </trkpt>
      <trkpt lat="48.6981" lon="2.13023">
        <ele>68.39</ele>
        <time>2019-04-06T12:30:31Z</time>
      </trkpt>
      <trkpt lat="48.69811" lon="2.13026">
        <ele>69.35</ele>
        <time>2019-04-06T12:30:32Z</time>
      </trkpt>
      <trkpt lat="48.69812" lon="2.13028">
        <ele>68.87</ele>
        <time>2019-04-06T12:30:33Z</time>
      </trkpt>
      <trkpt lat="48.69813" lon="2.13031">
        <ele>68.87</ele>
        <time>2019-04-06T12:30:34Z</time>
      </trkpt>
      <trkpt lat="48.69815" lon="2.13033">
        <ele>68.87</ele>
        <time>2019-04-06T12:30:35Z</time>
      </trkpt>
      <trkpt lat="48.69822" lon="2.13055">
        <ele>68.39</ele>
        <time>2019-04-06T12:30:49Z</time>
      </trkpt>
      <trkpt lat="48.69822" lon="2.13057">
        <ele>68.87</ele>
        <time>2019-04-06T12:30:50Z</time>
      </trkpt>
      <trkpt lat="48.69821" lon="2.13059">
        <ele>68.87</ele>
        <time>2019-04-06T12:30:51Z</time>
      </trkpt>
      <trkpt lat="48.69821" lon="2.13062">
        <ele>68.39</ele>
        <time>2019-04-06T12:30:52Z</time>
      </trkpt>
      <trkpt lat="48.69821" lon="2.13064">
        <ele>68.39</ele>
        <time>2019-04-06T12:30:53Z</time>
      </trkpt>
      <trkpt lat="48.6982" lon="2.13066">
        <ele>68.87</ele>
        <time>2019-04-06T12:30:54Z</time>
      </trkpt>
      <trkpt lat="48.6982" lon="2.13068">
        <ele>68.39</ele>
        <time>2019-04-06T12:30:55Z</time>
      </trkpt>
      <trkpt lat="48.6982" lon="2.13069">
        <ele>68.87</ele>
        <time>2019-04-06T12:30:56Z</time>
      </trkpt>
      <trkpt lat="48.69824" lon="2.13102">
        <ele>69.35</ele>
        <time>2019-04-06T12:31:15Z</time>
      </trkpt>
      <trkpt lat="48.69826" lon="2.13132">
        <ele>68.87</ele>
        <time>2019-04-06T12:31:33Z</time>
      </trkpt>
      <trkpt lat="48.6983" lon="2.13147">
        <ele>68.87</ele>
        <time>2019-04-06T12:31:43Z</time>
      </trkpt>
      <trkpt lat="48.69835" lon="2.13159">
        <ele>68.39</ele>
        <time>2019-04-06T12:31:49Z</time>
      </trkpt>
      <trkpt lat="48.69834" lon="2.13166">
        <ele>68.87</ele>
        <time>2019-04-06T12:31:55Z</time>
      </trkpt>
      <trkpt lat="48.69835" lon="2.13169">
        <ele>68.87</ele>
        <time>2019-04-06T12:31:56Z</time>
      </trkpt>
      <trkpt lat="48.69836" lon="2.13171">
        <ele>68.87</ele>
        <time>2019-04-06T12:31:57Z</time>
      </trkpt>
      <trkpt lat="48.69836" lon="2.13177">
        <ele>69.35</ele>
        <time>2019-04-06T12:32:01Z</time>
      </trkpt>
      <trkpt lat="48.69836" lon="2.13179">
        <ele>69.35</ele>
        <time>2019-04-06T12:32:02Z</time>
      </trkpt>
      <trkpt lat="48.69837" lon="2.13182">
        <ele>68.87</ele>
        <time>2019-04-06T12:32:03Z</time>
      </trkpt>
      <trkpt lat="48.69838" lon="2.1319">
        <ele>68.87</ele>
        <time>2019-04-06T12:32:09Z</time>
      </trkpt>
      <trkpt lat="48.69838" lon="2.13192">
        <ele>68.87</ele>
        <time>2019-04-06T12:32:10Z</time>
      </trkpt>
      <trkpt lat="48.69839" lon="2.13195">
        <ele>69.35</ele>
        <time>2019-04-06T12:32:11Z</time>
      </trkpt>
      <trkpt lat="48.69841" lon="2.13197">
        <ele>68.87</ele>
        <time>2019-04-06T12:32:12Z</time>
      </trkpt>
      <trkpt lat="48.69842" lon="2.132">
        <ele>68.39</ele>
        <time>2019-04-06T12:32:13Z</time>
      </trkpt>
      <trkpt lat="48.69846" lon="2.1321">
        <ele>68.87</ele>
        <time>2019-04-06T12:32:23Z</time>
      </trkpt>
      <trkpt lat="48.69851" lon="2.13232">
        <ele>69.35</ele>
        <time>2019-04-06T12:32:36Z</time>
      </trkpt>
      <trkpt lat="48.69857" lon="2.13262">
        <ele>67.91</ele>
        <time>2019-04-06T12:32:52Z</time>
      </trkpt>
      <trkpt lat="48.69857" lon="2.13266">
        <ele>68.39</ele>
        <time>2019-04-06T12:32:57Z</time>
      </trkpt>
      <trkpt lat="48.69859" lon="2.13274">
        <ele>67.43</ele>
        <time>2019-04-06T12:33:07Z</time>
      </trkpt>
      <trkpt lat="48.69859" lon="2.13285">
        <ele>66.95</ele>
        <time>2019-04-06T12:33:13Z</time>
      </trkpt>
      <trkpt lat="48.69859" lon="2.13291">
        <ele>66.95</ele>
        <time>2019-04-06T12:33:16Z</time>
      </trkpt>
      <trkpt lat="48.69859" lon="2.13292">
        <ele>66.95</ele>
        <time>2019-04-06T12:33:17Z</time>
      </trkpt>
      <trkpt lat="48.69859" lon="2.13312">
        <ele>67.43</ele>
        <time>2019-04-06T12:33:30Z</time>
      </trkpt>
      <trkpt lat="48.69857" lon="2.13321">
        <ele>66.95</ele>
        <time>2019-04-06T12:33:34Z</time>
      </trkpt>
      <trkpt lat="48.69856" lon="2.13323">
        <ele>66.95</ele>
        <time>2019-04-06T12:33:35Z</time>
      </trkpt>
      <trkpt lat="48.69859" lon="2.13352">
        <ele>67.43</ele>
        <time>2019-04-06T12:33:45Z</time>
      </trkpt>
      <trkpt lat="48.69863" lon="2.13349">
        <ele>67.91</ele>
        <time>2019-04-06T12:33:58Z</time>
      </trkpt>
      <trkpt lat="48.69872" lon="2.13366">
        <ele>67.43</ele>
        <time>2019-04-06T12:34:12Z</time>
      </trkpt>
      <trkpt lat="48.69876" lon="2.13371">
        <ele>67.43</ele>
        <time>2019-04-06T12:34:18Z</time>
      </trkpt>
      <trkpt lat="48.69881" lon="2.1338">
        <ele>67.43</ele>
        <time>2019-04-06T12:34:30Z</time>
      </trkpt>
      <trkpt lat="48.69889" lon="2.13387">
        <ele>67.43</ele>
        <time>2019-04-06T12:34:42Z</time>
      </trkpt>
      <trkpt lat="48.69892" lon="2.13391">
        <ele>67.43</ele>
        <time>2019-04-06T12:34:46Z</time>
      </trkpt>
      <trkpt lat="48.69892" lon="2.13392">
        <ele>67.43</ele>
        <time>2019-04-06T12:34:47Z</time>
      </trkpt>
      <trkpt lat="48.699" lon="2.13406">
        <ele>67.43</ele>
        <time>2019-04-06T12:34:59Z</time>
      </trkpt>
      <trkpt lat="48.69905" lon="2.13407">
        <ele>67.43</ele>
        <time>2019-04-06T12:35:14Z</time>
      </trkpt>
      <trkpt lat="48.69905" lon="2.13407">
        <ele>66.95</ele>
        <time>2019-04-06T12:35:33Z</time>
      </trkpt>
      <trkpt lat="48.69903" lon="2.13404">
        <ele>67.43</ele>
        <time>2019-04-06T12:36:10Z</time>
      </trkpt>
      <trkpt lat="48.69909" lon="2.13407">
        <ele>66.95</ele>
        <time>2019-04-06T12:36:35Z</time>
      </trkpt>
      <trkpt lat="48.69912" lon="2.13407">
        <ele>71.27</ele>
        <time>2019-04-06T12:37:00Z</time>
      </trkpt>
      <trkpt lat="48.69912" lon="2.13407">
        <ele>66.95</ele>
        <time>2019-04-06T12:37:01Z</time>
      </trkpt>
      <trkpt lat="48.69913" lon="2.13406">
        <ele>66.95</ele>
        <time>2019-04-06T12:37:12Z</time>
      </trkpt>
      <trkpt lat="48.69919" lon="2.13405">
        <ele>68.39</ele>
        <time>2019-04-06T12:37:43Z</time>
      </trkpt>
      <trkpt lat="48.69912" lon="2.13406">
        <ele>68.87</ele>
        <time>2019-04-06T12:38:08Z</time>
      </trkpt>
      <trkpt lat="48.69911" lon="2.13409">
        <ele>65.99</ele>
        <time>2019-04-06T12:38:14Z</time>
      </trkpt>
      <trkpt lat="48.69911" lon="2.1341">
        <ele>69.35</ele>
        <time>2019-04-06T12:38:15Z</time>
      </trkpt>
      <trkpt lat="48.69909" lon="2.13411">
        <ele>67.43</ele>
        <time>2019-04-06T12:38:18Z</time>
      </trkpt>
      <trkpt lat="48.69908" lon="2.13411">
        <ele>66.95</ele>
        <time>2019-04-06T12:38:26Z</time>
      </trkpt>
      <trkpt lat="48.69908" lon="2.13409">
        <ele>67.91</ele>
        <time>2019-04-06T12:38:55Z</time>
      </trkpt>
      <trkpt lat="48.69908" lon="2.13408">
        <ele>63.1</ele>
        <time>2019-04-06T12:39:24Z</time>
      </trkpt>
      <trkpt lat="48.69908" lon="2.13408">
        <ele>72.24</ele>
        <time>2019-04-06T12:39:25Z</time>
      </trkpt>
      <trkpt lat="48.69908" lon="2.13408">
        <ele>67.91</ele>
        <time>2019-04-06T12:39:26Z</time>
      </trkpt>
      <trkpt lat="48.6991" lon="2.13408">
        <ele>67.91</ele>
        <time>2019-04-06T12:39:53Z</time>
      </trkpt>
      <trkpt lat="48.69912" lon="2.13407">
        <ele>65.99</ele>
        <time>2019-04-06T12:40:02Z</time>
      </trkpt>
      <trkpt lat="48.69907" lon="2.13409">
        <ele>86.66</ele>
        <time>2019-04-06T12:42:51Z</time>
      </trkpt>
      <trkpt lat="48.69913" lon="2.13399">
        <ele>86.66</ele>
        <time>2019-04-06T12:42:52Z</time>
      </trkpt>
      <trkpt lat="48.69917" lon="2.13405">
        <ele>83.29</ele>
        <time>2019-04-06T12:42:59Z</time>
      </trkpt>
      <trkpt lat="48.69918" lon="2.13405">
        <ele>80.41</ele>
        <time>2019-04-06T12:43:02Z</time>
      </trkpt>
      <trkpt lat="48.69927" lon="2.13412">
        <ele>77.52</ele>
        <time>2019-04-06T12:43:09Z</time>
      </trkpt>
      <trkpt lat="48.69933" lon="2.13406">
        <ele>74.64</ele>
        <time>2019-04-06T12:43:13Z</time>
      </trkpt>
      <trkpt lat="48.69936" lon="2.13405">
        <ele>71.76</ele>
        <time>2019-04-06T12:43:17Z</time>
      </trkpt>
      <trkpt lat="48.69942" lon="2.13403">
        <ele>69.35</ele>
        <time>2019-04-06T12:43:24Z</time>
      </trkpt>
      <trkpt lat="48.69955" lon="2.13402">
        <ele>67.43</ele>
        <time>2019-04-06T12:43:37Z</time>
      </trkpt>
      <trkpt lat="48.69966" lon="2.13394">
        <ele>65.99</ele>
        <time>2019-04-06T12:43:48Z</time>
      </trkpt>
      <trkpt lat="48.69981" lon="2.13384">
        <ele>65.03</ele>
        <time>2019-04-06T12:44:03Z</time>
      </trkpt>
      <trkpt lat="48.69997" lon="2.13376">
        <ele>63.58</ele>
        <time>2019-04-06T12:44:15Z</time>
      </trkpt>
      <trkpt lat="48.69998" lon="2.13375">
        <ele>63.58</ele>
        <time>2019-04-06T12:44:17Z</time>
      </trkpt>
      <trkpt lat="48.70002" lon="2.1338">
        <ele>62.62</ele>
        <time>2019-04-06T12:44:21Z</time>
      </trkpt>
      <trkpt lat="48.70013" lon="2.13401">
        <ele>62.62</ele>
        <time>2019-04-06T12:44:36Z</time>
      </trkpt>
      <trkpt lat="48.70014" lon="2.13402">
        <ele>61.66</ele>
        <time>2019-04-06T12:44:38Z</time>
      </trkpt>
      <trkpt lat="48.70028" lon="2.13401">
        <ele>62.62</ele>
        <time>2019-04-06T12:44:50Z</time>
      </trkpt>
      <trkpt lat="48.70033" lon="2.134">
        <ele>63.1</ele>
        <time>2019-04-06T12:44:55Z</time>
      </trkpt>
      <trkpt lat="48.70046" lon="2.13402">
        <ele>62.14</ele>
        <time>2019-04-06T12:45:07Z</time>
      </trkpt>
      <trkpt lat="48.70067" lon="2.13403">
        <ele>62.62</ele>
        <time>2019-04-06T12:45:23Z</time>
      </trkpt>
      <trkpt lat="48.70068" lon="2.13404">
        <ele>62.62</ele>
        <time>2019-04-06T12:45:24Z</time>
      </trkpt>
      <trkpt lat="48.70072" lon="2.13423">
        <ele>63.1</ele>
        <time>2019-04-06T12:45:38Z</time>
      </trkpt>
      <trkpt lat="48.70077" lon="2.13427">
        <ele>62.14</ele>
        <time>2019-04-06T12:45:44Z</time>
      </trkpt>
      <trkpt lat="48.7008" lon="2.13428">
        <ele>63.1</ele>
        <time>2019-04-06T12:45:47Z</time>
      </trkpt>
      <trkpt lat="48.70086" lon="2.1343">
        <ele>63.1</ele>
        <time>2019-04-06T12:45:52Z</time>
      </trkpt>
      <trkpt lat="48.70099" lon="2.13429">
        <ele>63.58</ele>
        <time>2019-04-06T12:46:04Z</time>
      </trkpt>
      <trkpt lat="48.70109" lon="2.13426">
        <ele>63.58</ele>
        <time>2019-04-06T12:46:15Z</time>
      </trkpt>
      <trkpt lat="48.70124" lon="2.13422">
        <ele>64.07</ele>
        <time>2019-04-06T12:46:31Z</time>
      </trkpt>
      <trkpt lat="48.70129" lon="2.13422">
        <ele>64.55</ele>
        <time>2019-04-06T12:46:36Z</time>
      </trkpt>
      <trkpt lat="48.70141" lon="2.13423">
        <ele>64.55</ele>
        <time>2019-04-06T12:46:46Z</time>
      </trkpt>
      <trkpt lat="48.70155" lon="2.13423">
        <ele>65.03</ele>
        <time>2019-04-06T12:46:58Z</time>
      </trkpt>
      <trkpt lat="48.70166" lon="2.13408">
        <ele>65.03</ele>
        <time>2019-04-06T12:47:09Z</time>
      </trkpt>
      <trkpt lat="48.70168" lon="2.13404">
        <ele>65.03</ele>
        <time>2019-04-06T12:47:12Z</time>
      </trkpt>
      <trkpt lat="48.70171" lon="2.13386">
        <ele>65.51</ele>
        <time>2019-04-06T12:47:20Z</time>
      </trkpt>
      <trkpt lat="48.70177" lon="2.13376">
        <ele>65.99</ele>
        <time>2019-04-06T12:47:33Z</time>
      </trkpt>
      <trkpt lat="48.70181" lon="2.13375">
        <ele>66.47</ele>
        <time>2019-04-06T12:47:37Z</time>
      </trkpt>
      <trkpt lat="48.70182" lon="2.13376">
        <ele>66.47</ele>
        <time>2019-04-06T12:47:39Z</time>
      </trkpt>
      <trkpt lat="48.70197" lon="2.13372">
        <ele>67.43</ele>
        <time>2019-04-06T12:47:54Z</time>
      </trkpt>
      <trkpt lat="48.70209" lon="2.13364">
        <ele>68.87</ele>
        <time>2019-04-06T12:48:06Z</time>
      </trkpt>
      <trkpt lat="48.7021" lon="2.13363">
        <ele>68.39</ele>
        <time>2019-04-06T12:48:07Z</time>
      </trkpt>
      <trkpt lat="48.70214" lon="2.1334">
        <ele>67.43</ele>
        <time>2019-04-06T12:48:22Z</time>
      </trkpt>
      <trkpt lat="48.70212" lon="2.13328">
        <ele>66.95</ele>
        <time>2019-04-06T12:48:26Z</time>
      </trkpt>
      <trkpt lat="48.70216" lon="2.13312">
        <ele>66.95</ele>
        <time>2019-04-06T12:48:34Z</time>
      </trkpt>
      <trkpt lat="48.70216" lon="2.13302">
        <ele>67.91</ele>
        <time>2019-04-06T12:48:40Z</time>
      </trkpt>
      <trkpt lat="48.70215" lon="2.13291">
        <ele>66.95</ele>
        <time>2019-04-06T12:48:53Z</time>
      </trkpt>
      <trkpt lat="48.70213" lon="2.13275">
        <ele>65.99</ele>
        <time>2019-04-06T12:49:07Z</time>
      </trkpt>
      <trkpt lat="48.70215" lon="2.13273">
        <ele>66.95</ele>
        <time>2019-04-06T12:49:10Z</time>
      </trkpt>
      <trkpt lat="48.70217" lon="2.13268">
        <ele>66.47</ele>
        <time>2019-04-06T12:49:13Z</time>
      </trkpt>
      <trkpt lat="48.7022" lon="2.13262">
        <ele>66.47</ele>
        <time>2019-04-06T12:49:22Z</time>
      </trkpt>
      <trkpt lat="48.7023" lon="2.13262">
        <ele>67.43</ele>
        <time>2019-04-06T12:49:32Z</time>
      </trkpt>
      <trkpt lat="48.70235" lon="2.13261">
        <ele>67.43</ele>
        <time>2019-04-06T12:49:36Z</time>
      </trkpt>
      <trkpt lat="48.70243" lon="2.13263">
        <ele>67.43</ele>
        <time>2019-04-06T12:49:44Z</time>
      </trkpt>
      <trkpt lat="48.70259" lon="2.1326">
        <ele>67.91</ele>
        <time>2019-04-06T12:49:56Z</time>
      </trkpt>
      <trkpt lat="48.70272" lon="2.13248">
        <ele>68.39</ele>
        <time>2019-04-06T12:50:09Z</time>
      </trkpt>
      <trkpt lat="48.70275" lon="2.13247">
        <ele>68.87</ele>
        <time>2019-04-06T12:50:11Z</time>
      </trkpt>
      <trkpt lat="48.70291" lon="2.1324">
        <ele>69.35</ele>
        <time>2019-04-06T12:50:27Z</time>
      </trkpt>
      <trkpt lat="48.70292" lon="2.13239">
        <ele>67.91</ele>
        <time>2019-04-06T12:50:28Z</time>
      </trkpt>
      <trkpt lat="48.70294" lon="2.13235">
        <ele>68.39</ele>
        <time>2019-04-06T12:50:31Z</time>
      </trkpt>
      <trkpt lat="48.70303" lon="2.13226">
        <ele>67.43</ele>
        <time>2019-04-06T12:50:40Z</time>
      </trkpt>
      <trkpt lat="48.70309" lon="2.13215">
        <ele>66.47</ele>
        <time>2019-04-06T12:50:46Z</time>
      </trkpt>
      <trkpt lat="48.70319" lon="2.13202">
        <ele>66.47</ele>
        <time>2019-04-06T12:50:56Z</time>
      </trkpt>
      <trkpt lat="48.70322" lon="2.13198">
        <ele>65.99</ele>
        <time>2019-04-06T12:51:01Z</time>
      </trkpt>
      <trkpt lat="48.70331" lon="2.13196">
        <ele>66.47</ele>
        <time>2019-04-06T12:51:10Z</time>
      </trkpt>
      <trkpt lat="48.70348" lon="2.13191">
        <ele>66.47</ele>
        <time>2019-04-06T12:51:25Z</time>
      </trkpt>
      <trkpt lat="48.70359" lon="2.13174">
        <ele>66.47</ele>
        <time>2019-04-06T12:51:38Z</time>
      </trkpt>
      <trkpt lat="48.70359" lon="2.13173">
        <ele>65.51</ele>
        <time>2019-04-06T12:51:39Z</time>
      </trkpt>
      <trkpt lat="48.70367" lon="2.13168">
        <ele>65.51</ele>
        <time>2019-04-06T12:51:47Z</time>
      </trkpt>
      <trkpt lat="48.70382" lon="2.13172">
        <ele>65.51</ele>
        <time>2019-04-06T12:52:01Z</time>
      </trkpt>
      <trkpt lat="48.70383" lon="2.13172">
        <ele>65.51</ele>
        <time>2019-04-06T12:52:02Z</time>
      </trkpt>
      <trkpt lat="48.70392" lon="2.13168">
        <ele>66.47</ele>
        <time>2019-04-06T12:52:12Z</time>
      </trkpt>
      <trkpt lat="48.70408" lon="2.13157">
        <ele>66.47</ele>
        <time>2019-04-06T12:52:28Z</time>
      </trkpt>
      <trkpt lat="48.70424" lon="2.13138">
        <ele>66.47</ele>
        <time>2019-04-06T12:52:41Z</time>
      </trkpt>
      <trkpt lat="48.70431" lon="2.13129">
        <ele>66.47</ele>
        <time>2019-04-06T12:52:52Z</time>
      </trkpt>
      <trkpt lat="48.70432" lon="2.13128">
        <ele>66.95</ele>
        <time>2019-04-06T12:52:53Z</time>
      </trkpt>
      <trkpt lat="48.70433" lon="2.13128">
        <ele>66.95</ele>
        <time>2019-04-06T12:52:54Z</time>
      </trkpt>
      <trkpt lat="48.70441" lon="2.13126">
        <ele>67.43</ele>
        <time>2019-04-06T12:53:01Z</time>
      </trkpt>
      <trkpt lat="48.70456" lon="2.13103">
        <ele>67.43</ele>
        <time>2019-04-06T12:53:15Z</time>
      </trkpt>
      <trkpt lat="48.70457" lon="2.13102">
        <ele>66.47</ele>
        <time>2019-04-06T12:53:16Z</time>
      </trkpt>
      <trkpt lat="48.70469" lon="2.1309">
        <ele>66.95</ele>
        <time>2019-04-06T12:53:28Z</time>
      </trkpt>
      <trkpt lat="48.70481" lon="2.13079">
        <ele>67.43</ele>
        <time>2019-04-06T12:53:41Z</time>
      </trkpt>
      <trkpt lat="48.70499" lon="2.13076">
        <ele>66.95</ele>
        <time>2019-04-06T12:53:54Z</time>
      </trkpt>
      <trkpt lat="48.70503" lon="2.13076">
        <ele>68.39</ele>
        <time>2019-04-06T12:53:57Z</time>
      </trkpt>
      <trkpt lat="48.70511" lon="2.13073">
        <ele>68.87</ele>
        <time>2019-04-06T12:54:08Z</time>
      </trkpt>
      <trkpt lat="48.70513" lon="2.13073">
        <ele>68.87</ele>
        <time>2019-04-06T12:54:09Z</time>
      </trkpt>
      <trkpt lat="48.70521" lon="2.13052">
        <ele>68.39</ele>
        <time>2019-04-06T12:54:21Z</time>
      </trkpt>
      <trkpt lat="48.70522" lon="2.13048">
        <ele>67.43</ele>
        <time>2019-04-06T12:54:22Z</time>
      </trkpt>
      <trkpt lat="48.70524" lon="2.13037">
        <ele>67.91</ele>
        <time>2019-04-06T12:54:27Z</time>
      </trkpt>
      <trkpt lat="48.70526" lon="2.13028">
        <ele>67.91</ele>
        <time>2019-04-06T12:54:34Z</time>
      </trkpt>
      <trkpt lat="48.70527" lon="2.13026">
        <ele>67.91</ele>
        <time>2019-04-06T12:54:35Z</time>
      </trkpt>
      <trkpt lat="48.70528" lon="2.13017">
        <ele>67.43</ele>
        <time>2019-04-06T12:54:39Z</time>
      </trkpt>
      <trkpt lat="48.70528" lon="2.13015">
        <ele>67.91</ele>
        <time>2019-04-06T12:54:40Z</time>
      </trkpt>
      <trkpt lat="48.7053" lon="2.13003">
        <ele>67.91</ele>
        <time>2019-04-06T12:54:52Z</time>
      </trkpt>
      <trkpt lat="48.70532" lon="2.12993">
        <ele>67.43</ele>
        <time>2019-04-06T12:54:59Z</time>
      </trkpt>
      <trkpt lat="48.70533" lon="2.12991">
        <ele>67.91</ele>
        <time>2019-04-06T12:55:00Z</time>
      </trkpt>
      <trkpt lat="48.70534" lon="2.12989">
        <ele>67.91</ele>
        <time>2019-04-06T12:55:01Z</time>
      </trkpt>
      <trkpt lat="48.70534" lon="2.12987">
        <ele>67.43</ele>
        <time>2019-04-06T12:55:02Z</time>
      </trkpt>
      <trkpt lat="48.70534" lon="2.12983">
        <ele>67.91</ele>
        <time>2019-04-06T12:55:03Z</time>
      </trkpt>
      <trkpt lat="48.70534" lon="2.12981">
        <ele>67.43</ele>
        <time>2019-04-06T12:55:04Z</time>
      </trkpt>
      <trkpt lat="48.70537" lon="2.12967">
        <ele>68.87</ele>
        <time>2019-04-06T12:55:16Z</time>
      </trkpt>
      <trkpt lat="48.70538" lon="2.12964">
        <ele>67.91</ele>
        <time>2019-04-06T12:55:17Z</time>
      </trkpt>
      <trkpt lat="48.70539" lon="2.12961">
        <ele>67.91</ele>
        <time>2019-04-06T12:55:18Z</time>
      </trkpt>
      <trkpt lat="48.7054" lon="2.12959">
        <ele>67.91</ele>
        <time>2019-04-06T12:55:19Z</time>
      </trkpt>
      <trkpt lat="48.70541" lon="2.12958">
        <ele>69.35</ele>
        <time>2019-04-06T12:55:20Z</time>
      </trkpt>
      <trkpt lat="48.70547" lon="2.12946">
        <ele>68.39</ele>
        <time>2019-04-06T12:55:31Z</time>
      </trkpt>
      <trkpt lat="48.70548" lon="2.12945">
        <ele>68.39</ele>
        <time>2019-04-06T12:55:32Z</time>
      </trkpt>
      <trkpt lat="48.70548" lon="2.12943">
        <ele>68.39</ele>
        <time>2019-04-06T12:55:33Z</time>
      </trkpt>
      <trkpt lat="48.70549" lon="2.1294">
        <ele>68.39</ele>
        <time>2019-04-06T12:55:34Z</time>
      </trkpt>
      <trkpt lat="48.7055" lon="2.12938">
        <ele>68.39</ele>
        <time>2019-04-06T12:55:35Z</time>
      </trkpt>
      <trkpt lat="48.70551" lon="2.12936">
        <ele>67.43</ele>
        <time>2019-04-06T12:55:36Z</time>
      </trkpt>
      <trkpt lat="48.70552" lon="2.12934">
        <ele>68.39</ele>
        <time>2019-04-06T12:55:37Z</time>
      </trkpt>
      <trkpt lat="48.70556" lon="2.12925">
        <ele>69.35</ele>
        <time>2019-04-06T12:55:45Z</time>
      </trkpt>
      <trkpt lat="48.70561" lon="2.12911">
        <ele>69.35</ele>
        <time>2019-04-06T12:55:57Z</time>
      </trkpt>
      <trkpt lat="48.70572" lon="2.1289">
        <ele>68.39</ele>
        <time>2019-04-06T12:56:08Z</time>
      </trkpt>
      <trkpt lat="48.70581" lon="2.1287">
        <ele>68.87</ele>
        <time>2019-04-06T12:56:18Z</time>
      </trkpt>
      <trkpt lat="48.70586" lon="2.12859">
        <ele>68.87</ele>
        <time>2019-04-06T12:56:26Z</time>
      </trkpt>
      <trkpt lat="48.7059" lon="2.12849">
        <ele>68.87</ele>
        <time>2019-04-06T12:56:36Z</time>
      </trkpt>
      <trkpt lat="48.70592" lon="2.12846">
        <ele>68.87</ele>
        <time>2019-04-06T12:56:38Z</time>
      </trkpt>
      <trkpt lat="48.70593" lon="2.12843">
        <ele>68.87</ele>
        <time>2019-04-06T12:56:39Z</time>
      </trkpt>
      <trkpt lat="48.70594" lon="2.12841">
        <ele>67.91</ele>
        <time>2019-04-06T12:56:40Z</time>
      </trkpt>
      <trkpt lat="48.70594" lon="2.12839">
        <ele>68.39</ele>
        <time>2019-04-06T12:56:41Z</time>
      </trkpt>
      <trkpt lat="48.70595" lon="2.12837">
        <ele>68.87</ele>
        <time>2019-04-06T12:56:42Z</time>
      </trkpt>
      <trkpt lat="48.70601" lon="2.12829">
        <ele>68.39</ele>
        <time>2019-04-06T12:56:55Z</time>
      </trkpt>
      <trkpt lat="48.70603" lon="2.12825">
        <ele>69.83</ele>
        <time>2019-04-06T12:57:00Z</time>
      </trkpt>
      <trkpt lat="48.70603" lon="2.12823">
        <ele>70.31</ele>
        <time>2019-04-06T12:57:01Z</time>
      </trkpt>
      <trkpt lat="48.70607" lon="2.12811">
        <ele>68.87</ele>
        <time>2019-04-06T12:57:12Z</time>
      </trkpt>
      <trkpt lat="48.70607" lon="2.12808">
        <ele>68.39</ele>
        <time>2019-04-06T12:57:13Z</time>
      </trkpt>
      <trkpt lat="48.70607" lon="2.12806">
        <ele>68.87</ele>
        <time>2019-04-06T12:57:14Z</time>
      </trkpt>
      <trkpt lat="48.70607" lon="2.12803">
        <ele>68.39</ele>
        <time>2019-04-06T12:57:15Z</time>
      </trkpt>
      <trkpt lat="48.70609" lon="2.12797">
        <ele>68.39</ele>
        <time>2019-04-06T12:57:18Z</time>
      </trkpt>
      <trkpt lat="48.70609" lon="2.12795">
        <ele>67.91</ele>
        <time>2019-04-06T12:57:19Z</time>
      </trkpt>
      <trkpt lat="48.70611" lon="2.12794">
        <ele>67.91</ele>
        <time>2019-04-06T12:57:20Z</time>
      </trkpt>
      <trkpt lat="48.70612" lon="2.12792">
        <ele>67.91</ele>
        <time>2019-04-06T12:57:21Z</time>
      </trkpt>
      <trkpt lat="48.70613" lon="2.12791">
        <ele>68.39</ele>
        <time>2019-04-06T12:57:22Z</time>
      </trkpt>
      <trkpt lat="48.70618" lon="2.12776">
        <ele>67.91</ele>
        <time>2019-04-06T12:57:30Z</time>
      </trkpt>
      <trkpt lat="48.70624" lon="2.12758">
        <ele>68.87</ele>
        <time>2019-04-06T12:57:40Z</time>
      </trkpt>
      <trkpt lat="48.70626" lon="2.12752">
        <ele>69.35</ele>
        <time>2019-04-06T12:57:43Z</time>
      </trkpt>
      <trkpt lat="48.7064" lon="2.12737">
        <ele>69.83</ele>
        <time>2019-04-06T12:57:56Z</time>
      </trkpt>
      <trkpt lat="48.70642" lon="2.12734">
        <ele>70.31</ele>
        <time>2019-04-06T12:57:58Z</time>
      </trkpt>
      <trkpt lat="48.70644" lon="2.12733">
        <ele>70.79</ele>
        <time>2019-04-06T12:57:59Z</time>
      </trkpt>
      <trkpt lat="48.70646" lon="2.1273">
        <ele>70.79</ele>
        <time>2019-04-06T12:58:00Z</time>
      </trkpt>
      <trkpt lat="48.70648" lon="2.12727">
        <ele>69.83</ele>
        <time>2019-04-06T12:58:01Z</time>
      </trkpt>
      <trkpt lat="48.7065" lon="2.12726">
        <ele>69.83</ele>
        <time>2019-04-06T12:58:02Z</time>
      </trkpt>
      <trkpt lat="48.70654" lon="2.12725">
        <ele>70.31</ele>
        <time>2019-04-06T12:58:07Z</time>
      </trkpt>
      <trkpt lat="48.70655" lon="2.12724">
        <ele>70.79</ele>
        <time>2019-04-06T12:58:08Z</time>
      </trkpt>
      <trkpt lat="48.7066" lon="2.12722">
        <ele>71.76</ele>
        <time>2019-04-06T12:58:14Z</time>
      </trkpt>
      <trkpt lat="48.70662" lon="2.12723">
        <ele>72.24</ele>
        <time>2019-04-06T12:58:15Z</time>
      </trkpt>
      <trkpt lat="48.70667" lon="2.12724">
        <ele>73.2</ele>
        <time>2019-04-06T12:58:23Z</time>
      </trkpt>
      <trkpt lat="48.70668" lon="2.12725">
        <ele>73.2</ele>
        <time>2019-04-06T12:58:24Z</time>
      </trkpt>
      <trkpt lat="48.70671" lon="2.12725">
        <ele>74.16</ele>
        <time>2019-04-06T12:58:28Z</time>
      </trkpt>
      <trkpt lat="48.70677" lon="2.12725">
        <ele>76.56</ele>
        <time>2019-04-06T12:58:37Z</time>
      </trkpt>
      <trkpt lat="48.70677" lon="2.1273">
        <ele>78</ele>
        <time>2019-04-06T12:58:42Z</time>
      </trkpt>
      <trkpt lat="48.7068" lon="2.12737">
        <ele>78</ele>
        <time>2019-04-06T12:58:44Z</time>
      </trkpt>
      <trkpt lat="48.70683" lon="2.12744">
        <ele>78.48</ele>
        <time>2019-04-06T12:58:48Z</time>
      </trkpt>
      <trkpt lat="48.70685" lon="2.12745">
        <ele>78</ele>
        <time>2019-04-06T12:58:49Z</time>
      </trkpt>
      <trkpt lat="48.70697" lon="2.12748">
        <ele>79.45</ele>
        <time>2019-04-06T12:58:59Z</time>
      </trkpt>
      <trkpt lat="48.70709" lon="2.12752">
        <ele>80.41</ele>
        <time>2019-04-06T12:59:09Z</time>
      </trkpt>
      <trkpt lat="48.70719" lon="2.12762">
        <ele>81.37</ele>
        <time>2019-04-06T12:59:21Z</time>
      </trkpt>
      <trkpt lat="48.70726" lon="2.12772">
        <ele>82.33</ele>
        <time>2019-04-06T12:59:28Z</time>
      </trkpt>
      <trkpt lat="48.70728" lon="2.1278">
        <ele>82.81</ele>
        <time>2019-04-06T12:59:32Z</time>
      </trkpt>
      <trkpt lat="48.70729" lon="2.12782">
        <ele>83.29</ele>
        <time>2019-04-06T12:59:33Z</time>
      </trkpt>
      <trkpt lat="48.7073" lon="2.12784">
        <ele>83.77</ele>
        <time>2019-04-06T12:59:34Z</time>
      </trkpt>
      <trkpt lat="48.70731" lon="2.12786">
        <ele>83.29</ele>
        <time>2019-04-06T12:59:35Z</time>
      </trkpt>
      <trkpt lat="48.70732" lon="2.12788">
        <ele>82.33</ele>
        <time>2019-04-06T12:59:36Z</time>
      </trkpt>
      <trkpt lat="48.70738" lon="2.12803">
        <ele>85.21</ele>
        <time>2019-04-06T12:59:47Z</time>
      </trkpt>
      <trkpt lat="48.70743" lon="2.12808">
        <ele>85.21</ele>
        <time>2019-04-06T12:59:53Z</time>
      </trkpt>
      <trkpt lat="48.70757" lon="2.12792">
        <ele>87.14</ele>
        <time>2019-04-06T13:00:06Z</time>
      </trkpt>
      <trkpt lat="48.70759" lon="2.12789">
        <ele>86.66</ele>
        <time>2019-04-06T13:00:08Z</time>
      </trkpt>
      <trkpt lat="48.70759" lon="2.12787">
        <ele>86.66</ele>
        <time>2019-04-06T13:00:09Z</time>
      </trkpt>
      <trkpt lat="48.70759" lon="2.12785">
        <ele>87.62</ele>
        <time>2019-04-06T13:00:10Z</time>
      </trkpt>
      <trkpt lat="48.7076" lon="2.12783">
        <ele>87.14</ele>
        <time>2019-04-06T13:00:11Z</time>
      </trkpt>
      <trkpt lat="48.7076" lon="2.12781">
        <ele>86.18</ele>
        <time>2019-04-06T13:00:12Z</time>
      </trkpt>
      <trkpt lat="48.7077" lon="2.12752">
        <ele>87.62</ele>
        <time>2019-04-06T13:00:27Z</time>
      </trkpt>
      <trkpt lat="48.70772" lon="2.12748">
        <ele>87.62</ele>
        <time>2019-04-06T13:00:32Z</time>
      </trkpt>
      <trkpt lat="48.70772" lon="2.12746">
        <ele>87.62</ele>
        <time>2019-04-06T13:00:33Z</time>
      </trkpt>
      <trkpt lat="48.70778" lon="2.12723">
        <ele>88.1</ele>
        <time>2019-04-06T13:00:47Z</time>
      </trkpt>
      <trkpt lat="48.70778" lon="2.1272">
        <ele>88.1</ele>
        <time>2019-04-06T13:00:48Z</time>
      </trkpt>
      <trkpt lat="48.70778" lon="2.12717">
        <ele>87.62</ele>
        <time>2019-04-06T13:00:49Z</time>
      </trkpt>
      <trkpt lat="48.70779" lon="2.12715">
        <ele>88.58</ele>
        <time>2019-04-06T13:00:50Z</time>
      </trkpt>
      <trkpt lat="48.70779" lon="2.12712">
        <ele>87.14</ele>
        <time>2019-04-06T13:00:51Z</time>
      </trkpt>
      <trkpt lat="48.7078" lon="2.1271">
        <ele>87.14</ele>
        <time>2019-04-06T13:00:52Z</time>
      </trkpt>
      <trkpt lat="48.70781" lon="2.12708">
        <ele>87.62</ele>
        <time>2019-04-06T13:00:53Z</time>
      </trkpt>
      <trkpt lat="48.70786" lon="2.12695">
        <ele>87.62</ele>
        <time>2019-04-06T13:01:03Z</time>
      </trkpt>
      <trkpt lat="48.70787" lon="2.12693">
        <ele>87.62</ele>
        <time>2019-04-06T13:01:04Z</time>
      </trkpt>
      <trkpt lat="48.70787" lon="2.1269">
        <ele>87.14</ele>
        <time>2019-04-06T13:01:05Z</time>
      </trkpt>
      <trkpt lat="48.70795" lon="2.12671">
        <ele>87.14</ele>
        <time>2019-04-06T13:01:18Z</time>
      </trkpt>
      <trkpt lat="48.70804" lon="2.1266">
        <ele>87.62</ele>
        <time>2019-04-06T13:01:30Z</time>
      </trkpt>
      <trkpt lat="48.70807" lon="2.12656">
        <ele>87.14</ele>
        <time>2019-04-06T13:01:34Z</time>
      </trkpt>
      <trkpt lat="48.70811" lon="2.12652">
        <ele>87.62</ele>
        <time>2019-04-06T13:01:39Z</time>
      </trkpt>
      <trkpt lat="48.70814" lon="2.12648">
        <ele>87.14</ele>
        <time>2019-04-06T13:01:43Z</time>
      </trkpt>
      <trkpt lat="48.70824" lon="2.12632">
        <ele>86.18</ele>
        <time>2019-04-06T13:01:54Z</time>
      </trkpt>
      <trkpt lat="48.70825" lon="2.12628">
        <ele>85.21</ele>
        <time>2019-04-06T13:01:56Z</time>
      </trkpt>
      <trkpt lat="48.70828" lon="2.12623">
        <ele>84.25</ele>
        <time>2019-04-06T13:02:00Z</time>
      </trkpt>
      <trkpt lat="48.70842" lon="2.12633">
        <ele>86.66</ele>
        <time>2019-04-06T13:02:13Z</time>
      </trkpt>
      <trkpt lat="48.70851" lon="2.12645">
        <ele>87.62</ele>
        <time>2019-04-06T13:02:26Z</time>
      </trkpt>
      <trkpt lat="48.70866" lon="2.12658">
        <ele>88.1</ele>
        <time>2019-04-06T13:02:38Z</time>
      </trkpt>
      <trkpt lat="48.70878" lon="2.12675">
        <ele>88.58</ele>
        <time>2019-04-06T13:02:51Z</time>
      </trkpt>
      <trkpt lat="48.70881" lon="2.12678">
        <ele>87.62</ele>
        <time>2019-04-06T13:02:54Z</time>
      </trkpt>
      <trkpt lat="48.70889" lon="2.12686">
        <ele>89.06</ele>
        <time>2019-04-06T13:03:08Z</time>
      </trkpt>
      <trkpt lat="48.70891" lon="2.12694">
        <ele>89.06</ele>
        <time>2019-04-06T13:03:23Z</time>
      </trkpt>
      <trkpt lat="48.70893" lon="2.12695">
        <ele>89.06</ele>
        <time>2019-04-06T13:03:25Z</time>
      </trkpt>
      <trkpt lat="48.70895" lon="2.12701">
        <ele>89.06</ele>
        <time>2019-04-06T13:03:29Z</time>
      </trkpt>
      <trkpt lat="48.70906" lon="2.12716">
        <ele>89.54</ele>
        <time>2019-04-06T13:03:42Z</time>
      </trkpt>
      <trkpt lat="48.70916" lon="2.12725">
        <ele>90.5</ele>
        <time>2019-04-06T13:03:56Z</time>
      </trkpt>
      <trkpt lat="48.70931" lon="2.12743">
        <ele>91.94</ele>
        <time>2019-04-06T13:04:12Z</time>
      </trkpt>
      <trkpt lat="48.70942" lon="2.12758">
        <ele>92.42</ele>
        <time>2019-04-06T13:04:25Z</time>
      </trkpt>
      <trkpt lat="48.70946" lon="2.12766">
        <ele>93.87</ele>
        <time>2019-04-06T13:04:32Z</time>
      </trkpt>
      <trkpt lat="48.70954" lon="2.12761">
        <ele>94.83</ele>
        <time>2019-04-06T13:04:39Z</time>
      </trkpt>
      <trkpt lat="48.70954" lon="2.12763">
        <ele>93.87</ele>
        <time>2019-04-06T13:04:40Z</time>
      </trkpt>
      <trkpt lat="48.70956" lon="2.12764">
        <ele>94.35</ele>
        <time>2019-04-06T13:04:41Z</time>
      </trkpt>
      <trkpt lat="48.70957" lon="2.12766">
        <ele>93.87</ele>
        <time>2019-04-06T13:04:42Z</time>
      </trkpt>
      <trkpt lat="48.70957" lon="2.12767">
        <ele>94.35</ele>
        <time>2019-04-06T13:04:43Z</time>
      </trkpt>
      <trkpt lat="48.70963" lon="2.1277">
        <ele>95.31</ele>
        <time>2019-04-06T13:04:51Z</time>
      </trkpt>
      <trkpt lat="48.70971" lon="2.12772">
        <ele>95.79</ele>
        <time>2019-04-06T13:04:58Z</time>
      </trkpt>
      <trkpt lat="48.70972" lon="2.12771">
        <ele>95.79</ele>
        <time>2019-04-06T13:04:59Z</time>
      </trkpt>
      <trkpt lat="48.70973" lon="2.12769">
        <ele>95.79</ele>
        <time>2019-04-06T13:05:00Z</time>
      </trkpt>
      <trkpt lat="48.70975" lon="2.12768">
        <ele>96.27</ele>
        <time>2019-04-06T13:05:01Z</time>
      </trkpt>
      <trkpt lat="48.70977" lon="2.12768">
        <ele>95.79</ele>
        <time>2019-04-06T13:05:02Z</time>
      </trkpt>
      <trkpt lat="48.7098" lon="2.12771">
        <ele>96.27</ele>
        <time>2019-04-06T13:05:06Z</time>
      </trkpt>
      <trkpt lat="48.70982" lon="2.12773">
        <ele>96.75</ele>
        <time>2019-04-06T13:05:08Z</time>
      </trkpt>
      <trkpt lat="48.70991" lon="2.12785">
        <ele>98.19</ele>
        <time>2019-04-06T13:05:21Z</time>
      </trkpt>
      <trkpt lat="48.70998" lon="2.12785">
        <ele>99.63</ele>
        <time>2019-04-06T13:05:30Z</time>
      </trkpt>
      <trkpt lat="48.71006" lon="2.12768">
        <ele>101.56</ele>
        <time>2019-04-06T13:05:44Z</time>
      </trkpt>
      <trkpt lat="48.71016" lon="2.12754">
        <ele>103</ele>
        <time>2019-04-06T13:05:57Z</time>
      </trkpt>
      <trkpt lat="48.71028" lon="2.12732">
        <ele>102.52</ele>
        <time>2019-04-06T13:06:14Z</time>
      </trkpt>
      <trkpt lat="48.71035" lon="2.1272">
        <ele>102.52</ele>
        <time>2019-04-06T13:06:24Z</time>
      </trkpt>
      <trkpt lat="48.71042" lon="2.12712">
        <ele>103.96</ele>
        <time>2019-04-06T13:06:38Z</time>
      </trkpt>
      <trkpt lat="48.7105" lon="2.12721">
        <ele>104.92</ele>
        <time>2019-04-06T13:06:51Z</time>
      </trkpt>
      <trkpt lat="48.7106" lon="2.1273">
        <ele>106.84</ele>
        <time>2019-04-06T13:07:05Z</time>
      </trkpt>
      <trkpt lat="48.71064" lon="2.12737">
        <ele>107.81</ele>
        <time>2019-04-06T13:07:15Z</time>
      </trkpt>
      <trkpt lat="48.71067" lon="2.12738">
        <ele>108.77</ele>
        <time>2019-04-06T13:07:17Z</time>
      </trkpt>
      <trkpt lat="48.71076" lon="2.12749">
        <ele>111.17</ele>
        <time>2019-04-06T13:07:30Z</time>
      </trkpt>
      <trkpt lat="48.71085" lon="2.12759">
        <ele>113.09</ele>
        <time>2019-04-06T13:07:44Z</time>
      </trkpt>
      <trkpt lat="48.7109" lon="2.1277">
        <ele>115.98</ele>
        <time>2019-04-06T13:07:59Z</time>
      </trkpt>
      <trkpt lat="48.71083" lon="2.12792">
        <ele>116.94</ele>
        <time>2019-04-06T13:08:13Z</time>
      </trkpt>
      <trkpt lat="48.71084" lon="2.12795">
        <ele>116.94</ele>
        <time>2019-04-06T13:08:16Z</time>
      </trkpt>
      <trkpt lat="48.71085" lon="2.12795">
        <ele>116.94</ele>
        <time>2019-04-06T13:08:17Z</time>
      </trkpt>
      <trkpt lat="48.71093" lon="2.12792">
        <ele>118.38</ele>
        <time>2019-04-06T13:08:28Z</time>
      </trkpt>
      <trkpt lat="48.71099" lon="2.1279">
        <ele>119.34</ele>
        <time>2019-04-06T13:08:36Z</time>
      </trkpt>
      <trkpt lat="48.71106" lon="2.12786">
        <ele>120.78</ele>
        <time>2019-04-06T13:08:44Z</time>
      </trkpt>
      <trkpt lat="48.71114" lon="2.12784">
        <ele>121.74</ele>
        <time>2019-04-06T13:08:52Z</time>
      </trkpt>
      <trkpt lat="48.71122" lon="2.12779">
        <ele>123.67</ele>
        <time>2019-04-06T13:09:04Z</time>
      </trkpt>
      <trkpt lat="48.71132" lon="2.12769">
        <ele>125.59</ele>
        <time>2019-04-06T13:09:17Z</time>
      </trkpt>
      <trkpt lat="48.71134" lon="2.12769">
        <ele>124.63</ele>
        <time>2019-04-06T13:09:36Z</time>
      </trkpt>
      <trkpt lat="48.71138" lon="2.12769">
        <ele>124.63</ele>
        <time>2019-04-06T13:09:55Z</time>
      </trkpt>
      <trkpt lat="48.71134" lon="2.12776">
        <ele>124.63</ele>
        <time>2019-04-06T13:10:10Z</time>
      </trkpt>
      <trkpt lat="48.71139" lon="2.12763">
        <ele>123.19</ele>
        <time>2019-04-06T13:10:20Z</time>
      </trkpt>
      <trkpt lat="48.71142" lon="2.1275">
        <ele>122.71</ele>
        <time>2019-04-06T13:10:28Z</time>
      </trkpt>
      <trkpt lat="48.71152" lon="2.12736">
        <ele>120.3</ele>
        <time>2019-04-06T13:10:41Z</time>
      </trkpt>
      <trkpt lat="48.71156" lon="2.12731">
        <ele>120.3</ele>
        <time>2019-04-06T13:10:55Z</time>
      </trkpt>
      <trkpt lat="48.71157" lon="2.12728">
        <ele>120.3</ele>
        <time>2019-04-06T13:10:57Z</time>
      </trkpt>
      <trkpt lat="48.7116" lon="2.12715">
        <ele>118.38</ele>
        <time>2019-04-06T13:11:02Z</time>
      </trkpt>
      <trkpt lat="48.7116" lon="2.12699">
        <ele>116.46</ele>
        <time>2019-04-06T13:11:12Z</time>
      </trkpt>
      <trkpt lat="48.71167" lon="2.12679">
        <ele>115.5</ele>
        <time>2019-04-06T13:11:23Z</time>
      </trkpt>
      <trkpt lat="48.71169" lon="2.12674">
        <ele>114.05</ele>
        <time>2019-04-06T13:11:28Z</time>
      </trkpt>
      <trkpt lat="48.71174" lon="2.1266">
        <ele>112.61</ele>
        <time>2019-04-06T13:11:39Z</time>
      </trkpt>
      <trkpt lat="48.7118" lon="2.12644">
        <ele>112.13</ele>
        <time>2019-04-06T13:11:45Z</time>
      </trkpt>
      <trkpt lat="48.71186" lon="2.12631">
        <ele>111.17</ele>
        <time>2019-04-06T13:11:54Z</time>
      </trkpt>
      <trkpt lat="48.71178" lon="2.12622">
        <ele>108.77</ele>
        <time>2019-04-06T13:12:02Z</time>
      </trkpt>
      <trkpt lat="48.71172" lon="2.12608">
        <ele>106.36</ele>
        <time>2019-04-06T13:12:15Z</time>
      </trkpt>
      <trkpt lat="48.71171" lon="2.12601">
        <ele>105.88</ele>
        <time>2019-04-06T13:12:18Z</time>
      </trkpt>
      <trkpt lat="48.7117" lon="2.12581">
        <ele>105.88</ele>
        <time>2019-04-06T13:12:30Z</time>
      </trkpt>
      <trkpt lat="48.71171" lon="2.12574">
        <ele>105.4</ele>
        <time>2019-04-06T13:12:35Z</time>
      </trkpt>
      <trkpt lat="48.7118" lon="2.1255">
        <ele>103.48</ele>
        <time>2019-04-06T13:12:49Z</time>
      </trkpt>
      <trkpt lat="48.71181" lon="2.12544">
        <ele>103.96</ele>
        <time>2019-04-06T13:12:51Z</time>
      </trkpt>
      <trkpt lat="48.71179" lon="2.1253">
        <ele>101.56</ele>
        <time>2019-04-06T13:13:00Z</time>
      </trkpt>
      <trkpt lat="48.71177" lon="2.12524">
        <ele>100.6</ele>
        <time>2019-04-06T13:13:05Z</time>
      </trkpt>
      <trkpt lat="48.71174" lon="2.12511">
        <ele>99.15</ele>
        <time>2019-04-06T13:13:13Z</time>
      </trkpt>
      <trkpt lat="48.71175" lon="2.12489">
        <ele>96.75</ele>
        <time>2019-04-06T13:13:26Z</time>
      </trkpt>
      <trkpt lat="48.71178" lon="2.12475">
        <ele>95.79</ele>
        <time>2019-04-06T13:13:33Z</time>
      </trkpt>
      <trkpt lat="48.7118" lon="2.12465">
        <ele>95.79</ele>
        <time>2019-04-06T13:13:42Z</time>
      </trkpt>
      <trkpt lat="48.7119" lon="2.12467">
        <ele>95.31</ele>
        <time>2019-04-06T13:13:53Z</time>
      </trkpt>
      <trkpt lat="48.71204" lon="2.12456">
        <ele>96.27</ele>
        <time>2019-04-06T13:14:06Z</time>
      </trkpt>
      <trkpt lat="48.71214" lon="2.12448">
        <ele>96.27</ele>
        <time>2019-04-06T13:14:18Z</time>
      </trkpt>
      <trkpt lat="48.71225" lon="2.12439">
        <ele>96.75</ele>
        <time>2019-04-06T13:14:31Z</time>
      </trkpt>
      <trkpt lat="48.71238" lon="2.12421">
        <ele>95.79</ele>
        <time>2019-04-06T13:14:43Z</time>
      </trkpt>
      <trkpt lat="48.71242" lon="2.12419">
        <ele>96.27</ele>
        <time>2019-04-06T13:14:48Z</time>
      </trkpt>
      <trkpt lat="48.71257" lon="2.1241">
        <ele>95.31</ele>
        <time>2019-04-06T13:15:03Z</time>
      </trkpt>
      <trkpt lat="48.71271" lon="2.12396">
        <ele>95.31</ele>
        <time>2019-04-06T13:15:20Z</time>
      </trkpt>
      <trkpt lat="48.71272" lon="2.12394">
        <ele>95.79</ele>
        <time>2019-04-06T13:15:21Z</time>
      </trkpt>
      <trkpt lat="48.71283" lon="2.12383">
        <ele>95.31</ele>
        <time>2019-04-06T13:15:32Z</time>
      </trkpt>
      <trkpt lat="48.71297" lon="2.12376">
        <ele>96.27</ele>
        <time>2019-04-06T13:15:44Z</time>
      </trkpt>
      <trkpt lat="48.71312" lon="2.12375">
        <ele>95.31</ele>
        <time>2019-04-06T13:15:55Z</time>
      </trkpt>
      <trkpt lat="48.71323" lon="2.12373">
        <ele>96.75</ele>
        <time>2019-04-06T13:16:06Z</time>
      </trkpt>
      <trkpt lat="48.71328" lon="2.12375">
        <ele>96.27</ele>
        <time>2019-04-06T13:16:10Z</time>
      </trkpt>
      <trkpt lat="48.71338" lon="2.12376">
        <ele>96.75</ele>
        <time>2019-04-06T13:16:20Z</time>
      </trkpt>
      <trkpt lat="48.71345" lon="2.12375">
        <ele>95.79</ele>
        <time>2019-04-06T13:16:23Z</time>
      </trkpt>
      <trkpt lat="48.71355" lon="2.1238">
        <ele>95.79</ele>
        <time>2019-04-06T13:16:30Z</time>
      </trkpt>
      <trkpt lat="48.71366" lon="2.12387">
        <ele>95.79</ele>
        <time>2019-04-06T13:16:43Z</time>
      </trkpt>
      <trkpt lat="48.71372" lon="2.12385">
        <ele>95.31</ele>
        <time>2019-04-06T13:16:56Z</time>
      </trkpt>
      <trkpt lat="48.71379" lon="2.12391">
        <ele>94.83</ele>
        <time>2019-04-06T13:17:10Z</time>
      </trkpt>
      <trkpt lat="48.71383" lon="2.12397">
        <ele>93.87</ele>
        <time>2019-04-06T13:17:17Z</time>
      </trkpt>
      <trkpt lat="48.71385" lon="2.12399">
        <ele>93.87</ele>
        <time>2019-04-06T13:17:18Z</time>
      </trkpt>
      <trkpt lat="48.71398" lon="2.12406">
        <ele>93.39</ele>
        <time>2019-04-06T13:17:30Z</time>
      </trkpt>
      <trkpt lat="48.71414" lon="2.12402">
        <ele>92.42</ele>
        <time>2019-04-06T13:17:44Z</time>
      </trkpt>
      <trkpt lat="48.71417" lon="2.12402">
        <ele>92.42</ele>
        <time>2019-04-06T13:17:45Z</time>
      </trkpt>
      <trkpt lat="48.71424" lon="2.124">
        <ele>92.42</ele>
        <time>2019-04-06T13:17:55Z</time>
      </trkpt>
      <trkpt lat="48.71444" lon="2.12392">
        <ele>92.9</ele>
        <time>2019-04-06T13:18:11Z</time>
      </trkpt>
      <trkpt lat="48.71453" lon="2.12389">
        <ele>93.87</ele>
        <time>2019-04-06T13:18:24Z</time>
      </trkpt>
      <trkpt lat="48.71451" lon="2.12395">
        <ele>94.83</ele>
        <time>2019-04-06T13:18:56Z</time>
      </trkpt>
      <trkpt lat="48.71464" lon="2.12388">
        <ele>95.79</ele>
        <time>2019-04-06T13:19:09Z</time>
      </trkpt>
      <trkpt lat="48.71467" lon="2.12386">
        <ele>95.79</ele>
        <time>2019-04-06T13:19:44Z</time>
      </trkpt>
      <trkpt lat="48.71468" lon="2.12387">
        <ele>93.87</ele>
        <time>2019-04-06T13:20:06Z</time>
      </trkpt>
      <trkpt lat="48.71471" lon="2.12385">
        <ele>95.31</ele>
        <time>2019-04-06T13:20:08Z</time>
      </trkpt>
      <trkpt lat="48.71475" lon="2.12384">
        <ele>96.27</ele>
        <time>2019-04-06T13:20:11Z</time>
      </trkpt>
      <trkpt lat="48.71484" lon="2.12378">
        <ele>98.67</ele>
        <time>2019-04-06T13:20:21Z</time>
      </trkpt>
      <trkpt lat="48.71486" lon="2.12377">
        <ele>99.15</ele>
        <time>2019-04-06T13:20:22Z</time>
      </trkpt>
      <trkpt lat="48.71501" lon="2.12363">
        <ele>100.6</ele>
        <time>2019-04-06T13:20:35Z</time>
      </trkpt>
      <trkpt lat="48.71512" lon="2.12355">
        <ele>100.6</ele>
        <time>2019-04-06T13:20:49Z</time>
      </trkpt>
      <trkpt lat="48.71516" lon="2.12354">
        <ele>101.08</ele>
        <time>2019-04-06T13:20:52Z</time>
      </trkpt>
      <trkpt lat="48.71517" lon="2.12354">
        <ele>101.08</ele>
        <time>2019-04-06T13:20:53Z</time>
      </trkpt>
      <trkpt lat="48.71519" lon="2.12353">
        <ele>101.08</ele>
        <time>2019-04-06T13:20:54Z</time>
      </trkpt>
      <trkpt lat="48.7152" lon="2.12352">
        <ele>100.6</ele>
        <time>2019-04-06T13:20:55Z</time>
      </trkpt>
      <trkpt lat="48.71522" lon="2.12351">
        <ele>100.6</ele>
        <time>2019-04-06T13:20:56Z</time>
      </trkpt>
      <trkpt lat="48.71523" lon="2.1235">
        <ele>100.6</ele>
        <time>2019-04-06T13:20:57Z</time>
      </trkpt>
      <trkpt lat="48.71525" lon="2.1235">
        <ele>100.6</ele>
        <time>2019-04-06T13:20:58Z</time>
      </trkpt>
      <trkpt lat="48.71527" lon="2.1235">
        <ele>101.08</ele>
        <time>2019-04-06T13:20:59Z</time>
      </trkpt>
      <trkpt lat="48.71529" lon="2.12349">
        <ele>101.08</ele>
        <time>2019-04-06T13:21:00Z</time>
      </trkpt>
      <trkpt lat="48.71539" lon="2.12344">
        <ele>99.63</ele>
        <time>2019-04-06T13:21:06Z</time>
      </trkpt>
      <trkpt lat="48.7154" lon="2.12341">
        <ele>98.67</ele>
        <time>2019-04-06T13:21:07Z</time>
      </trkpt>
      <trkpt lat="48.71549" lon="2.12329">
        <ele>98.19</ele>
        <time>2019-04-06T13:21:12Z</time>
      </trkpt>
      <trkpt lat="48.71555" lon="2.12325">
        <ele>97.71</ele>
        <time>2019-04-06T13:21:15Z</time>
      </trkpt>
      <trkpt lat="48.71564" lon="2.12324">
        <ele>95.31</ele>
        <time>2019-04-06T13:21:18Z</time>
      </trkpt>
      <trkpt lat="48.71579" lon="2.12311">
        <ele>95.31</ele>
        <time>2019-04-06T13:21:28Z</time>
      </trkpt>
      <trkpt lat="48.71585" lon="2.1231">
        <ele>96.27</ele>
        <time>2019-04-06T13:21:36Z</time>
      </trkpt>
      <trkpt lat="48.71603" lon="2.12307">
        <ele>95.31</ele>
        <time>2019-04-06T13:21:56Z</time>
      </trkpt>
      <trkpt lat="48.71616" lon="2.12301">
        <ele>95.31</ele>
        <time>2019-04-06T13:22:09Z</time>
      </trkpt>
      <trkpt lat="48.71618" lon="2.12302">
        <ele>96.27</ele>
        <time>2019-04-06T13:22:11Z</time>
      </trkpt>
      <trkpt lat="48.7162" lon="2.12302">
        <ele>95.79</ele>
        <time>2019-04-06T13:22:12Z</time>
      </trkpt>
      <trkpt lat="48.71628" lon="2.123">
        <ele>95.31</ele>
        <time>2019-04-06T13:22:22Z</time>
      </trkpt>
      <trkpt lat="48.71633" lon="2.12298">
        <ele>95.31</ele>
        <time>2019-04-06T13:22:26Z</time>
      </trkpt>
      <trkpt lat="48.71634" lon="2.12299">
        <ele>94.83</ele>
        <time>2019-04-06T13:22:28Z</time>
      </trkpt>
      <trkpt lat="48.71643" lon="2.12294">
        <ele>94.83</ele>
        <time>2019-04-06T13:22:41Z</time>
      </trkpt>
      <trkpt lat="48.7165" lon="2.12297">
        <ele>94.35</ele>
        <time>2019-04-06T13:22:48Z</time>
      </trkpt>
      <trkpt lat="48.71655" lon="2.12297">
        <ele>94.35</ele>
        <time>2019-04-06T13:22:53Z</time>
      </trkpt>
      <trkpt lat="48.71673" lon="2.12289">
        <ele>93.87</ele>
        <time>2019-04-06T13:23:06Z</time>
      </trkpt>
      <trkpt lat="48.7169" lon="2.12281">
        <ele>92.9</ele>
        <time>2019-04-06T13:23:20Z</time>
      </trkpt>
      <trkpt lat="48.71705" lon="2.12276">
        <ele>93.87</ele>
        <time>2019-04-06T13:23:31Z</time>
      </trkpt>
      <trkpt lat="48.7172" lon="2.12276">
        <ele>94.83</ele>
        <time>2019-04-06T13:23:42Z</time>
      </trkpt>
      <trkpt lat="48.71723" lon="2.12274">
        <ele>94.83</ele>
        <time>2019-04-06T13:23:43Z</time>
      </trkpt>
      <trkpt lat="48.71745" lon="2.1227">
        <ele>94.83</ele>
        <time>2019-04-06T13:23:57Z</time>
      </trkpt>
      <trkpt lat="48.71761" lon="2.12265">
        <ele>95.31</ele>
        <time>2019-04-06T13:24:10Z</time>
      </trkpt>
      <trkpt lat="48.71775" lon="2.1226">
        <ele>94.35</ele>
        <time>2019-04-06T13:24:23Z</time>
      </trkpt>
      <trkpt lat="48.71789" lon="2.12249">
        <ele>93.87</ele>
        <time>2019-04-06T13:24:34Z</time>
      </trkpt>
      <trkpt lat="48.71802" lon="2.12237">
        <ele>94.35</ele>
        <time>2019-04-06T13:24:48Z</time>
      </trkpt>
      <trkpt lat="48.71804" lon="2.12235">
        <ele>94.83</ele>
        <time>2019-04-06T13:24:50Z</time>
      </trkpt>
      <trkpt lat="48.71815" lon="2.12225">
        <ele>93.87</ele>
        <time>2019-04-06T13:24:59Z</time>
      </trkpt>
      <trkpt lat="48.7183" lon="2.12224">
        <ele>94.35</ele>
        <time>2019-04-06T13:25:12Z</time>
      </trkpt>
      <trkpt lat="48.7183" lon="2.12224">
        <ele>94.35</ele>
        <time>2019-04-06T13:25:13Z</time>
      </trkpt>
      <trkpt lat="48.71831" lon="2.12225">
        <ele>94.35</ele>
        <time>2019-04-06T13:25:14Z</time>
      </trkpt>
      <trkpt lat="48.71842" lon="2.12237">
        <ele>94.35</ele>
        <time>2019-04-06T13:25:27Z</time>
      </trkpt>
      <trkpt lat="48.71854" lon="2.12253">
        <ele>95.31</ele>
        <time>2019-04-06T13:25:41Z</time>
      </trkpt>
      <trkpt lat="48.71857" lon="2.12258">
        <ele>94.83</ele>
        <time>2019-04-06T13:25:51Z</time>
      </trkpt>
      <trkpt lat="48.71868" lon="2.12272">
        <ele>94.83</ele>
        <time>2019-04-06T13:26:03Z</time>
      </trkpt>
      <trkpt lat="48.71875" lon="2.12284">
        <ele>95.79</ele>
        <time>2019-04-06T13:26:14Z</time>
      </trkpt>
      <trkpt lat="48.71884" lon="2.12293">
        <ele>96.27</ele>
        <time>2019-04-06T13:26:24Z</time>
      </trkpt>
      <trkpt lat="48.71885" lon="2.12294">
        <ele>96.75</ele>
        <time>2019-04-06T13:26:25Z</time>
      </trkpt>
      <trkpt lat="48.7189" lon="2.12295">
        <ele>96.75</ele>
        <time>2019-04-06T13:26:28Z</time>
      </trkpt>
      <trkpt lat="48.71892" lon="2.12297">
        <ele>95.79</ele>
        <time>2019-04-06T13:26:29Z</time>
      </trkpt>
      <trkpt lat="48.71894" lon="2.12298">
        <ele>96.27</ele>
        <time>2019-04-06T13:26:30Z</time>
      </trkpt>
      <trkpt lat="48.71906" lon="2.12304">
        <ele>95.79</ele>
        <time>2019-04-06T13:26:43Z</time>
      </trkpt>
      <trkpt lat="48.71923" lon="2.12311">
        <ele>96.27</ele>
        <time>2019-04-06T13:26:54Z</time>
      </trkpt>
      <trkpt lat="48.7193" lon="2.12315">
        <ele>96.75</ele>
        <time>2019-04-06T13:27:04Z</time>
      </trkpt>
      <trkpt lat="48.71951" lon="2.1233">
        <ele>96.75</ele>
        <time>2019-04-06T13:27:18Z</time>
      </trkpt>
      <trkpt lat="48.71962" lon="2.12339">
        <ele>96.75</ele>
        <time>2019-04-06T13:27:30Z</time>
      </trkpt>
      <trkpt lat="48.71977" lon="2.12345">
        <ele>97.23</ele>
        <time>2019-04-06T13:27:43Z</time>
      </trkpt>
      <trkpt lat="48.7198" lon="2.12349">
        <ele>97.23</ele>
        <time>2019-04-06T13:27:46Z</time>
      </trkpt>
      <trkpt lat="48.71995" lon="2.12365">
        <ele>96.75</ele>
        <time>2019-04-06T13:27:57Z</time>
      </trkpt>
      <trkpt lat="48.72" lon="2.12372">
        <ele>97.71</ele>
        <time>2019-04-06T13:28:09Z</time>
      </trkpt>
      <trkpt lat="48.72003" lon="2.12372">
        <ele>97.71</ele>
        <time>2019-04-06T13:28:19Z</time>
      </trkpt>
      <trkpt lat="48.72004" lon="2.12374">
        <ele>97.71</ele>
        <time>2019-04-06T13:28:20Z</time>
      </trkpt>
      <trkpt lat="48.72006" lon="2.12378">
        <ele>97.71</ele>
        <time>2019-04-06T13:28:23Z</time>
      </trkpt>
      <trkpt lat="48.72007" lon="2.12379">
        <ele>98.19</ele>
        <time>2019-04-06T13:28:24Z</time>
      </trkpt>
      <trkpt lat="48.72014" lon="2.12388">
        <ele>97.71</ele>
        <time>2019-04-06T13:28:37Z</time>
      </trkpt>
      <trkpt lat="48.72015" lon="2.1239">
        <ele>98.19</ele>
        <time>2019-04-06T13:28:38Z</time>
      </trkpt>
      <trkpt lat="48.72025" lon="2.12402">
        <ele>99.63</ele>
        <time>2019-04-06T13:28:50Z</time>
      </trkpt>
      <trkpt lat="48.72038" lon="2.12407">
        <ele>100.6</ele>
        <time>2019-04-06T13:29:00Z</time>
      </trkpt>
      <trkpt lat="48.72041" lon="2.12409">
        <ele>101.56</ele>
        <time>2019-04-06T13:29:06Z</time>
      </trkpt>
      <trkpt lat="48.72042" lon="2.12408">
        <ele>101.08</ele>
        <time>2019-04-06T13:29:07Z</time>
      </trkpt>
      <trkpt lat="48.72045" lon="2.12407">
        <ele>101.08</ele>
        <time>2019-04-06T13:29:08Z</time>
      </trkpt>
      <trkpt lat="48.72046" lon="2.12406">
        <ele>100.6</ele>
        <time>2019-04-06T13:29:09Z</time>
      </trkpt>
      <trkpt lat="48.72048" lon="2.12405">
        <ele>101.08</ele>
        <time>2019-04-06T13:29:10Z</time>
      </trkpt>
      <trkpt lat="48.72049" lon="2.12404">
        <ele>100.11</ele>
        <time>2019-04-06T13:29:11Z</time>
      </trkpt>
      <trkpt lat="48.72056" lon="2.12403">
        <ele>100.6</ele>
        <time>2019-04-06T13:29:21Z</time>
      </trkpt>
      <trkpt lat="48.72058" lon="2.12404">
        <ele>100.6</ele>
        <time>2019-04-06T13:29:22Z</time>
      </trkpt>
      <trkpt lat="48.72069" lon="2.12405">
        <ele>101.08</ele>
        <time>2019-04-06T13:29:33Z</time>
      </trkpt>
      <trkpt lat="48.72082" lon="2.12406">
        <ele>101.08</ele>
        <time>2019-04-06T13:29:45Z</time>
      </trkpt>
      <trkpt lat="48.72085" lon="2.12407">
        <ele>101.56</ele>
        <time>2019-04-06T13:29:46Z</time>
      </trkpt>
      <trkpt lat="48.72091" lon="2.12404">
        <ele>102.04</ele>
        <time>2019-04-06T13:29:53Z</time>
      </trkpt>
      <trkpt lat="48.72107" lon="2.12401">
        <ele>102.04</ele>
        <time>2019-04-06T13:30:06Z</time>
      </trkpt>
      <trkpt lat="48.7212" lon="2.12409">
        <ele>101.08</ele>
        <time>2019-04-06T13:30:18Z</time>
      </trkpt>
      <trkpt lat="48.72129" lon="2.12417">
        <ele>102.52</ele>
        <time>2019-04-06T13:30:29Z</time>
      </trkpt>
      <trkpt lat="48.72146" lon="2.12424">
        <ele>102.04</ele>
        <time>2019-04-06T13:30:43Z</time>
      </trkpt>
      <trkpt lat="48.72156" lon="2.1243">
        <ele>102.04</ele>
        <time>2019-04-06T13:30:55Z</time>
      </trkpt>
      <trkpt lat="48.7216" lon="2.12435">
        <ele>102.04</ele>
        <time>2019-04-06T13:31:04Z</time>
      </trkpt>
      <trkpt lat="48.72166" lon="2.12439">
        <ele>100.11</ele>
        <time>2019-04-06T13:31:18Z</time>
      </trkpt>
      <trkpt lat="48.72172" lon="2.12437">
        <ele>99.15</ele>
        <time>2019-04-06T13:31:23Z</time>
      </trkpt>
      <trkpt lat="48.72182" lon="2.12427">
        <ele>98.19</ele>
        <time>2019-04-06T13:31:30Z</time>
      </trkpt>
      <trkpt lat="48.72194" lon="2.12423">
        <ele>97.23</ele>
        <time>2019-04-06T13:31:40Z</time>
      </trkpt>
      <trkpt lat="48.72208" lon="2.12436">
        <ele>97.23</ele>
        <time>2019-04-06T13:31:54Z</time>
      </trkpt>
      <trkpt lat="48.72223" lon="2.12452">
        <ele>97.71</ele>
        <time>2019-04-06T13:32:10Z</time>
      </trkpt>
      <trkpt lat="48.72233" lon="2.12466">
        <ele>99.15</ele>
        <time>2019-04-06T13:32:22Z</time>
      </trkpt>
      <trkpt lat="48.7224" lon="2.12471">
        <ele>98.67</ele>
        <time>2019-04-06T13:32:35Z</time>
      </trkpt>
      <trkpt lat="48.72245" lon="2.12465">
        <ele>99.63</ele>
        <time>2019-04-06T13:32:49Z</time>
      </trkpt>
      <trkpt lat="48.72249" lon="2.12471">
        <ele>99.63</ele>
        <time>2019-04-06T13:33:11Z</time>
      </trkpt>
      <trkpt lat="48.7225" lon="2.1247">
        <ele>99.15</ele>
        <time>2019-04-06T13:33:13Z</time>
      </trkpt>
      <trkpt lat="48.72254" lon="2.12475">
        <ele>99.63</ele>
        <time>2019-04-06T13:33:20Z</time>
      </trkpt>
      <trkpt lat="48.72262" lon="2.12479">
        <ele>102.04</ele>
        <time>2019-04-06T13:33:29Z</time>
      </trkpt>
      <trkpt lat="48.72266" lon="2.12475">
        <ele>101.56</ele>
        <time>2019-04-06T13:33:34Z</time>
      </trkpt>
      <trkpt lat="48.72268" lon="2.12472">
        <ele>101.08</ele>
        <time>2019-04-06T13:33:36Z</time>
      </trkpt>
      <trkpt lat="48.7228" lon="2.12463">
        <ele>101.56</ele>
        <time>2019-04-06T13:33:50Z</time>
      </trkpt>
      <trkpt lat="48.72286" lon="2.12454">
        <ele>101.08</ele>
        <time>2019-04-06T13:34:03Z</time>
      </trkpt>
      <trkpt lat="48.72288" lon="2.12454">
        <ele>102.52</ele>
        <time>2019-04-06T13:34:22Z</time>
      </trkpt>
      <trkpt lat="48.72291" lon="2.12449">
        <ele>101.56</ele>
        <time>2019-04-06T13:34:40Z</time>
      </trkpt>
      <trkpt lat="48.72296" lon="2.12442">
        <ele>102.52</ele>
        <time>2019-04-06T13:34:49Z</time>
      </trkpt>
      <trkpt lat="48.72313" lon="2.12426">
        <ele>103.48</ele>
        <time>2019-04-06T13:35:08Z</time>
      </trkpt>
      <trkpt lat="48.72317" lon="2.1242">
        <ele>104.44</ele>
        <time>2019-04-06T13:35:14Z</time>
      </trkpt>
      <trkpt lat="48.7232" lon="2.12402">
        <ele>104.44</ele>
        <time>2019-04-06T13:35:24Z</time>
      </trkpt>
      <trkpt lat="48.72318" lon="2.12397">
        <ele>104.44</ele>
        <time>2019-04-06T13:35:29Z</time>
      </trkpt>
      <trkpt lat="48.72307" lon="2.12379">
        <ele>103.48</ele>
        <time>2019-04-06T13:35:43Z</time>
      </trkpt>
      <trkpt lat="48.72305" lon="2.12373">
        <ele>103</ele>
        <time>2019-04-06T13:35:57Z</time>
      </trkpt>
      <trkpt lat="48.72303" lon="2.12372">
        <ele>103</ele>
        <time>2019-04-06T13:36:16Z</time>
      </trkpt>
      <trkpt lat="48.72303" lon="2.12373">
        <ele>104.44</ele>
        <time>2019-04-06T13:36:35Z</time>
      </trkpt>
      <trkpt lat="48.72304" lon="2.12371">
        <ele>103.48</ele>
        <time>2019-04-06T13:36:52Z</time>
      </trkpt>
      <trkpt lat="48.72296" lon="2.12348">
        <ele>103</ele>
        <time>2019-04-06T13:37:07Z</time>
      </trkpt>
      <trkpt lat="48.72295" lon="2.12341">
        <ele>102.52</ele>
        <time>2019-04-06T13:37:20Z</time>
      </trkpt>
      <trkpt lat="48.72296" lon="2.12341">
        <ele>103</ele>
        <time>2019-04-06T13:37:40Z</time>
      </trkpt>
      <trkpt lat="48.7229" lon="2.12333">
        <ele>103.48</ele>
        <time>2019-04-06T13:37:54Z</time>
      </trkpt>
      <trkpt lat="48.7228" lon="2.12312">
        <ele>102.52</ele>
        <time>2019-04-06T13:38:06Z</time>
      </trkpt>
      <trkpt lat="48.72272" lon="2.12296">
        <ele>102.04</ele>
        <time>2019-04-06T13:38:17Z</time>
      </trkpt>
      <trkpt lat="48.72259" lon="2.12285">
        <ele>101.56</ele>
        <time>2019-04-06T13:38:32Z</time>
      </trkpt>
      <trkpt lat="48.72252" lon="2.1228">
        <ele>100.11</ele>
        <time>2019-04-06T13:38:38Z</time>
      </trkpt>
      <trkpt lat="48.72234" lon="2.12264">
        <ele>99.63</ele>
        <time>2019-04-06T13:38:54Z</time>
      </trkpt>
      <trkpt lat="48.72219" lon="2.12249">
        <ele>100.11</ele>
        <time>2019-04-06T13:39:10Z</time>
      </trkpt>
      <trkpt lat="48.72207" lon="2.12242">
        <ele>98.19</ele>
        <time>2019-04-06T13:39:24Z</time>
      </trkpt>
      <trkpt lat="48.72192" lon="2.12236">
        <ele>98.19</ele>
        <time>2019-04-06T13:39:38Z</time>
      </trkpt>
      <trkpt lat="48.72176" lon="2.12235">
        <ele>97.71</ele>
        <time>2019-04-06T13:39:50Z</time>
      </trkpt>
      <trkpt lat="48.72172" lon="2.12234">
        <ele>97.23</ele>
        <time>2019-04-06T13:39:54Z</time>
      </trkpt>
      <trkpt lat="48.72164" lon="2.12233">
        <ele>97.23</ele>
        <time>2019-04-06T13:39:59Z</time>
      </trkpt>
      <trkpt lat="48.72149" lon="2.12231">
        <ele>96.27</ele>
        <time>2019-04-06T13:40:13Z</time>
      </trkpt>
      <trkpt lat="48.72132" lon="2.12229">
        <ele>96.27</ele>
        <time>2019-04-06T13:40:27Z</time>
      </trkpt>
      <trkpt lat="48.72114" lon="2.12232">
        <ele>95.79</ele>
        <time>2019-04-06T13:40:40Z</time>
      </trkpt>
      <trkpt lat="48.72104" lon="2.12233">
        <ele>95.79</ele>
        <time>2019-04-06T13:40:48Z</time>
      </trkpt>
      <trkpt lat="48.72095" lon="2.12226">
        <ele>95.79</ele>
        <time>2019-04-06T13:41:02Z</time>
      </trkpt>
      <trkpt lat="48.72094" lon="2.12226">
        <ele>96.27</ele>
        <time>2019-04-06T13:41:03Z</time>
      </trkpt>
      <trkpt lat="48.72093" lon="2.12225">
        <ele>96.27</ele>
        <time>2019-04-06T13:41:04Z</time>
      </trkpt>
      <trkpt lat="48.7208" lon="2.12221">
        <ele>96.75</ele>
        <time>2019-04-06T13:41:17Z</time>
      </trkpt>
      <trkpt lat="48.72065" lon="2.12209">
        <ele>99.15</ele>
        <time>2019-04-06T13:41:34Z</time>
      </trkpt>
      <trkpt lat="48.72056" lon="2.12195">
        <ele>100.6</ele>
        <time>2019-04-06T13:41:47Z</time>
      </trkpt>
      <trkpt lat="48.72054" lon="2.12187">
        <ele>101.08</ele>
        <time>2019-04-06T13:41:51Z</time>
      </trkpt>
      <trkpt lat="48.72054" lon="2.12185">
        <ele>101.08</ele>
        <time>2019-04-06T13:41:52Z</time>
      </trkpt>
      <trkpt lat="48.72052" lon="2.12176">
        <ele>102.52</ele>
        <time>2019-04-06T13:41:58Z</time>
      </trkpt>
      <trkpt lat="48.72051" lon="2.12175">
        <ele>102.04</ele>
        <time>2019-04-06T13:41:59Z</time>
      </trkpt>
      <trkpt lat="48.72051" lon="2.12173">
        <ele>102.04</ele>
        <time>2019-04-06T13:42:00Z</time>
      </trkpt>
      <trkpt lat="48.72047" lon="2.12151">
        <ele>104.44</ele>
        <time>2019-04-06T13:42:15Z</time>
      </trkpt>
      <trkpt lat="48.72048" lon="2.12148">
        <ele>104.44</ele>
        <time>2019-04-06T13:42:18Z</time>
      </trkpt>
      <trkpt lat="48.7205" lon="2.12124">
        <ele>105.4</ele>
        <time>2019-04-06T13:42:32Z</time>
      </trkpt>
      <trkpt lat="48.72047" lon="2.12104">
        <ele>105.4</ele>
        <time>2019-04-06T13:42:49Z</time>
      </trkpt>
      <trkpt lat="48.72046" lon="2.12083">
        <ele>106.36</ele>
        <time>2019-04-06T13:43:02Z</time>
      </trkpt>
      <trkpt lat="48.72046" lon="2.1208">
        <ele>106.36</ele>
        <time>2019-04-06T13:43:03Z</time>
      </trkpt>
      <trkpt lat="48.72046" lon="2.12078">
        <ele>106.36</ele>
        <time>2019-04-06T13:43:04Z</time>
      </trkpt>
      <trkpt lat="48.72047" lon="2.12064">
        <ele>106.84</ele>
        <time>2019-04-06T13:43:12Z</time>
      </trkpt>
      <trkpt lat="48.72037" lon="2.1205">
        <ele>107.32</ele>
        <time>2019-04-06T13:43:22Z</time>
      </trkpt>
      <trkpt lat="48.72027" lon="2.1202">
        <ele>106.36</ele>
        <time>2019-04-06T13:43:37Z</time>
      </trkpt>
      <trkpt lat="48.72028" lon="2.12008">
        <ele>106.36</ele>
        <time>2019-04-06T13:43:42Z</time>
      </trkpt>
      <trkpt lat="48.72026" lon="2.11999">
        <ele>105.88</ele>
        <time>2019-04-06T13:43:47Z</time>
      </trkpt>
      <trkpt lat="48.72019" lon="2.11985">
        <ele>105.4</ele>
        <time>2019-04-06T13:43:59Z</time>
      </trkpt>
      <trkpt lat="48.72012" lon="2.11972">
        <ele>105.4</ele>
        <time>2019-04-06T13:44:13Z</time>
      </trkpt>
      <trkpt lat="48.72004" lon="2.11965">
        <ele>105.4</ele>
        <time>2019-04-06T13:44:27Z</time>
      </trkpt>
      <trkpt lat="48.72009" lon="2.11954">
        <ele>103</ele>
        <time>2019-04-06T13:44:40Z</time>
      </trkpt>
      <trkpt lat="48.7201" lon="2.11952">
        <ele>103</ele>
        <time>2019-04-06T13:44:41Z</time>
      </trkpt>
      <trkpt lat="48.72015" lon="2.11942">
        <ele>102.52</ele>
        <time>2019-04-06T13:44:54Z</time>
      </trkpt>
      <trkpt lat="48.72018" lon="2.11925">
        <ele>102.52</ele>
        <time>2019-04-06T13:45:08Z</time>
      </trkpt>
      <trkpt lat="48.72021" lon="2.11917">
        <ele>102.52</ele>
        <time>2019-04-06T13:45:14Z</time>
      </trkpt>
      <trkpt lat="48.72027" lon="2.11899">
        <ele>102.52</ele>
        <time>2019-04-06T13:45:22Z</time>
      </trkpt>
      <trkpt lat="48.72027" lon="2.11896">
        <ele>102.52</ele>
        <time>2019-04-06T13:45:23Z</time>
      </trkpt>
      <trkpt lat="48.72026" lon="2.11894">
        <ele>103</ele>
        <time>2019-04-06T13:45:24Z</time>
      </trkpt>
      <trkpt lat="48.72023" lon="2.11873">
        <ele>101.56</ele>
        <time>2019-04-06T13:45:36Z</time>
      </trkpt>
      <trkpt lat="48.72021" lon="2.11867">
        <ele>101.56</ele>
        <time>2019-04-06T13:45:40Z</time>
      </trkpt>
      <trkpt lat="48.72022" lon="2.11858">
        <ele>101.08</ele>
        <time>2019-04-06T13:45:45Z</time>
      </trkpt>
      <trkpt lat="48.72025" lon="2.11845">
        <ele>101.08</ele>
        <time>2019-04-06T13:45:51Z</time>
      </trkpt>
      <trkpt lat="48.72021" lon="2.11824">
        <ele>100.11</ele>
        <time>2019-04-06T13:46:04Z</time>
      </trkpt>
      <trkpt lat="48.7203" lon="2.11794">
        <ele>101.08</ele>
        <time>2019-04-06T13:46:20Z</time>
      </trkpt>
      <trkpt lat="48.72032" lon="2.11791">
        <ele>100.6</ele>
        <time>2019-04-06T13:46:22Z</time>
      </trkpt>
      <trkpt lat="48.72033" lon="2.11763">
        <ele>100.6</ele>
        <time>2019-04-06T13:46:35Z</time>
      </trkpt>
      <trkpt lat="48.72038" lon="2.1175">
        <ele>100.6</ele>
        <time>2019-04-06T13:46:45Z</time>
      </trkpt>
      <trkpt lat="48.7204" lon="2.11722">
        <ele>102.52</ele>
        <time>2019-04-06T13:47:02Z</time>
      </trkpt>
      <trkpt lat="48.72048" lon="2.11693">
        <ele>104.44</ele>
        <time>2019-04-06T13:47:18Z</time>
      </trkpt>
      <trkpt lat="48.7205" lon="2.11688">
        <ele>103.96</ele>
        <time>2019-04-06T13:47:20Z</time>
      </trkpt>
      <trkpt lat="48.72054" lon="2.11675">
        <ele>104.44</ele>
        <time>2019-04-06T13:47:25Z</time>
      </trkpt>
      <trkpt lat="48.72062" lon="2.11655">
        <ele>104.44</ele>
        <time>2019-04-06T13:47:37Z</time>
      </trkpt>
      <trkpt lat="48.72069" lon="2.11636">
        <ele>104.92</ele>
        <time>2019-04-06T13:47:50Z</time>
      </trkpt>
      <trkpt lat="48.72081" lon="2.11614">
        <ele>104.44</ele>
        <time>2019-04-06T13:48:04Z</time>
      </trkpt>
      <trkpt lat="48.72105" lon="2.11563">
        <ele>104.92</ele>
        <time>2019-04-06T13:48:19Z</time>
      </trkpt>
      <trkpt lat="48.72116" lon="2.11546">
        <ele>103.96</ele>
        <time>2019-04-06T13:48:27Z</time>
      </trkpt>
      <trkpt lat="48.72119" lon="2.1153">
        <ele>104.44</ele>
        <time>2019-04-06T13:48:38Z</time>
      </trkpt>
      <trkpt lat="48.72122" lon="2.1152">
        <ele>104.44</ele>
        <time>2019-04-06T13:48:46Z</time>
      </trkpt>
      <trkpt lat="48.72122" lon="2.11503">
        <ele>104.92</ele>
        <time>2019-04-06T13:48:56Z</time>
      </trkpt>
      <trkpt lat="48.72126" lon="2.11489">
        <ele>105.4</ele>
        <time>2019-04-06T13:49:07Z</time>
      </trkpt>
      <trkpt lat="48.72126" lon="2.11488">
        <ele>105.4</ele>
        <time>2019-04-06T13:49:08Z</time>
      </trkpt>
      <trkpt lat="48.72132" lon="2.11473">
        <ele>104.92</ele>
        <time>2019-04-06T13:49:23Z</time>
      </trkpt>
      <trkpt lat="48.72135" lon="2.11467">
        <ele>105.4</ele>
        <time>2019-04-06T13:49:25Z</time>
      </trkpt>
      <trkpt lat="48.72149" lon="2.11449">
        <ele>105.4</ele>
        <time>2019-04-06T13:49:38Z</time>
      </trkpt>
      <trkpt lat="48.72153" lon="2.11443">
        <ele>105.4</ele>
        <time>2019-04-06T13:49:48Z</time>
      </trkpt>
      <trkpt lat="48.7216" lon="2.11434">
        <ele>105.4</ele>
        <time>2019-04-06T13:50:01Z</time>
      </trkpt>
      <trkpt lat="48.72165" lon="2.11432">
        <ele>105.4</ele>
        <time>2019-04-06T13:50:09Z</time>
      </trkpt>
      <trkpt lat="48.72175" lon="2.11427">
        <ele>105.4</ele>
        <time>2019-04-06T13:50:16Z</time>
      </trkpt>
      <trkpt lat="48.72177" lon="2.11428">
        <ele>105.88</ele>
        <time>2019-04-06T13:50:20Z</time>
      </trkpt>
      <trkpt lat="48.72183" lon="2.11423">
        <ele>106.84</ele>
        <time>2019-04-06T13:50:28Z</time>
      </trkpt>
      <trkpt lat="48.72186" lon="2.11418">
        <ele>106.84</ele>
        <time>2019-04-06T13:50:32Z</time>
      </trkpt>
      <trkpt lat="48.7219" lon="2.11409">
        <ele>107.81</ele>
        <time>2019-04-06T13:50:37Z</time>
      </trkpt>
      <trkpt lat="48.72191" lon="2.11407">
        <ele>107.81</ele>
        <time>2019-04-06T13:50:38Z</time>
      </trkpt>
      <trkpt lat="48.72199" lon="2.11391">
        <ele>106.36</ele>
        <time>2019-04-06T13:50:49Z</time>
      </trkpt>
      <trkpt lat="48.72216" lon="2.11358">
        <ele>107.81</ele>
        <time>2019-04-06T13:51:00Z</time>
      </trkpt>
      <trkpt lat="48.72225" lon="2.1135">
        <ele>107.81</ele>
        <time>2019-04-06T13:51:10Z</time>
      </trkpt>
      <trkpt lat="48.72229" lon="2.11345">
        <ele>107.32</ele>
        <time>2019-04-06T13:51:14Z</time>
      </trkpt>
      <trkpt lat="48.72232" lon="2.11339">
        <ele>106.36</ele>
        <time>2019-04-06T13:51:17Z</time>
      </trkpt>
      <trkpt lat="48.72241" lon="2.11331">
        <ele>106.36</ele>
        <time>2019-04-06T13:51:27Z</time>
      </trkpt>
      <trkpt lat="48.72251" lon="2.1132">
        <ele>105.4</ele>
        <time>2019-04-06T13:51:41Z</time>
      </trkpt>
      <trkpt lat="48.72259" lon="2.1131">
        <ele>105.88</ele>
        <time>2019-04-06T13:51:50Z</time>
      </trkpt>
      <trkpt lat="48.72267" lon="2.11303">
        <ele>106.84</ele>
        <time>2019-04-06T13:52:01Z</time>
      </trkpt>
      <trkpt lat="48.72282" lon="2.11276">
        <ele>106.84</ele>
        <time>2019-04-06T13:52:17Z</time>
      </trkpt>
      <trkpt lat="48.72295" lon="2.11263">
        <ele>106.84</ele>
        <time>2019-04-06T13:52:30Z</time>
      </trkpt>
      <trkpt lat="48.72298" lon="2.11262">
        <ele>106.84</ele>
        <time>2019-04-06T13:52:33Z</time>
      </trkpt>
      <trkpt lat="48.72301" lon="2.11259">
        <ele>107.32</ele>
        <time>2019-04-06T13:52:38Z</time>
      </trkpt>
      <trkpt lat="48.72301" lon="2.11257">
        <ele>107.81</ele>
        <time>2019-04-06T13:52:39Z</time>
      </trkpt>
      <trkpt lat="48.72301" lon="2.11256">
        <ele>107.81</ele>
        <time>2019-04-06T13:52:53Z</time>
      </trkpt>
      <trkpt lat="48.72308" lon="2.11235">
        <ele>108.77</ele>
        <time>2019-04-06T13:53:05Z</time>
      </trkpt>
      <trkpt lat="48.72309" lon="2.11221">
        <ele>110.21</ele>
        <time>2019-04-06T13:53:15Z</time>
      </trkpt>
      <trkpt lat="48.72317" lon="2.11203">
        <ele>110.21</ele>
        <time>2019-04-06T13:53:29Z</time>
      </trkpt>
      <trkpt lat="48.72318" lon="2.11201">
        <ele>110.69</ele>
        <time>2019-04-06T13:53:30Z</time>
      </trkpt>
      <trkpt lat="48.72326" lon="2.11188">
        <ele>110.69</ele>
        <time>2019-04-06T13:53:46Z</time>
      </trkpt>
      <trkpt lat="48.72331" lon="2.1118">
        <ele>111.65</ele>
        <time>2019-04-06T13:53:51Z</time>
      </trkpt>
      <trkpt lat="48.72336" lon="2.11175">
        <ele>112.13</ele>
        <time>2019-04-06T13:53:57Z</time>
      </trkpt>
      <trkpt lat="48.72343" lon="2.11171">
        <ele>113.57</ele>
        <time>2019-04-06T13:54:04Z</time>
      </trkpt>
      <trkpt lat="48.72357" lon="2.11168">
        <ele>113.57</ele>
        <time>2019-04-06T13:54:18Z</time>
      </trkpt>
      <trkpt lat="48.72362" lon="2.1117">
        <ele>113.57</ele>
        <time>2019-04-06T13:54:22Z</time>
      </trkpt>
      <trkpt lat="48.72365" lon="2.11171">
        <ele>114.05</ele>
        <time>2019-04-06T13:54:24Z</time>
      </trkpt>
      <trkpt lat="48.72382" lon="2.11166">
        <ele>113.57</ele>
        <time>2019-04-06T13:54:37Z</time>
      </trkpt>
      <trkpt lat="48.72396" lon="2.11162">
        <ele>112.61</ele>
        <time>2019-04-06T13:54:48Z</time>
      </trkpt>
      <trkpt lat="48.7241" lon="2.11159">
        <ele>113.09</ele>
        <time>2019-04-06T13:54:59Z</time>
      </trkpt>
      <trkpt lat="48.72416" lon="2.11159">
        <ele>113.09</ele>
        <time>2019-04-06T13:55:05Z</time>
      </trkpt>
      <trkpt lat="48.72427" lon="2.11147">
        <ele>113.09</ele>
        <time>2019-04-06T13:55:20Z</time>
      </trkpt>
      <trkpt lat="48.72428" lon="2.11146">
        <ele>114.05</ele>
        <time>2019-04-06T13:55:22Z</time>
      </trkpt>
      <trkpt lat="48.72429" lon="2.11144">
        <ele>114.53</ele>
        <time>2019-04-06T13:55:23Z</time>
      </trkpt>
      <trkpt lat="48.72441" lon="2.1113">
        <ele>115.01</ele>
        <time>2019-04-06T13:55:34Z</time>
      </trkpt>
      <trkpt lat="48.72444" lon="2.11123">
        <ele>115.5</ele>
        <time>2019-04-06T13:55:42Z</time>
      </trkpt>
      <trkpt lat="48.72457" lon="2.11109">
        <ele>115.5</ele>
        <time>2019-04-06T13:55:53Z</time>
      </trkpt>
      <trkpt lat="48.72463" lon="2.11103">
        <ele>115.01</ele>
        <time>2019-04-06T13:56:01Z</time>
      </trkpt>
      <trkpt lat="48.72464" lon="2.11102">
        <ele>115.5</ele>
        <time>2019-04-06T13:56:02Z</time>
      </trkpt>
      <trkpt lat="48.72466" lon="2.11099">
        <ele>114.53</ele>
        <time>2019-04-06T13:56:04Z</time>
      </trkpt>
      <trkpt lat="48.72479" lon="2.11084">
        <ele>114.05</ele>
        <time>2019-04-06T13:56:16Z</time>
      </trkpt>
      <trkpt lat="48.72491" lon="2.11075">
        <ele>113.57</ele>
        <time>2019-04-06T13:56:27Z</time>
      </trkpt>
      <trkpt lat="48.72502" lon="2.11064">
        <ele>113.57</ele>
        <time>2019-04-06T13:56:35Z</time>
      </trkpt>
      <trkpt lat="48.72503" lon="2.11062">
        <ele>113.09</ele>
        <time>2019-04-06T13:56:36Z</time>
      </trkpt>
      <trkpt lat="48.7251" lon="2.11052">
        <ele>112.13</ele>
        <time>2019-04-06T13:56:41Z</time>
      </trkpt>
      <trkpt lat="48.72512" lon="2.11051">
        <ele>112.61</ele>
        <time>2019-04-06T13:56:42Z</time>
      </trkpt>
      <trkpt lat="48.72514" lon="2.11049">
        <ele>112.13</ele>
        <time>2019-04-06T13:56:43Z</time>
      </trkpt>
      <trkpt lat="48.72528" lon="2.11034">
        <ele>110.69</ele>
        <time>2019-04-06T13:56:53Z</time>
      </trkpt>
      <trkpt lat="48.72531" lon="2.11031">
        <ele>111.17</ele>
        <time>2019-04-06T13:56:55Z</time>
      </trkpt>
      <trkpt lat="48.7253" lon="2.11022">
        <ele>110.21</ele>
        <time>2019-04-06T13:57:03Z</time>
      </trkpt>
      <trkpt lat="48.72528" lon="2.1102">
        <ele>109.25</ele>
        <time>2019-04-06T13:57:04Z</time>
      </trkpt>
      <trkpt lat="48.72523" lon="2.11013">
        <ele>108.29</ele>
        <time>2019-04-06T13:57:09Z</time>
      </trkpt>
      <trkpt lat="48.72522" lon="2.1101">
        <ele>107.32</ele>
        <time>2019-04-06T13:57:10Z</time>
      </trkpt>
      <trkpt lat="48.72516" lon="2.10996">
        <ele>107.32</ele>
        <time>2019-04-06T13:57:17Z</time>
      </trkpt>
      <trkpt lat="48.72509" lon="2.1098">
        <ele>107.32</ele>
        <time>2019-04-06T13:57:29Z</time>
      </trkpt>
      <trkpt lat="48.72508" lon="2.10979">
        <ele>106.84</ele>
        <time>2019-04-06T13:57:30Z</time>
      </trkpt>
      <trkpt lat="48.72505" lon="2.10975">
        <ele>105.88</ele>
        <time>2019-04-06T13:57:32Z</time>
      </trkpt>
      <trkpt lat="48.72499" lon="2.10965">
        <ele>105.88</ele>
        <time>2019-04-06T13:57:43Z</time>
      </trkpt>
      <trkpt lat="48.72485" lon="2.10949">
        <ele>104.92</ele>
        <time>2019-04-06T13:57:55Z</time>
      </trkpt>
      <trkpt lat="48.72475" lon="2.10938">
        <ele>104.92</ele>
        <time>2019-04-06T13:58:07Z</time>
      </trkpt>
      <trkpt lat="48.72466" lon="2.10931">
        <ele>104.92</ele>
        <time>2019-04-06T13:58:17Z</time>
      </trkpt>
      <trkpt lat="48.72467" lon="2.10928">
        <ele>103.96</ele>
        <time>2019-04-06T13:58:19Z</time>
      </trkpt>
      <trkpt lat="48.72476" lon="2.10924">
        <ele>102.52</ele>
        <time>2019-04-06T13:58:32Z</time>
      </trkpt>
      <trkpt lat="48.72491" lon="2.10927">
        <ele>103.48</ele>
        <time>2019-04-06T13:58:46Z</time>
      </trkpt>
      <trkpt lat="48.72509" lon="2.10923">
        <ele>103.96</ele>
        <time>2019-04-06T13:58:59Z</time>
      </trkpt>
      <trkpt lat="48.7251" lon="2.10923">
        <ele>103</ele>
        <time>2019-04-06T13:59:00Z</time>
      </trkpt>
      <trkpt lat="48.72517" lon="2.10912">
        <ele>104.44</ele>
        <time>2019-04-06T13:59:08Z</time>
      </trkpt>
      <trkpt lat="48.72531" lon="2.10899">
        <ele>103.48</ele>
        <time>2019-04-06T13:59:21Z</time>
      </trkpt>
      <trkpt lat="48.7254" lon="2.10896">
        <ele>103.48</ele>
        <time>2019-04-06T13:59:30Z</time>
      </trkpt>
      <trkpt lat="48.72551" lon="2.10891">
        <ele>103.48</ele>
        <time>2019-04-06T13:59:38Z</time>
      </trkpt>
      <trkpt lat="48.72563" lon="2.10887">
        <ele>103</ele>
        <time>2019-04-06T13:59:50Z</time>
      </trkpt>
      <trkpt lat="48.72573" lon="2.10878">
        <ele>103</ele>
        <time>2019-04-06T14:00:01Z</time>
      </trkpt>
      <trkpt lat="48.72583" lon="2.10859">
        <ele>103.48</ele>
        <time>2019-04-06T14:00:16Z</time>
      </trkpt>
      <trkpt lat="48.72596" lon="2.10842">
        <ele>103</ele>
        <time>2019-04-06T14:00:30Z</time>
      </trkpt>
      <trkpt lat="48.72607" lon="2.10835">
        <ele>103.48</ele>
        <time>2019-04-06T14:00:42Z</time>
      </trkpt>
      <trkpt lat="48.72619" lon="2.10824">
        <ele>103.48</ele>
        <time>2019-04-06T14:00:56Z</time>
      </trkpt>
      <trkpt lat="48.7263" lon="2.1082">
        <ele>103.48</ele>
        <time>2019-04-06T14:01:08Z</time>
      </trkpt>
      <trkpt lat="48.72644" lon="2.10811">
        <ele>103</ele>
        <time>2019-04-06T14:01:23Z</time>
      </trkpt>
      <trkpt lat="48.72653" lon="2.10801">
        <ele>103.48</ele>
        <time>2019-04-06T14:01:29Z</time>
      </trkpt>
      <trkpt lat="48.7266" lon="2.10796">
        <ele>103.48</ele>
        <time>2019-04-06T14:01:34Z</time>
      </trkpt>
      <trkpt lat="48.72668" lon="2.10787">
        <ele>103.96</ele>
        <time>2019-04-06T14:01:46Z</time>
      </trkpt>
      <trkpt lat="48.72678" lon="2.10778">
        <ele>103.96</ele>
        <time>2019-04-06T14:01:59Z</time>
      </trkpt>
      <trkpt lat="48.7268" lon="2.10777">
        <ele>103</ele>
        <time>2019-04-06T14:02:00Z</time>
      </trkpt>
      <trkpt lat="48.72684" lon="2.10777">
        <ele>103.48</ele>
        <time>2019-04-06T14:02:04Z</time>
      </trkpt>
      <trkpt lat="48.72689" lon="2.10775">
        <ele>103.48</ele>
        <time>2019-04-06T14:02:09Z</time>
      </trkpt>
      <trkpt lat="48.72693" lon="2.10768">
        <ele>103.48</ele>
        <time>2019-04-06T14:02:22Z</time>
      </trkpt>
      <trkpt lat="48.72699" lon="2.10759">
        <ele>103</ele>
        <time>2019-04-06T14:02:33Z</time>
      </trkpt>
      <trkpt lat="48.72702" lon="2.10755">
        <ele>103.48</ele>
        <time>2019-04-06T14:02:37Z</time>
      </trkpt>
      <trkpt lat="48.72715" lon="2.10746">
        <ele>103</ele>
        <time>2019-04-06T14:02:49Z</time>
      </trkpt>
      <trkpt lat="48.72727" lon="2.10728">
        <ele>102.52</ele>
        <time>2019-04-06T14:03:02Z</time>
      </trkpt>
      <trkpt lat="48.7273" lon="2.1072">
        <ele>103</ele>
        <time>2019-04-06T14:03:12Z</time>
      </trkpt>
      <trkpt lat="48.72737" lon="2.10704">
        <ele>103</ele>
        <time>2019-04-06T14:03:26Z</time>
      </trkpt>
      <trkpt lat="48.7275" lon="2.10683">
        <ele>102.52</ele>
        <time>2019-04-06T14:03:41Z</time>
      </trkpt>
      <trkpt lat="48.72762" lon="2.1066">
        <ele>103</ele>
        <time>2019-04-06T14:03:53Z</time>
      </trkpt>
      <trkpt lat="48.72764" lon="2.10655">
        <ele>103</ele>
        <time>2019-04-06T14:03:56Z</time>
      </trkpt>
      <trkpt lat="48.72776" lon="2.10645">
        <ele>103.96</ele>
        <time>2019-04-06T14:04:09Z</time>
      </trkpt>
      <trkpt lat="48.7278" lon="2.1063">
        <ele>104.44</ele>
        <time>2019-04-06T14:04:21Z</time>
      </trkpt>
      <trkpt lat="48.72783" lon="2.10626">
        <ele>103.48</ele>
        <time>2019-04-06T14:04:25Z</time>
      </trkpt>
      <trkpt lat="48.72787" lon="2.10614">
        <ele>103.96</ele>
        <time>2019-04-06T14:04:33Z</time>
      </trkpt>
      <trkpt lat="48.72789" lon="2.10597">
        <ele>103.96</ele>
        <time>2019-04-06T14:04:45Z</time>
      </trkpt>
      <trkpt lat="48.72795" lon="2.10585">
        <ele>103.96</ele>
        <time>2019-04-06T14:04:53Z</time>
      </trkpt>
      <trkpt lat="48.72802" lon="2.10569">
        <ele>103</ele>
        <time>2019-04-06T14:05:04Z</time>
      </trkpt>
      <trkpt lat="48.72802" lon="2.10569">
        <ele>103.96</ele>
        <time>2019-04-06T14:05:05Z</time>
      </trkpt>
      <trkpt lat="48.72803" lon="2.10559">
        <ele>103.48</ele>
        <time>2019-04-06T14:05:12Z</time>
      </trkpt>
      <trkpt lat="48.72795" lon="2.10551">
        <ele>103.48</ele>
        <time>2019-04-06T14:05:22Z</time>
      </trkpt>
      <trkpt lat="48.72793" lon="2.10542">
        <ele>103.96</ele>
        <time>2019-04-06T14:05:28Z</time>
      </trkpt>
      <trkpt lat="48.72792" lon="2.10524">
        <ele>103.96</ele>
        <time>2019-04-06T14:05:41Z</time>
      </trkpt>
      <trkpt lat="48.7279" lon="2.10513">
        <ele>103.96</ele>
        <time>2019-04-06T14:05:49Z</time>
      </trkpt>
      <trkpt lat="48.72789" lon="2.10508">
        <ele>104.44</ele>
        <time>2019-04-06T14:05:52Z</time>
      </trkpt>
      <trkpt lat="48.72785" lon="2.10507">
        <ele>104.44</ele>
        <time>2019-04-06T14:06:04Z</time>
      </trkpt>
      <trkpt lat="48.72787" lon="2.10503">
        <ele>103.48</ele>
        <time>2019-04-06T14:06:17Z</time>
      </trkpt>
      <trkpt lat="48.72789" lon="2.10496">
        <ele>103.96</ele>
        <time>2019-04-06T14:06:25Z</time>
      </trkpt>
      <trkpt lat="48.72794" lon="2.10487">
        <ele>103.48</ele>
        <time>2019-04-06T14:06:30Z</time>
      </trkpt>
      <trkpt lat="48.72796" lon="2.10477">
        <ele>103.48</ele>
        <time>2019-04-06T14:06:36Z</time>
      </trkpt>
      <trkpt lat="48.72796" lon="2.10472">
        <ele>103.48</ele>
        <time>2019-04-06T14:06:40Z</time>
      </trkpt>
      <trkpt lat="48.72798" lon="2.10447">
        <ele>103.96</ele>
        <time>2019-04-06T14:06:56Z</time>
      </trkpt>
      <trkpt lat="48.72799" lon="2.10425">
        <ele>103.48</ele>
        <time>2019-04-06T14:07:08Z</time>
      </trkpt>
      <trkpt lat="48.72799" lon="2.10422">
        <ele>103.96</ele>
        <time>2019-04-06T14:07:09Z</time>
      </trkpt>
      <trkpt lat="48.72799" lon="2.10404">
        <ele>103.48</ele>
        <time>2019-04-06T14:07:22Z</time>
      </trkpt>
      <trkpt lat="48.72795" lon="2.10403">
        <ele>103.96</ele>
        <time>2019-04-06T14:07:46Z</time>
      </trkpt>
      <trkpt lat="48.72795" lon="2.10395">
        <ele>103.96</ele>
        <time>2019-04-06T14:07:51Z</time>
      </trkpt>
      <trkpt lat="48.72794" lon="2.10385">
        <ele>104.44</ele>
        <time>2019-04-06T14:07:59Z</time>
      </trkpt>
      <trkpt lat="48.72801" lon="2.10361">
        <ele>104.44</ele>
        <time>2019-04-06T14:08:11Z</time>
      </trkpt>
      <trkpt lat="48.72805" lon="2.10339">
        <ele>104.44</ele>
        <time>2019-04-06T14:08:21Z</time>
      </trkpt>
      <trkpt lat="48.72802" lon="2.10323">
        <ele>104.44</ele>
        <time>2019-04-06T14:08:30Z</time>
      </trkpt>
      <trkpt lat="48.7281" lon="2.10303">
        <ele>103.96</ele>
        <time>2019-04-06T14:08:44Z</time>
      </trkpt>
      <trkpt lat="48.72807" lon="2.10269">
        <ele>104.44</ele>
        <time>2019-04-06T14:08:58Z</time>
      </trkpt>
      <trkpt lat="48.72803" lon="2.10254">
        <ele>104.44</ele>
        <time>2019-04-06T14:09:11Z</time>
      </trkpt>
      <trkpt lat="48.72807" lon="2.10241">
        <ele>104.92</ele>
        <time>2019-04-06T14:09:20Z</time>
      </trkpt>
      <trkpt lat="48.72807" lon="2.10223">
        <ele>105.4</ele>
        <time>2019-04-06T14:09:36Z</time>
      </trkpt>
      <trkpt lat="48.72808" lon="2.10221">
        <ele>105.88</ele>
        <time>2019-04-06T14:09:39Z</time>
      </trkpt>
      <trkpt lat="48.72821" lon="2.10206">
        <ele>104.92</ele>
        <time>2019-04-06T14:09:51Z</time>
      </trkpt>
      <trkpt lat="48.72822" lon="2.10204">
        <ele>104.44</ele>
        <time>2019-04-06T14:09:54Z</time>
      </trkpt>
      <trkpt lat="48.72835" lon="2.10185">
        <ele>104.92</ele>
        <time>2019-04-06T14:10:05Z</time>
      </trkpt>
      <trkpt lat="48.7284" lon="2.10176">
        <ele>104.92</ele>
        <time>2019-04-06T14:10:19Z</time>
      </trkpt>
      <trkpt lat="48.72844" lon="2.1017">
        <ele>104.44</ele>
        <time>2019-04-06T14:10:43Z</time>
      </trkpt>
      <trkpt lat="48.72839" lon="2.10165">
        <ele>105.4</ele>
        <time>2019-04-06T14:10:54Z</time>
      </trkpt>
      <trkpt lat="48.72852" lon="2.10173">
        <ele>104.44</ele>
        <time>2019-04-06T14:11:08Z</time>
      </trkpt>
      <trkpt lat="48.72861" lon="2.10178">
        <ele>105.4</ele>
        <time>2019-04-06T14:11:20Z</time>
      </trkpt>
      <trkpt lat="48.72868" lon="2.10198">
        <ele>105.88</ele>
        <time>2019-04-06T14:11:36Z</time>
      </trkpt>
      <trkpt lat="48.72882" lon="2.10212">
        <ele>106.84</ele>
        <time>2019-04-06T14:11:49Z</time>
      </trkpt>
      <trkpt lat="48.72896" lon="2.10217">
        <ele>107.81</ele>
        <time>2019-04-06T14:12:02Z</time>
      </trkpt>
      <trkpt lat="48.72912" lon="2.10215">
        <ele>107.81</ele>
        <time>2019-04-06T14:12:15Z</time>
      </trkpt>
      <trkpt lat="48.72922" lon="2.10212">
        <ele>108.77</ele>
        <time>2019-04-06T14:12:22Z</time>
      </trkpt>
      <trkpt lat="48.72925" lon="2.10206">
        <ele>109.25</ele>
        <time>2019-04-06T14:12:31Z</time>
      </trkpt>
      <trkpt lat="48.72931" lon="2.10203">
        <ele>110.21</ele>
        <time>2019-04-06T14:12:36Z</time>
      </trkpt>
      <trkpt lat="48.72941" lon="2.10199">
        <ele>111.17</ele>
        <time>2019-04-06T14:12:49Z</time>
      </trkpt>
      <trkpt lat="48.72946" lon="2.10187">
        <ele>112.13</ele>
        <time>2019-04-06T14:13:04Z</time>
      </trkpt>
      <trkpt lat="48.72953" lon="2.10179">
        <ele>113.09</ele>
        <time>2019-04-06T14:13:24Z</time>
      </trkpt>
      <trkpt lat="48.72952" lon="2.10181">
        <ele>113.09</ele>
        <time>2019-04-06T14:13:30Z</time>
      </trkpt>
      <trkpt lat="48.72962" lon="2.10179">
        <ele>112.61</ele>
        <time>2019-04-06T14:13:52Z</time>
      </trkpt>
      <trkpt lat="48.72968" lon="2.10175">
        <ele>113.09</ele>
        <time>2019-04-06T14:14:11Z</time>
      </trkpt>
      <trkpt lat="48.7297" lon="2.10168">
        <ele>113.57</ele>
        <time>2019-04-06T14:14:25Z</time>
      </trkpt>
      <trkpt lat="48.72977" lon="2.10163">
        <ele>115.01</ele>
        <time>2019-04-06T14:14:35Z</time>
      </trkpt>
      <trkpt lat="48.72985" lon="2.10158">
        <ele>115.5</ele>
        <time>2019-04-06T14:14:49Z</time>
      </trkpt>
      <trkpt lat="48.72994" lon="2.10149">
        <ele>116.46</ele>
        <time>2019-04-06T14:15:03Z</time>
      </trkpt>
      <trkpt lat="48.72992" lon="2.10147">
        <ele>116.46</ele>
        <time>2019-04-06T14:15:14Z</time>
      </trkpt>
      <trkpt lat="48.72997" lon="2.10146">
        <ele>116.46</ele>
        <time>2019-04-06T14:15:29Z</time>
      </trkpt>
      <trkpt lat="48.72995" lon="2.10145">
        <ele>116.46</ele>
        <time>2019-04-06T14:15:48Z</time>
      </trkpt>
      <trkpt lat="48.72992" lon="2.10142">
        <ele>116.94</ele>
        <time>2019-04-06T14:16:06Z</time>
      </trkpt>
      <trkpt lat="48.72995" lon="2.1014">
        <ele>115.98</ele>
        <time>2019-04-06T14:16:16Z</time>
      </trkpt>
      <trkpt lat="48.72997" lon="2.10137">
        <ele>115.98</ele>
        <time>2019-04-06T14:16:20Z</time>
      </trkpt>
      <trkpt lat="48.73008" lon="2.10125">
        <ele>115.98</ele>
        <time>2019-04-06T14:16:32Z</time>
      </trkpt>
      <trkpt lat="48.73009" lon="2.10116">
        <ele>115.98</ele>
        <time>2019-04-06T14:16:39Z</time>
      </trkpt>
      <trkpt lat="48.73008" lon="2.101">
        <ele>115.01</ele>
        <time>2019-04-06T14:16:49Z</time>
      </trkpt>
      <trkpt lat="48.73009" lon="2.10093">
        <ele>115.01</ele>
        <time>2019-04-06T14:16:54Z</time>
      </trkpt>
      <trkpt lat="48.73014" lon="2.10076">
        <ele>114.05</ele>
        <time>2019-04-06T14:17:05Z</time>
      </trkpt>
      <trkpt lat="48.73021" lon="2.10061">
        <ele>113.57</ele>
        <time>2019-04-06T14:17:15Z</time>
      </trkpt>
      <trkpt lat="48.73019" lon="2.10059">
        <ele>113.09</ele>
        <time>2019-04-06T14:17:16Z</time>
      </trkpt>
      <trkpt lat="48.73016" lon="2.1005">
        <ele>112.61</ele>
        <time>2019-04-06T14:17:31Z</time>
      </trkpt>
      <trkpt lat="48.73016" lon="2.10047">
        <ele>112.61</ele>
        <time>2019-04-06T14:17:35Z</time>
      </trkpt>
      <trkpt lat="48.73017" lon="2.10045">
        <ele>112.61</ele>
        <time>2019-04-06T14:17:36Z</time>
      </trkpt>
      <trkpt lat="48.73017" lon="2.10043">
        <ele>112.61</ele>
        <time>2019-04-06T14:17:37Z</time>
      </trkpt>
      <trkpt lat="48.73016" lon="2.1004">
        <ele>112.13</ele>
        <time>2019-04-06T14:17:42Z</time>
      </trkpt>
      <trkpt lat="48.73015" lon="2.10039">
        <ele>111.65</ele>
        <time>2019-04-06T14:17:55Z</time>
      </trkpt>
      <trkpt lat="48.73011" lon="2.1004">
        <ele>111.17</ele>
        <time>2019-04-06T14:18:12Z</time>
      </trkpt>
      <trkpt lat="48.73011" lon="2.10041">
        <ele>113.57</ele>
        <time>2019-04-06T14:18:14Z</time>
      </trkpt>
      <trkpt lat="48.73019" lon="2.10037">
        <ele>111.17</ele>
        <time>2019-04-06T14:23:17Z</time>
      </trkpt>
      <trkpt lat="48.73014" lon="2.10038">
        <ele>111.17</ele>
        <time>2019-04-06T14:23:33Z</time>
      </trkpt>
      <trkpt lat="48.73015" lon="2.10038">
        <ele>111.65</ele>
        <time>2019-04-06T14:23:34Z</time>
      </trkpt>
      <trkpt lat="48.73017" lon="2.10043">
        <ele>111.17</ele>
        <time>2019-04-06T14:23:38Z</time>
      </trkpt>
      <trkpt lat="48.73023" lon="2.10046">
        <ele>111.65</ele>
        <time>2019-04-06T14:23:47Z</time>
      </trkpt>
      <trkpt lat="48.73034" lon="2.10036">
        <ele>112.13</ele>
        <time>2019-04-06T14:23:57Z</time>
      </trkpt>
      <trkpt lat="48.73037" lon="2.10034">
        <ele>111.65</ele>
        <time>2019-04-06T14:23:59Z</time>
      </trkpt>
      <trkpt lat="48.73038" lon="2.10029">
        <ele>111.17</ele>
        <time>2019-04-06T14:24:04Z</time>
      </trkpt>
      <trkpt lat="48.73037" lon="2.10024">
        <ele>111.17</ele>
        <time>2019-04-06T14:24:16Z</time>
      </trkpt>
      <trkpt lat="48.73037" lon="2.10025">
        <ele>111.65</ele>
        <time>2019-04-06T14:24:26Z</time>
      </trkpt>
      <trkpt lat="48.73051" lon="2.10014">
        <ele>111.17</ele>
        <time>2019-04-06T14:24:40Z</time>
      </trkpt>
      <trkpt lat="48.73058" lon="2.10006">
        <ele>110.69</ele>
        <time>2019-04-06T14:24:48Z</time>
      </trkpt>
      <trkpt lat="48.73059" lon="2.10005">
        <ele>110.21</ele>
        <time>2019-04-06T14:24:49Z</time>
      </trkpt>
      <trkpt lat="48.73061" lon="2.10003">
        <ele>110.69</ele>
        <time>2019-04-06T14:24:50Z</time>
      </trkpt>
      <trkpt lat="48.73063" lon="2.10001">
        <ele>110.21</ele>
        <time>2019-04-06T14:24:51Z</time>
      </trkpt>
      <trkpt lat="48.73064" lon="2.09999">
        <ele>110.21</ele>
        <time>2019-04-06T14:24:52Z</time>
      </trkpt>
      <trkpt lat="48.73068" lon="2.09988">
        <ele>109.73</ele>
        <time>2019-04-06T14:25:01Z</time>
      </trkpt>
      <trkpt lat="48.7307" lon="2.09982">
        <ele>109.73</ele>
        <time>2019-04-06T14:25:08Z</time>
      </trkpt>
      <trkpt lat="48.73071" lon="2.09979">
        <ele>109.73</ele>
        <time>2019-04-06T14:25:09Z</time>
      </trkpt>
      <trkpt lat="48.73072" lon="2.09977">
        <ele>109.73</ele>
        <time>2019-04-06T14:25:10Z</time>
      </trkpt>
      <trkpt lat="48.73079" lon="2.09961">
        <ele>110.21</ele>
        <time>2019-04-06T14:25:21Z</time>
      </trkpt>
      <trkpt lat="48.73093" lon="2.09943">
        <ele>110.69</ele>
        <time>2019-04-06T14:25:34Z</time>
      </trkpt>
      <trkpt lat="48.73102" lon="2.09934">
        <ele>110.69</ele>
        <time>2019-04-06T14:25:46Z</time>
      </trkpt>
      <trkpt lat="48.73114" lon="2.09918">
        <ele>111.65</ele>
        <time>2019-04-06T14:25:59Z</time>
      </trkpt>
      <trkpt lat="48.73119" lon="2.09901">
        <ele>112.13</ele>
        <time>2019-04-06T14:26:10Z</time>
      </trkpt>
      <trkpt lat="48.73118" lon="2.09899">
        <ele>110.69</ele>
        <time>2019-04-06T14:26:11Z</time>
      </trkpt>
      <trkpt lat="48.73119" lon="2.09897">
        <ele>111.17</ele>
        <time>2019-04-06T14:26:12Z</time>
      </trkpt>
      <trkpt lat="48.73119" lon="2.09895">
        <ele>111.17</ele>
        <time>2019-04-06T14:26:13Z</time>
      </trkpt>
      <trkpt lat="48.7312" lon="2.09893">
        <ele>111.17</ele>
        <time>2019-04-06T14:26:14Z</time>
      </trkpt>
      <trkpt lat="48.73125" lon="2.09883">
        <ele>111.65</ele>
        <time>2019-04-06T14:26:26Z</time>
      </trkpt>
      <trkpt lat="48.73134" lon="2.09857">
        <ele>112.13</ele>
        <time>2019-04-06T14:26:41Z</time>
      </trkpt>
      <trkpt lat="48.73142" lon="2.09839">
        <ele>113.09</ele>
        <time>2019-04-06T14:26:54Z</time>
      </trkpt>
      <trkpt lat="48.73144" lon="2.09826">
        <ele>113.57</ele>
        <time>2019-04-06T14:27:05Z</time>
      </trkpt>
      <trkpt lat="48.73146" lon="2.09825">
        <ele>113.57</ele>
        <time>2019-04-06T14:27:07Z</time>
      </trkpt>
      <trkpt lat="48.73154" lon="2.0981">
        <ele>114.53</ele>
        <time>2019-04-06T14:27:20Z</time>
      </trkpt>
      <trkpt lat="48.73157" lon="2.09794">
        <ele>113.09</ele>
        <time>2019-04-06T14:27:30Z</time>
      </trkpt>
      <trkpt lat="48.73157" lon="2.09789">
        <ele>114.53</ele>
        <time>2019-04-06T14:27:33Z</time>
      </trkpt>
      <trkpt lat="48.73158" lon="2.09784">
        <ele>113.57</ele>
        <time>2019-04-06T14:27:37Z</time>
      </trkpt>
      <trkpt lat="48.73158" lon="2.09783">
        <ele>114.05</ele>
        <time>2019-04-06T14:27:38Z</time>
      </trkpt>
      <trkpt lat="48.73158" lon="2.09774">
        <ele>114.05</ele>
        <time>2019-04-06T14:27:44Z</time>
      </trkpt>
      <trkpt lat="48.73157" lon="2.0977">
        <ele>114.05</ele>
        <time>2019-04-06T14:27:48Z</time>
      </trkpt>
      <trkpt lat="48.73157" lon="2.09768">
        <ele>114.05</ele>
        <time>2019-04-06T14:27:49Z</time>
      </trkpt>
      <trkpt lat="48.73158" lon="2.09744">
        <ele>115.01</ele>
        <time>2019-04-06T14:28:03Z</time>
      </trkpt>
      <trkpt lat="48.73157" lon="2.09719">
        <ele>114.53</ele>
        <time>2019-04-06T14:28:16Z</time>
      </trkpt>
      <trkpt lat="48.73161" lon="2.09697">
        <ele>114.53</ele>
        <time>2019-04-06T14:28:29Z</time>
      </trkpt>
      <trkpt lat="48.73167" lon="2.09676">
        <ele>114.05</ele>
        <time>2019-04-06T14:28:44Z</time>
      </trkpt>
      <trkpt lat="48.73174" lon="2.0966">
        <ele>112.61</ele>
        <time>2019-04-06T14:28:51Z</time>
      </trkpt>
      <trkpt lat="48.73175" lon="2.09658">
        <ele>113.09</ele>
        <time>2019-04-06T14:28:52Z</time>
      </trkpt>
      <trkpt lat="48.73174" lon="2.09652">
        <ele>112.61</ele>
        <time>2019-04-06T14:28:58Z</time>
      </trkpt>
      <trkpt lat="48.73173" lon="2.09647">
        <ele>112.13</ele>
        <time>2019-04-06T14:29:01Z</time>
      </trkpt>
      <trkpt lat="48.73174" lon="2.09644">
        <ele>112.13</ele>
        <time>2019-04-06T14:29:02Z</time>
      </trkpt>
      <trkpt lat="48.73178" lon="2.09638">
        <ele>111.65</ele>
        <time>2019-04-06T14:29:05Z</time>
      </trkpt>
      <trkpt lat="48.73184" lon="2.09631">
        <ele>112.13</ele>
        <time>2019-04-06T14:29:13Z</time>
      </trkpt>
      <trkpt lat="48.73186" lon="2.0963">
        <ele>111.17</ele>
        <time>2019-04-06T14:29:14Z</time>
      </trkpt>
      <trkpt lat="48.73187" lon="2.09628">
        <ele>111.17</ele>
        <time>2019-04-06T14:29:15Z</time>
      </trkpt>
      <trkpt lat="48.73189" lon="2.09626">
        <ele>110.69</ele>
        <time>2019-04-06T14:29:16Z</time>
      </trkpt>
      <trkpt lat="48.73192" lon="2.09623">
        <ele>110.69</ele>
        <time>2019-04-06T14:29:17Z</time>
      </trkpt>
      <trkpt lat="48.73199" lon="2.09612">
        <ele>111.65</ele>
        <time>2019-04-06T14:29:26Z</time>
      </trkpt>
      <trkpt lat="48.73204" lon="2.09604">
        <ele>111.65</ele>
        <time>2019-04-06T14:29:37Z</time>
      </trkpt>
      <trkpt lat="48.73212" lon="2.09593">
        <ele>111.17</ele>
        <time>2019-04-06T14:29:49Z</time>
      </trkpt>
      <trkpt lat="48.73212" lon="2.09591">
        <ele>111.17</ele>
        <time>2019-04-06T14:29:50Z</time>
      </trkpt>
      <trkpt lat="48.73213" lon="2.09589">
        <ele>111.17</ele>
        <time>2019-04-06T14:29:51Z</time>
      </trkpt>
      <trkpt lat="48.73214" lon="2.09586">
        <ele>110.69</ele>
        <time>2019-04-06T14:29:52Z</time>
      </trkpt>
      <trkpt lat="48.73215" lon="2.09584">
        <ele>110.69</ele>
        <time>2019-04-06T14:29:53Z</time>
      </trkpt>
      <trkpt lat="48.73216" lon="2.09582">
        <ele>111.17</ele>
        <time>2019-04-06T14:29:54Z</time>
      </trkpt>
      <trkpt lat="48.73218" lon="2.0958">
        <ele>110.21</ele>
        <time>2019-04-06T14:29:55Z</time>
      </trkpt>
      <trkpt lat="48.73228" lon="2.09559">
        <ele>110.69</ele>
        <time>2019-04-06T14:30:08Z</time>
      </trkpt>
      <trkpt lat="48.7323" lon="2.09556">
        <ele>110.69</ele>
        <time>2019-04-06T14:30:10Z</time>
      </trkpt>
      <trkpt lat="48.73231" lon="2.09542">
        <ele>110.69</ele>
        <time>2019-04-06T14:30:18Z</time>
      </trkpt>
      <trkpt lat="48.7323" lon="2.0954">
        <ele>111.65</ele>
        <time>2019-04-06T14:30:19Z</time>
      </trkpt>
      <trkpt lat="48.73229" lon="2.09539">
        <ele>110.69</ele>
        <time>2019-04-06T14:30:20Z</time>
      </trkpt>
      <trkpt lat="48.73227" lon="2.09534">
        <ele>111.17</ele>
        <time>2019-04-06T14:30:23Z</time>
      </trkpt>
      <trkpt lat="48.73226" lon="2.09532">
        <ele>111.17</ele>
        <time>2019-04-06T14:30:24Z</time>
      </trkpt>
      <trkpt lat="48.73225" lon="2.0953">
        <ele>110.21</ele>
        <time>2019-04-06T14:30:25Z</time>
      </trkpt>
      <trkpt lat="48.73222" lon="2.09526">
        <ele>110.21</ele>
        <time>2019-04-06T14:30:28Z</time>
      </trkpt>
      <trkpt lat="48.73221" lon="2.09524">
        <ele>110.69</ele>
        <time>2019-04-06T14:30:29Z</time>
      </trkpt>
      <trkpt lat="48.7322" lon="2.09522">
        <ele>111.17</ele>
        <time>2019-04-06T14:30:30Z</time>
      </trkpt>
      <trkpt lat="48.7322" lon="2.09521">
        <ele>111.17</ele>
        <time>2019-04-06T14:30:31Z</time>
      </trkpt>
      <trkpt lat="48.7321" lon="2.09506">
        <ele>110.21</ele>
        <time>2019-04-06T14:30:43Z</time>
      </trkpt>
      <trkpt lat="48.73209" lon="2.09504">
        <ele>109.25</ele>
        <time>2019-04-06T14:30:44Z</time>
      </trkpt>
      <trkpt lat="48.73208" lon="2.09503">
        <ele>108.77</ele>
        <time>2019-04-06T14:30:45Z</time>
      </trkpt>
      <trkpt lat="48.73207" lon="2.095">
        <ele>108.77</ele>
        <time>2019-04-06T14:30:48Z</time>
      </trkpt>
      <trkpt lat="48.73207" lon="2.09498">
        <ele>109.73</ele>
        <time>2019-04-06T14:30:49Z</time>
      </trkpt>
      <trkpt lat="48.73206" lon="2.09493">
        <ele>109.25</ele>
        <time>2019-04-06T14:30:53Z</time>
      </trkpt>
      <trkpt lat="48.73206" lon="2.09491">
        <ele>108.77</ele>
        <time>2019-04-06T14:30:54Z</time>
      </trkpt>
      <trkpt lat="48.73206" lon="2.09468">
        <ele>108.77</ele>
        <time>2019-04-06T14:31:06Z</time>
      </trkpt>
      <trkpt lat="48.73207" lon="2.09465">
        <ele>108.77</ele>
        <time>2019-04-06T14:31:09Z</time>
      </trkpt>
      <trkpt lat="48.73208" lon="2.09463">
        <ele>108.77</ele>
        <time>2019-04-06T14:31:10Z</time>
      </trkpt>
      <trkpt lat="48.73209" lon="2.09461">
        <ele>108.29</ele>
        <time>2019-04-06T14:31:11Z</time>
      </trkpt>
      <trkpt lat="48.73217" lon="2.09437">
        <ele>108.77</ele>
        <time>2019-04-06T14:31:25Z</time>
      </trkpt>
      <trkpt lat="48.73223" lon="2.09422">
        <ele>108.77</ele>
        <time>2019-04-06T14:31:37Z</time>
      </trkpt>
      <trkpt lat="48.73223" lon="2.09401">
        <ele>109.25</ele>
        <time>2019-04-06T14:31:49Z</time>
      </trkpt>
    </trkseg>
  </trk>
</gpx>